[[[{"header":{"parameterUnit":"kt","parameterCategory":2,"dx":1,"dy":1,"la1":29.587661999999998,"la2":31.0,"lo1":-88.76705300000003,"lo2":-86.6583820000003,"nx":115,"ny":88,"refTime":"2022-10-19T18:00:00:Z","depth":0,"parameterNumber":1,"parameterNumberName":"U-component_of_WINDS"},"data":[-8.9904,-8.9378,-8.5744,-8.5176,-8.6647,-8.6012,-8.5381,-8.495,-8.4828,-8.4388,-8.3778,-8.3583,-8.3559,-8.3559,-8.3559,-8.3559,-8.3559,-8.3559,-8.3559,-8.3559,-8.3559,-8.3559,-8.3559,-8.3559,-8.3559,-8.3559,-8.3559,-8.3559,-8.3559,-8.3583,-8.4022,-8.462,-8.4791,-8.519,-8.6858,-8.6446,-8.5816,-8.4548,-8.2721,-8.1314,-7.9865,-7.7768,-7.4844,-7.4238,-7.4238,-7.4238,-7.4218,-7.4238,-7.4218,-7.4238,-7.4347,-7.4994,-7.536,-7.5854,-7.6601,-7.7366,-7.7853,-7.8633,-7.9662,-8.0289,-8.081,-8.1358,-8.055,-7.9257,-7.8803,-7.8034,-7.7249,-7.7026,-7.714,-7.7255,-7.7483,-7.7779,-7.796,-7.8323,-7.8369,-7.8933,-7.9496,-7.972,-7.9944,-8.0126,-8.0173,-8.0547,-8.1084,-8.0654,-8.0177,-8.0041,-7.99,-7.9794,-8.0575,-8.0095,-7.9517,-7.7978,-7.6317,-7.2427,-6.8038,-6.488,-6.4222,-6.5373,-6.6063,-6.6005,-6.4978,-6.2613,-6.1475,-6.1118,-6.0993,-6.0993,-6.0993,-6.0993,-6.1813,-6.2722,-6.3167,-6.3791,-6.5003,-6.5645,-6.5556,-8.9299,-8.8143,-8.4703,-8.3067,-8.2449,-8.2238,-8.2795,-8.3682,-8.3778,-8.3681,-8.3559,-8.3559,-8.3559,-8.3559,-8.3559,-8.3559,-8.3559,-8.3559,-8.3559,-8.3559,-8.3559,-8.3559,-8.3559,-8.3559,-8.3559,-8.3559,-8.3559,-8.3559,-8.3559,-8.3559,-8.3548,-8.3415,-8.2915,-8.2053,-8.2161,-8.195,-8.1952,-8.115,-8.0246,-7.8963,-7.7473,-7.5812,-7.4634,-7.4158,-7.4238,-7.4238,-7.4218,-7.4218,-7.4218,-7.4178,-7.4077,-7.4235,-7.4432,-7.4418,-7.5248,-7.5697,-7.6038,-7.6841,-7.7957,-7.8898,-7.9631,-8.0095,-7.9787,-7.9168,-7.8745,-7.7904,-7.6788,-7.6523,-7.6523,-7.666,-7.6889,-7.721,-7.7529,-7.787,-7.7779,-7.7938,-7.8595,-7.9159,-7.9608,-7.9944,-7.9967,-7.9967,-8.0042,-7.9592,-7.9346,-7.9258,-7.9055,-7.9026,-7.8585,-7.7841,-7.6018,-7.4,-7.2074,-6.881,-6.4974,-6.314,-6.2713,-6.373,-6.4264,-6.4702,-6.443,-6.2453,-6.1225,-6.0993,-6.0993,-6.0993,-6.0993,-6.0993,-6.1973,-6.3025,-6.3381,-6.3809,-6.5003,-6.5734,-6.5734,-8.4334,-8.1022,-7.887,-7.925,-8.1114,-8.0804,-8.1699,-8.3366,-8.3559,-8.3559,-8.3559,-8.3559,-8.3559,-8.3559,-8.3559,-8.3559,-8.3559,-8.3559,-8.3559,-8.3559,-8.3559,-8.3559,-8.3559,-8.3559,-8.3559,-8.3559,-8.3559,-8.3559,-8.3559,-8.3426,-8.2505,-8.1501,-8.1048,-8.0262,-7.9371,-7.9262,-7.9019,-7.8446,-7.7914,-7.6357,-7.4062,-7.3982,-7.3602,-7.3715,-7.3747,-7.3939,-7.3809,-7.3529,-7.327,-7.2931,-7.296,-7.2948,-7.2823,-7.291,-7.3191,-7.355,-7.395,-7.4205,-7.5272,-7.5957,-7.6556,-7.6975,-7.6835,-7.7261,-7.7029,-7.6304,-7.5207,-7.5697,-7.5834,-7.6294,-7.6638,-7.6775,-7.7095,-7.7301,-7.7346,-7.7369,-7.7801,-7.8346,-7.8729,-7.9155,-7.931,-7.9264,-7.8743,-7.8406,-7.823,-7.8005,-7.6849,-7.6573,-7.5887,-7.5101,-7.217,-6.9591,-6.6922,-6.3878,-6.2565,-6.2045,-6.167,-6.1852,-6.2263,-6.265,-6.2949,-6.1724,-6.0993,-6.0993,-6.0993,-6.0993,-6.0993,-6.0993,-6.1795,-6.3007,-6.3488,-6.3845,-6.4825,-6.5734,-6.5734,-7.9848,-7.5866,-7.458,-7.5886,-7.9078,-7.9072,-8.0361,-8.2614,-8.2748,-8.2966,-8.3426,-8.299,-8.2857,-8.3426,-8.3559,-8.3559,-8.3559,-8.3559,-8.3559,-8.3559,-8.3559,-8.3559,-8.3559,-8.3559,-8.3559,-8.3559,-8.3559,-8.3559,-8.3317,-8.2614,-8.1602,-8.0115,-7.7779,-7.7161,-7.6376,-7.5513,-7.5269,-7.4886,-7.4584,-7.353,-7.2284,-7.2413,-7.2441,-7.2642,-7.2548,-7.2523,-7.284,-7.2623,-7.2008,-7.1799,-7.1532,-7.1408,-7.1332,-7.1352,-7.1312,-7.1292,-7.1869,-7.2409,-7.3302,-7.3943,-7.4561,-7.4714,-7.4957,-7.5046,-7.4705,-7.4017,-7.3863,-7.4656,-7.5235,-7.5834,-7.6294,-7.6409,-7.6523,-7.6638,-7.6775,-7.7004,-7.714,-7.7506,-7.7846,-7.8094,-7.8317,-7.7975,-7.7476,-7.714,-7.7075,-7.6195,-7.4981,-7.3649,-7.2976,-7.0685,-6.7605,-6.5208,-6.2497,-6.2067,-6.1655,-6.1171,-6.126,-6.1368,-6.1565,-6.1279,-6.1243,-6.0993,-6.0993,-6.0993,-6.0993,-6.0993,-6.0993,-6.0993,-6.1652,-6.29,-6.356,-6.4059,-6.4914,-6.5681,-6.5734,-7.8831,-7.709,-7.5157,-7.3909,-7.3587,-7.5816,-7.796,-8.0004,-8.0115,-8.1382,-8.2748,-8.1248,-8.1579,-8.3317,-8.3559,-8.3559,-8.3559,-8.3559,-8.3559,-8.3559,-8.3559,-8.3559,-8.3559,-8.3559,-8.3559,-8.3559,-8.3559,-8.3559,-8.2966,-8.1712,-8.0449,-7.9669,-7.5957,-7.3639,-7.3161,-7.2264,-7.1878,-7.1743,-7.1621,-7.1497,-7.118,-7.1002,-7.1016,-7.1287,-7.0944,-7.0518,-7.113,-7.1302,-7.0931,-7.1162,-7.0996,-7.0454,-7.0447,-7.0388,-7.0427,-7.0532,-7.0871,-7.1224,-7.1678,-7.2275,-7.2993,-7.3297,-7.3898,-7.3691,-7.3128,-7.2321,-7.2734,-7.3491,-7.4191,-7.4888,-7.5581,-7.5812,-7.6179,-7.6409,-7.6523,-7.666,-7.6775,-7.6981,-7.7234,-7.7279,-7.7254,-7.6659,-7.6186,-7.5916,-7.5807,-7.4199,-7.2687,-7.0829,-6.9006,-6.5934,-6.3399,-6.1284,-6.0796,-6.1154,-6.085,-6.0993,-6.0993,-6.0993,-6.1118,-6.0993,-6.0993,-6.0993,-6.0993,-6.0993,-6.0993,-6.0993,-6.1011,-6.1064,-6.151,-6.274,-6.3631,-6.4201,-6.4843,-6.5556,-6.5734,-7.4103,-7.2524,-7.2838,-7.2077,-7.1192,-7.4481,-7.5749,-7.5613,-7.7029,-7.9086,-8.1027,-8.0226,-8.1271,-8.3208,-8.3559,-8.3559,-8.3559,-8.3559,-8.3559,-8.3559,-8.3559,-8.3559,-8.3559,-8.3559,-8.3559,-8.3559,-8.3559,-8.3317,-8.2966,-8.1137,-7.7801,-7.5864,-7.4018,-7.1838,-7.0681,-6.9932,-6.945,-6.945,-6.947,-6.9591,-6.9728,-6.978,-6.9856,-6.997,-7.0005,-6.9659,-6.9718,-6.9592,-6.9095,-6.881,-6.8876,-6.8536,-6.8358,-6.8358,-6.8481,-6.9053,-6.9564,-6.9849,-6.9991,-7.0542,-7.0562,-7.0622,-7.074,-7.0998,-7.0673,-7.1089,-7.1637,-7.2318,-7.3023,-7.382,-7.4518,-7.5235,-7.5697,-7.6294,-7.6294,-7.6294,-7.6546,-7.666,-7.662,-7.6578,-7.6059,-7.5447,-7.4882,-7.4701,-7.3991,-7.1982,-7.012,-6.7882,-6.4819,-6.2313,-6.0208,-5.9489,-6.0029,-6.0565,-6.0815,-6.0993,-6.0993,-6.0993,-6.0993,-6.0993,-6.0993,-6.0993,-6.0993,-6.0993,-6.0993,-6.0993,-6.0993,-6.1064,-6.1403,-6.2508,-6.3524,-6.4273,-6.5021,-6.5574,-6.5734,-7.0438,-6.9086,-7.0676,-7.0438,-6.9426,-7.2543,-7.3596,-7.2735,-7.425,-7.6345,-7.859,-7.8749,-7.9869,-8.2262,-8.3208,-8.3534,-8.3559,-8.3559,-8.3559,-8.3559,-8.3559,-8.3559,-8.3559,-8.3559,-8.3559,-8.3317,-8.2857,-8.2176,-8.1823,-7.9869,-7.6322,-7.2852,-7.172,-7.0578,-6.9546,-6.8866,-6.8927,-6.8826,-6.8625,-6.8705,-6.8643,-6.8576,-6.8451,-6.8403,-6.8321,-6.8189,-6.8018,-6.7932,-6.7758,-6.7188,-6.713,-6.6814,-6.6568,-6.6426,-6.6548,-6.7277,-6.7882,-6.8244,-6.8244,-6.8264,-6.8485,-6.8806,-6.8726,-6.8606,-6.8966,-6.9747,-7.0365,-7.1156,-7.1846,-7.2767,-7.3587,-7.4053,-7.454,-7.5004,-7.5466,-7.5834,-7.6409,-7.6546,-7.6501,-7.6304,-7.5789,-7.4936,-7.3126,-7.2727,-7.1455,-6.9362,-6.6942,-6.4068,-6.1413,-5.9686,-5.8272,-5.8921,-5.9514,-6.0316,-6.0654,-6.0993,-6.0993,-6.0993,-6.0993,-6.0993,-6.0993,-6.0993,-6.0993,-6.0993,-6.0993,-6.0993,-6.0993,-6.1278,-6.1546,-6.2561,-6.3435,-6.4362,-6.5146,-6.5502,-6.5734,-6.8966,-6.8866,-6.8866,-6.8966,-6.8846,-6.9326,-7.0578,-7.2405,-7.2522,-7.3647,-7.5498,-7.623,-7.7937,-7.9711,-8.2371,-8.3534,-8.3559,-8.3559,-8.3559,-8.3559,-8.3559,-8.3208,-8.3317,-8.3426,-8.3184,-8.2614,-8.1712,-8.0805,-7.9869,-7.7574,-7.5268,-7.2618,-7.0557,-6.9546,-6.9086,-6.8866,-6.8866,-6.8726,-6.8485,-6.8365,-6.8144,-6.7677,-6.7411,-6.7104,-6.6834,-6.6685,-6.6705,-6.6563,-6.6511,-6.6415,-6.6318,-6.5996,-6.5713,-6.5327,-6.5572,-6.5939,-6.667,-6.7034,-6.7156,-6.7277,-6.7398,-6.764,-6.7761,-6.8244,-6.8606,-6.8966,-6.9586,-7.0303,-7.066,-7.1589,-7.2414,-7.2767,-7.3257,-7.3958,-7.4424,-7.5119,-7.5949,-7.6179,-7.6179,-7.6096,-7.5585,-7.4534,-7.2775,-7.0185,-6.8897,-6.6654,-6.393,-6.1222,-5.9154,-5.7342,-5.7671,-5.8337,-5.9264,-6.0048,-6.0565,-6.0922,-6.0993,-6.0993,-6.0993,-6.0993,-6.0993,-6.0993,-6.0993,-6.0993,-6.0993,-6.0993,-6.0993,-6.1243,-6.1688,-6.2419,-6.3257,-6.4219,-6.5395,-6.5681,-6.5734,-6.8866,-6.8866,-6.8866,-6.8866,-6.8866,-6.8866,-6.9206,-6.9863,-7.0102,-7.1366,-7.3553,-7.5405,-7.7234,-7.9757,-8.2176,-8.3559,-8.3559,-8.3534,-8.3534,-8.3559,-8.3559,-8.2395,-8.2176,-8.2529,-8.2152,-8.1248,-8.0226,-7.9669,-7.9175,-7.5613,-7.3436,-7.1935,-7.0102,-6.9086,-6.8866,-6.8866,-6.8866,-6.8726,-6.8606,-6.8365,-6.8003,-6.7519,-6.6913,-6.6548,-6.6061,-6.5449,-6.5449,-6.5469,-6.5346,-6.5488,-6.5469,-6.5327,-6.5204,-6.5082,-6.5327,-6.5694,-6.6183,-6.6426,-6.667,-6.6791,-6.667,-6.6772,-6.7034,-6.7519,-6.8003,-6.8485,-6.8966,-6.9206,-6.9446,-7.0283,-7.1136,-7.1254,-7.1964,-7.2906,-7.3491,-7.3937,-7.4656,-7.5004,-7.5119,-7.5798,-7.5561,-7.449,-7.3064,-7.0116,-6.6929,-6.4058,-6.1179,-5.8998,-5.6929,-5.6796,-5.7036,-5.807,-5.905,-5.987,-6.0458,-6.085,-6.0993,-6.0993,-6.0993,-6.0993,-6.0993,-6.0993,-6.0993,-6.0993,-6.0993,-6.0993,-6.0993,-6.1243,-6.1777,-6.2437,-6.315,-6.4201,-6.5467,-6.5734,-6.5734,-6.8866,-6.8866,-6.8866,-6.8866,-6.8866,-6.8866,-6.8866,-6.8866,-6.8846,-6.9406,-7.1011,-7.3436,-7.5957,-7.7914,-7.9734,-8.1468,-8.2286,-8.2505,-8.2419,-8.231,-8.0916,-8.0226,-8.0004,-8.025,-8.0004,-7.8861,-7.7574,-7.7007,-7.7461,-7.3319,-7.1484,-7.1032,-6.9546,-6.8846,-6.8866,-6.8866,-6.8866,-6.8726,-6.8606,-6.8365,-6.8003,-6.7277,-6.667,-6.6061,-6.5694,-6.5204,-6.5082,-6.5082,-6.4959,-6.5082,-6.5082,-6.4959,-6.4959,-6.4959,-6.5082,-6.5449,-6.5572,-6.5816,-6.6041,-6.6163,-6.6061,-6.6183,-6.6324,-6.6791,-6.7398,-6.7882,-6.8124,-6.8244,-6.8365,-6.8846,-6.9706,-6.9825,-7.0681,-7.1609,-7.2082,-7.2649,-7.3353,-7.3725,-7.4264,-7.4971,-7.5435,-7.4392,-7.2907,-7.0167,-6.6401,-6.3192,-6.0302,-5.7898,-5.6582,-5.6591,-5.684,-5.7927,-5.8836,-5.9656,-6.0351,-6.0779,-6.0993,-6.0993,-6.0993,-6.0993,-6.0993,-6.0993,-6.0993,-6.0993,-6.0993,-6.0993,-6.0993,-6.1118,-6.1742,-6.2348,-6.3007,-6.3916,-6.5199,-6.5734,-6.5734,-6.8866,-6.8866,-6.8866,-6.8866,-6.8866,-6.8866,-6.8866,-6.8866,-6.8866,-6.8365,-6.7963,-7.0516,-7.2926,-7.4279,-7.582,-7.814,-7.998,-7.7801,-7.7597,-7.958,-7.8163,-7.7348,-7.737,-7.7506,-7.7257,-7.5772,-7.4713,-7.3764,-7.3065,-7.0557,-6.9406,-6.8846,-6.8946,-6.8726,-6.8866,-6.8866,-6.8866,-6.8746,-6.8124,-6.7761,-6.7277,-6.7034,-6.6183,-6.5694,-6.5449,-6.5327,-6.4959,-6.4959,-6.4959,-6.4959,-6.4959,-6.4959,-6.4959,-6.4959,-6.4959,-6.5101,-6.4959,-6.4959,-6.4959,-6.4959,-6.5327,-6.5694,-6.5939,-6.6305,-6.667,-6.6913,-6.7156,-6.7398,-6.7519,-6.7882,-6.8003,-6.8485,-6.9347,-7.0184,-7.0422,-7.1017,-7.1943,-7.2649,-7.3353,-7.4061,-7.4228,-7.4104,-7.2273,-6.9967,-6.6044,-6.2662,-5.9555,-5.7755,-5.6814,-5.6697,-5.6947,-5.7803,-5.8605,-5.9424,-6.0191,-6.0672,-6.0993,-6.0993,-6.0993,-6.0993,-6.0993,-6.0993,-6.0993,-6.0993,-6.0993,-6.0993,-6.0993,-6.0993,-6.1225,-6.1581,-6.2455,-6.3738,-6.4932,-6.5734,-6.5734,-6.8866,-6.8866,-6.8866,-6.8866,-6.8866,-6.8866,-6.8866,-6.8866,-6.8866,-6.8244,-6.7741,-6.9802,-7.1164,-7.2085,-7.3372,-7.5705,-7.6049,-7.5361,-7.559,-7.5705,-7.5498,-7.4806,-7.4691,-7.4691,-7.4713,-7.3691,-7.2639,-7.2031,-7.1442,-6.9266,-6.8365,-6.8124,-6.8124,-6.8485,-6.8626,-6.8866,-6.8866,-6.8606,-6.8264,-6.764,-6.7398,-6.6791,-6.5816,-6.5694,-6.5327,-6.5082,-6.4959,-6.4959,-6.4959,-6.4959,-6.4959,-6.4959,-6.4959,-6.4959,-6.4959,-6.4959,-6.4959,-6.4959,-6.4959,-6.4959,-6.4959,-6.5327,-6.5572,-6.5919,-6.6285,-6.667,-6.667,-6.6791,-6.6913,-6.7156,-6.7156,-6.7398,-6.8124,-6.8746,-6.8987,-6.9586,-7.064,-7.1352,-7.2179,-7.2628,-7.3565,-7.3785,-7.2209,-7.0608,-6.6864,-6.3656,-6.04,-5.7968,-5.7107,-5.6947,-5.7143,-5.7678,-5.8426,-5.9228,-6.003,-6.0547,-6.0993,-6.0993,-6.0993,-6.0993,-6.0993,-6.0993,-6.0993,-6.0993,-6.0993,-6.0993,-6.0993,-6.0993,-6.0993,-6.1011,-6.2312,-6.3756,-6.4879,-6.5556,-6.5592,-6.8866,-6.8866,-6.8866,-6.8866,-6.8866,-6.8866,-6.8866,-6.8726,-6.8485,-6.8244,-6.7882,-6.8505,-6.9284,-7.0098,-7.1261,-7.185,-7.3604,-7.2341,-7.248,-7.281,-7.2458,-7.1678,-7.1699,-7.1935,-7.2191,-7.0655,-7.0319,-7.0061,-6.9802,-6.8204,-6.7519,-6.7519,-6.7519,-6.8023,-6.8385,-6.8485,-6.8244,-6.8003,-6.764,-6.7277,-6.7034,-6.6183,-6.5816,-6.5572,-6.5082,-6.4959,-6.4959,-6.4959,-6.4959,-6.4959,-6.4959,-6.4959,-6.4959,-6.4959,-6.4959,-6.4959,-6.4959,-6.4959,-6.4959,-6.4959,-6.4959,-6.4959,-6.5204,-6.5572,-6.5572,-6.5816,-6.6061,-6.6305,-6.6305,-6.6407,-6.6548,-6.667,-6.6913,-6.7398,-6.7902,-6.8626,-6.9206,-6.9805,-7.0402,-7.0221,-7.1171,-7.2254,-7.1505,-7.0516,-6.7126,-6.4226,-6.0951,-5.8195,-5.7589,-5.7268,-5.7303,-5.7678,-5.8319,-5.9086,-5.987,-6.044,-6.0957,-6.0993,-6.0993,-6.0993,-6.0993,-6.0993,-6.0993,-6.0993,-6.0993,-6.0993,-6.0993,-6.0993,-6.1082,-6.1243,-6.2258,-6.3631,-6.4469,-6.5253,-6.5502,-6.8866,-6.8866,-6.8866,-6.8866,-6.8866,-6.8866,-6.8746,-6.8626,-6.8124,-6.7741,-6.7398,-6.6772,-6.7421,-6.8345,-6.7783,-6.8845,-7.2341,-6.7923,-6.8746,-6.9584,-6.8886,-6.8425,-6.8786,-6.8686,-6.7983,-6.7398,-6.7741,-6.7621,-6.6893,-6.6893,-6.6791,-6.6791,-6.7034,-6.764,-6.8003,-6.8124,-6.7761,-6.7277,-6.6913,-6.6548,-6.6183,-6.5816,-6.5572,-6.5101,-6.4959,-6.4959,-6.4959,-6.4959,-6.4959,-6.4959,-6.4959,-6.4959,-6.4959,-6.4959,-6.4959,-6.4959,-6.4959,-6.4959,-6.4959,-6.4959,-6.4959,-6.4959,-6.4959,-6.5082,-6.5082,-6.4959,-6.4959,-6.5204,-6.5572,-6.5816,-6.5939,-6.6305,-6.6426,-6.6811,-6.7175,-6.7781,-6.8365,-6.8726,-6.8586,-6.7943,-6.8145,-6.8726,-6.8345,-6.5784,-6.2741,-6.2476,-5.9605,-5.8881,-5.8311,-5.7624,-5.7606,-5.7606,-5.823,-5.8818,-5.9621,-6.0227,-6.069,-6.085,-6.094,-6.0993,-6.0993,-6.0993,-6.0993,-6.0993,-6.0993,-6.0993,-6.0993,-6.0993,-6.1082,-6.1367,-6.1991,-6.3096,-6.4023,-6.5021,-6.5538,-6.8866,-6.8866,-6.8866,-6.8866,-6.8866,-6.8866,-6.8485,-6.8124,-6.7882,-6.7257,-6.6548,-6.6183,-6.5919,-6.5919,-6.5778,-6.6022,-6.7198,-6.5797,-6.6022,-6.6509,-6.6407,-6.6529,-6.6893,-6.7257,-6.7034,-6.6913,-6.667,-6.6548,-6.6183,-6.5816,-6.5816,-6.6183,-6.6548,-6.7034,-6.7398,-6.7519,-6.7398,-6.6791,-6.6426,-6.6061,-6.5816,-6.5449,-6.5204,-6.4959,-6.4959,-6.4959,-6.4959,-6.4959,-6.4959,-6.4959,-6.4959,-6.4959,-6.4959,-6.4959,-6.4959,-6.4959,-6.4959,-6.4959,-6.4959,-6.4959,-6.4959,-6.4959,-6.4959,-6.4959,-6.4959,-6.4959,-6.4959,-6.4959,-6.5082,-6.5082,-6.5204,-6.5327,-6.5694,-6.6061,-6.6446,-6.7034,-6.764,-6.7882,-6.7862,-6.7116,-6.647,-6.6553,-6.4336,-6.1528,-6.0564,-6.0474,-6.0102,-5.9537,-5.8848,-5.7956,-5.7773,-5.75,-5.7963,-5.8302,-5.8997,-5.9638,-6.0351,-6.0726,-6.0904,-6.0993,-6.0993,-6.0993,-6.0993,-6.0993,-6.0993,-6.0993,-6.0993,-6.0993,-6.1029,-6.1528,-6.2098,-6.29,-6.3756,-6.4896,-6.5475,-6.8866,-6.8866,-6.8866,-6.8866,-6.8746,-6.8485,-6.8124,-6.7761,-6.7277,-6.6548,-6.5939,-6.5694,-6.5327,-6.5082,-6.4959,-6.4959,-6.4959,-6.4959,-6.4959,-6.5204,-6.5694,-6.5816,-6.5694,-6.6061,-6.6183,-6.6061,-6.5939,-6.5816,-6.5572,-6.5204,-6.5204,-6.5939,-6.6305,-6.6548,-6.7034,-6.7015,-6.6772,-6.6426,-6.5816,-6.5553,-6.5327,-6.5082,-6.4959,-6.4959,-6.4959,-6.4959,-6.4959,-6.4959,-6.4959,-6.4959,-6.4959,-6.4959,-6.4959,-6.4959,-6.4959,-6.4959,-6.4959,-6.4959,-6.4959,-6.4959,-6.4959,-6.4959,-6.4959,-6.4836,-6.4836,-6.4714,-6.4591,-6.4836,-6.4732,-6.4732,-6.4855,-6.4836,-6.5204,-6.5449,-6.5816,-6.6426,-6.6791,-6.7034,-6.7034,-6.6022,-6.5147,-6.353,-6.167,-6.0457,-6.0474,-5.999,-5.9204,-5.9121,-5.8726,-5.8322,-5.7999,-5.7719,-5.7838,-5.7963,-5.8569,-5.9068,-5.9799,-6.0369,-6.0565,-6.0886,-6.0922,-6.0993,-6.0993,-6.0993,-6.0993,-6.0993,-6.0993,-6.0993,-6.0993,-6.1581,-6.2258,-6.2847,-6.347,-6.4629,-6.5421,-6.8866,-6.8866,-6.8726,-6.8726,-6.8626,-6.8003,-6.764,-6.7398,-6.6426,-6.5816,-6.5694,-6.5204,-6.4959,-6.4959,-6.4959,-6.4959,-6.4959,-6.4959,-6.4959,-6.4959,-6.5449,-6.5449,-6.5082,-6.5572,-6.5449,-6.5204,-6.5082,-6.4959,-6.4959,-6.4959,-6.5185,-6.5675,-6.5939,-6.6061,-6.6305,-6.6305,-6.5816,-6.5694,-6.5204,-6.4959,-6.4959,-6.4959,-6.4959,-6.4959,-6.4959,-6.4959,-6.4959,-6.4959,-6.4959,-6.4959,-6.4959,-6.4959,-6.4959,-6.4959,-6.4959,-6.4959,-6.4959,-6.4959,-6.4959,-6.4959,-6.4959,-6.4959,-6.4714,-6.4732,-6.461,-6.424,-6.4117,-6.4591,-6.424,-6.3994,-6.4363,-6.4591,-6.4714,-6.4959,-6.5327,-6.5694,-6.6061,-6.6548,-6.6183,-6.5308,-6.4326,-6.2222,-6.0206,-6.0349,-6.0115,-5.9125,-5.8367,-5.8729,-5.8814,-5.8687,-5.8534,-5.8176,-5.8133,-5.7885,-5.8222,-5.8676,-5.9282,-5.9924,-6.0316,-6.0743,-6.0868,-6.0993,-6.0993,-6.0993,-6.0993,-6.0993,-6.0993,-6.0993,-6.0993,-6.1403,-6.208,-6.2686,-6.3292,-6.4326,-6.5449,-6.8866,-6.8746,-6.8244,-6.8003,-6.7882,-6.7398,-6.6791,-6.6305,-6.5919,-6.5572,-6.5204,-6.4959,-6.4959,-6.4959,-6.4959,-6.4959,-6.4959,-6.4959,-6.4959,-6.4959,-6.5082,-6.5082,-6.4959,-6.5082,-6.5082,-6.4959,-6.4959,-6.4959,-6.4959,-6.4959,-6.4959,-6.5204,-6.5694,-6.5816,-6.5572,-6.5694,-6.5591,-6.5327,-6.4959,-6.4959,-6.4959,-6.4959,-6.4959,-6.4959,-6.4959,-6.4959,-6.4959,-6.4959,-6.4959,-6.4959,-6.4959,-6.4959,-6.4959,-6.4959,-6.4959,-6.4959,-6.4959,-6.4959,-6.4836,-6.4836,-6.4714,-6.4714,-6.4363,-6.424,-6.3994,-6.3747,-6.3252,-6.3252,-6.3146,-6.327,-6.3623,-6.3851,-6.4117,-6.424,-6.4714,-6.5327,-6.5694,-6.5694,-6.5346,-6.4221,-6.3499,-6.1992,-6.0439,-6.008,-5.8838,-5.7842,-5.7732,-5.7986,-5.8206,-5.8403,-5.8684,-5.8377,-5.8161,-5.7861,-5.7801,-5.8151,-5.8961,-5.9549,-5.9977,-6.053,-6.0779,-6.0975,-6.0993,-6.0993,-6.0993,-6.0993,-6.0993,-6.0993,-6.0993,-6.1243,-6.1902,-6.2579,-6.3274,-6.4201,-6.5164,-6.8385,-6.8244,-6.764,-6.7398,-6.7297,-6.667,-6.6183,-6.5816,-6.5572,-6.5224,-6.4959,-6.4959,-6.4959,-6.4959,-6.4959,-6.4959,-6.4959,-6.4959,-6.4959,-6.4959,-6.4959,-6.4959,-6.4959,-6.4959,-6.4959,-6.4959,-6.4959,-6.4959,-6.4959,-6.4959,-6.4959,-6.4959,-6.5224,-6.5327,-6.5082,-6.5327,-6.5204,-6.5082,-6.4959,-6.4959,-6.4959,-6.4959,-6.4959,-6.4959,-6.4959,-6.4959,-6.4959,-6.4959,-6.4959,-6.4959,-6.4959,-6.4959,-6.4959,-6.4959,-6.4959,-6.4836,-6.461,-6.4486,-6.4486,-6.4117,-6.3994,-6.3994,-6.3765,-6.3499,-6.3376,-6.3128,-6.2898,-6.265,-6.2526,-6.265,-6.2898,-6.3252,-6.3518,-6.3623,-6.4098,-6.461,-6.4978,-6.5204,-6.4061,-6.2683,-6.1937,-6.1064,-5.9902,-5.8551,-5.7572,-5.7207,-5.708,-5.7207,-5.7478,-5.7851,-5.8254,-5.8068,-5.8025,-5.7591,-5.7266,-5.796,-5.8836,-5.9193,-5.9603,-6.0244,-6.0619,-6.0904,-6.0993,-6.0993,-6.0993,-6.0993,-6.0993,-6.0993,-6.0993,-6.1082,-6.1742,-6.2437,-6.3203,-6.3987,-6.4861,-6.766,-6.764,-6.7034,-6.667,-6.6548,-6.6061,-6.5713,-6.5591,-6.5224,-6.4959,-6.4959,-6.4959,-6.4959,-6.4959,-6.4959,-6.4959,-6.4959,-6.4959,-6.4959,-6.4959,-6.4959,-6.4959,-6.4959,-6.4959,-6.4959,-6.4959,-6.4959,-6.4959,-6.4959,-6.4959,-6.4959,-6.4959,-6.4959,-6.4959,-6.4959,-6.4959,-6.4959,-6.4959,-6.4959,-6.4959,-6.4959,-6.4959,-6.4959,-6.4959,-6.4959,-6.4959,-6.4959,-6.4959,-6.4959,-6.4959,-6.4959,-6.4836,-6.4732,-6.4732,-6.4591,-6.4363,-6.3994,-6.3765,-6.3765,-6.3394,-6.3146,-6.3022,-6.2898,-6.2774,-6.2609,-6.254,-6.2131,-6.1759,-6.1741,-6.2028,-6.2632,-6.2774,-6.2774,-6.3022,-6.3376,-6.387,-6.3975,-6.3709,-6.2807,-6.1278,-6.0493,-5.9724,-5.7977,-5.6487,-5.6154,-5.6187,-5.6203,-5.6331,-5.6842,-5.7445,-5.7918,-5.7917,-5.7878,-5.7275,-5.6875,-5.7847,-5.8244,-5.8441,-5.9003,-5.9642,-6.0121,-6.0601,-6.0993,-6.0886,-6.076,-6.0868,-6.0868,-6.0993,-6.0993,-6.0993,-6.1581,-6.2258,-6.2954,-6.3649,-6.4522,-6.7034,-6.6913,-6.6305,-6.6061,-6.5939,-6.5346,-6.5082,-6.5082,-6.4959,-6.4959,-6.4959,-6.4959,-6.4959,-6.4959,-6.4959,-6.4959,-6.4959,-6.4959,-6.4959,-6.4959,-6.4959,-6.4959,-6.4959,-6.4959,-6.4959,-6.4959,-6.4959,-6.4959,-6.4959,-6.4959,-6.4959,-6.4959,-6.4959,-6.4959,-6.4959,-6.4959,-6.4959,-6.4959,-6.4959,-6.4959,-6.4959,-6.4959,-6.4959,-6.4959,-6.4959,-6.4959,-6.4959,-6.4959,-6.4959,-6.4959,-6.4959,-6.4591,-6.424,-6.4117,-6.3889,-6.3394,-6.327,-6.3073,-6.3036,-6.293,-6.2807,-6.2898,-6.2471,-6.1808,-6.1303,-6.1165,-6.0936,-6.0652,-6.0814,-6.1278,-6.1368,-6.176,-6.2171,-6.2295,-6.265,-6.3376,-6.3357,-6.1813,-6.0779,-5.9508,-5.8087,-5.6692,-5.5322,-5.4569,-5.4874,-5.505,-5.5195,-5.558,-5.6459,-5.7207,-5.7445,-5.7513,-5.7463,-5.6936,-5.7275,-5.7922,-5.7364,-5.759,-5.8093,-5.8674,-5.9185,-5.9944,-6.0689,-6.06,-6.0474,-6.051,-6.0492,-6.0617,-6.0886,-6.1011,-6.1403,-6.1973,-6.2633,-6.3346,-6.2818,-6.6324,-6.6305,-6.5572,-6.5327,-6.5346,-6.5101,-6.4959,-6.4959,-6.4959,-6.4959,-6.4959,-6.4959,-6.4959,-6.4959,-6.4959,-6.4959,-6.4959,-6.4959,-6.4959,-6.4959,-6.4959,-6.4959,-6.4959,-6.4959,-6.4959,-6.4959,-6.4959,-6.4959,-6.4959,-6.4959,-6.4959,-6.4959,-6.4959,-6.4959,-6.4959,-6.4959,-6.4959,-6.4959,-6.4959,-6.4959,-6.4959,-6.4959,-6.4959,-6.4959,-6.4959,-6.4959,-6.4959,-6.4959,-6.4959,-6.4959,-6.4836,-6.461,-6.4117,-6.3994,-6.3623,-6.3022,-6.265,-6.238,-6.1836,-6.1481,-6.1231,-6.0656,-6.0411,-6.0037,-5.9844,-5.9776,-5.9567,-5.9514,-5.9906,-6.0583,-6.1064,-6.1368,-6.1386,-6.1654,-6.2028,-6.2526,-6.2365,-6.0546,-5.823,-5.5801,-5.4778,-5.3411,-5.2667,-5.2278,-5.2439,-5.3086,-5.336,-5.4938,-5.582,-5.6587,-5.6952,-5.7207,-5.7096,-5.715,-5.7474,-5.7284,-5.6792,-5.707,-5.7574,-5.8062,-5.8534,-5.9448,-6.0225,-6.0208,-6.0047,-5.9975,-5.999,-6.0258,-6.0527,-6.0635,-6.1081,-6.1706,-6.1893,-6.1329,-6.0595,-6.5694,-6.5694,-6.5082,-6.4959,-6.4959,-6.4959,-6.4959,-6.4959,-6.4959,-6.4959,-6.4959,-6.4959,-6.4959,-6.4959,-6.4959,-6.4959,-6.4959,-6.4959,-6.4959,-6.4959,-6.4959,-6.4959,-6.4959,-6.4959,-6.4959,-6.4959,-6.4959,-6.4959,-6.4959,-6.4959,-6.4959,-6.4959,-6.4959,-6.4959,-6.4959,-6.4959,-6.4959,-6.4959,-6.4959,-6.4959,-6.4959,-6.4959,-6.4959,-6.4959,-6.4959,-6.4959,-6.4959,-6.4959,-6.4959,-6.4959,-6.4836,-6.461,-6.3937,-6.3542,-6.3042,-6.2389,-6.1681,-6.0949,-6.0461,-5.9933,-5.9353,-5.9046,-5.9028,-5.864,-5.8515,-5.864,-5.8694,-5.8587,-5.9139,-5.9781,-6.0262,-6.0583,-6.0904,-6.1064,-6.1511,-6.1529,-6.0492,-5.8028,-5.4794,-5.2362,-5.1079,-5.0197,-4.8945,-4.9849,-5.0357,-5.1009,-5.2324,-5.4021,-5.505,-5.5948,-5.6459,-5.708,-5.6969,-5.7046,-5.7277,-5.7183,-5.6806,-5.6904,-5.731,-5.7711,-5.8074,-5.8666,-5.8944,-5.9139,-5.9406,-5.9421,-5.9217,-5.963,-6.0276,-6.0402,-6.058,-6.1346,-6.1425,-5.9228,-5.819,-6.4959,-6.4959,-6.4959,-6.4959,-6.4959,-6.4959,-6.4959,-6.4959,-6.4959,-6.4959,-6.4959,-6.4959,-6.4959,-6.4959,-6.4959,-6.4959,-6.4959,-6.4959,-6.4959,-6.4959,-6.4959,-6.4959,-6.4959,-6.4959,-6.4959,-6.4959,-6.4959,-6.4959,-6.4959,-6.4959,-6.4959,-6.4959,-6.4959,-6.4959,-6.4959,-6.4959,-6.4959,-6.4959,-6.4959,-6.4959,-6.4959,-6.4959,-6.4959,-6.4959,-6.4959,-6.4959,-6.4959,-6.4959,-6.4959,-6.4959,-6.4959,-6.4572,-6.3863,-6.2598,-6.1851,-6.0991,-6.0069,-5.9328,-5.8975,-5.8939,-5.8747,-5.8551,-5.8533,-5.8426,-5.7892,-5.8106,-5.8248,-5.7684,-5.8355,-5.8751,-5.9089,-5.9638,-6.0155,-6.0708,-6.0618,-5.9794,-5.7394,-5.3266,-5.0298,-4.979,-4.8128,-4.7615,-4.7497,-4.8011,-4.8668,-5.011,-5.1139,-5.2713,-5.3763,-5.4665,-5.5435,-5.6331,-5.6714,-5.6858,-5.6919,-5.698,-5.6932,-5.6794,-5.7139,-5.7177,-5.7536,-5.781,-5.7821,-5.8209,-5.9152,-5.9291,-5.8982,-5.936,-6.0133,-6.0258,-5.9217,-6.0284,-6.1011,-5.7515,-5.4522,-6.4959,-6.4959,-6.4959,-6.4959,-6.4959,-6.4959,-6.4959,-6.4959,-6.4959,-6.4959,-6.4959,-6.4959,-6.4959,-6.4959,-6.4959,-6.4959,-6.4959,-6.4959,-6.4959,-6.4959,-6.4959,-6.4959,-6.4959,-6.4959,-6.4959,-6.4959,-6.4959,-6.4959,-6.4959,-6.4959,-6.4959,-6.4959,-6.4959,-6.4959,-6.4959,-6.4959,-6.4959,-6.4959,-6.4959,-6.4959,-6.4959,-6.4959,-6.4959,-6.4959,-6.4959,-6.4959,-6.4959,-6.4959,-6.4959,-6.4959,-6.4817,-6.4242,-6.2813,-6.204,-6.1083,-5.966,-5.9149,-5.8462,-5.8123,-5.7999,-5.7803,-5.7446,-5.7339,-5.7125,-5.7018,-5.709,-5.7317,-5.6974,-5.7191,-5.7495,-5.7658,-5.8234,-5.9147,-5.9431,-5.6444,-5.339,-5.1783,-4.947,-4.8023,-4.7213,-4.6545,-4.6426,-4.7497,-4.7629,-4.842,-4.9325,-5.0095,-5.1269,-5.2454,-5.3262,-5.4166,-5.5066,-5.5708,-5.6348,-5.6554,-5.6919,-5.6899,-5.6832,-5.6949,-5.6697,-5.7125,-5.7538,-5.7563,-5.7644,-5.8775,-5.9269,-5.8873,-5.8855,-5.936,-5.9091,-5.7792,-5.7197,-5.6146,-5.3691,-5.0959,-6.4959,-6.4959,-6.4959,-6.4959,-6.4959,-6.4959,-6.4959,-6.4959,-6.4959,-6.4959,-6.4959,-6.4959,-6.4959,-6.4959,-6.4959,-6.4959,-6.4959,-6.4959,-6.4959,-6.4959,-6.4959,-6.4959,-6.4959,-6.4959,-6.4959,-6.4959,-6.4959,-6.4959,-6.4959,-6.4959,-6.4959,-6.4959,-6.4959,-6.4959,-6.4959,-6.4959,-6.4959,-6.4959,-6.4959,-6.4959,-6.4959,-6.4959,-6.4959,-6.4959,-6.4959,-6.4959,-6.4959,-6.4959,-6.4959,-6.4959,-6.4714,-6.3724,-6.2125,-6.1429,-6.0451,-5.8959,-5.8278,-5.7767,-5.7303,-5.7179,-5.7046,-5.6394,-5.6501,-5.6359,-5.6127,-5.6305,-5.5993,-5.5278,-5.6168,-5.6326,-5.562,-5.6045,-5.6687,-5.6927,-5.2964,-4.9064,-4.7583,-4.6297,-4.5617,-4.5087,-4.522,-4.5764,-4.6559,-4.6955,-4.7365,-4.842,-4.9193,-5.0095,-5.1139,-5.2065,-5.3246,-5.415,-5.5066,-5.5708,-5.6348,-5.6714,-5.6936,-5.6869,-5.6703,-5.6563,-5.6889,-5.7251,-5.7201,-5.72,-5.823,-5.8493,-5.824,-5.8223,-5.8223,-5.8332,-5.7157,-5.5866,-5.3857,-5.0709,-4.7983,-6.4959,-6.4959,-6.4959,-6.4959,-6.4959,-6.4959,-6.4959,-6.4959,-6.4959,-6.4959,-6.4959,-6.4959,-6.4959,-6.4959,-6.4959,-6.4959,-6.4959,-6.4959,-6.4959,-6.4959,-6.4959,-6.4959,-6.4959,-6.4959,-6.4959,-6.4959,-6.4959,-6.4959,-6.4959,-6.4959,-6.4959,-6.4959,-6.4959,-6.4959,-6.4959,-6.4959,-6.4959,-6.4959,-6.4959,-6.4959,-6.4959,-6.4959,-6.4959,-6.4959,-6.4959,-6.4959,-6.4959,-6.4959,-6.4959,-6.4855,-6.4345,-6.3214,-6.1649,-6.0433,-5.9401,-5.8097,-5.7109,-5.6724,-5.6466,-5.6519,-5.6448,-5.6359,-5.6341,-5.611,-5.5752,-5.5993,-5.5483,-5.3226,-5.4966,-5.5256,-5.2958,-5.3142,-5.3083,-5.222,-4.9244,-4.696,-4.5769,-4.393,-4.334,-4.3551,-4.4168,-4.4834,-4.5618,-4.575,-4.6426,-4.7365,-4.7879,-4.8931,-4.9834,-5.0763,-5.2194,-5.3376,-5.4279,-5.5179,-5.6092,-5.6459,-5.6952,-5.6903,-5.6853,-5.6769,-5.7013,-5.7063,-5.7023,-5.7167,-5.7605,-5.7461,-5.7461,-5.7588,-5.7715,-5.6121,-5.5082,-5.5082,-5.2651,-4.864,-4.5791,-6.4959,-6.4959,-6.4959,-6.4959,-6.4959,-6.4959,-6.4959,-6.4959,-6.4959,-6.4959,-6.4959,-6.4959,-6.4959,-6.4959,-6.4959,-6.4959,-6.4959,-6.4959,-6.4959,-6.4959,-6.4959,-6.4959,-6.4959,-6.4959,-6.4959,-6.4959,-6.4959,-6.4959,-6.4959,-6.4959,-6.4959,-6.4959,-6.4959,-6.4959,-6.4959,-6.4959,-6.4959,-6.4959,-6.4959,-6.4959,-6.4959,-6.4959,-6.4959,-6.4959,-6.4959,-6.4959,-6.4959,-6.4959,-6.4714,-6.4363,-6.4117,-6.1936,-5.8549,-5.9024,-5.807,-5.5828,-5.5554,-5.6341,-5.6341,-5.6341,-5.6341,-5.6225,-5.5994,-5.5664,-5.5572,-5.5679,-5.5623,-5.4361,-5.5232,-5.4822,-5.2265,-5.202,-4.9924,-4.5664,-4.372,-4.1773,-4.0681,-4.0414,-4.1054,-4.222,-4.314,-4.3996,-4.4688,-4.5087,-4.5896,-4.6837,-4.7365,-4.8142,-4.8537,-4.9193,-5.0372,-5.166,-5.2972,-5.4279,-5.5452,-5.6348,-5.6842,-5.6842,-5.6714,-5.6714,-5.6842,-5.6969,-5.6969,-5.7096,-5.7334,-5.7318,-5.6825,-5.6952,-5.6026,-5.3008,-5.0789,-5.0254,-4.9078,-4.5551,-4.3996,-6.4959,-6.4959,-6.4959,-6.4959,-6.4959,-6.4959,-6.4959,-6.4959,-6.4959,-6.4959,-6.4959,-6.4959,-6.4959,-6.4959,-6.4959,-6.4959,-6.4959,-6.4959,-6.4959,-6.4959,-6.4959,-6.4836,-6.4591,-6.4591,-6.461,-6.4591,-6.4836,-6.4959,-6.4959,-6.4959,-6.4959,-6.4959,-6.4959,-6.4959,-6.4959,-6.4959,-6.4959,-6.4959,-6.4959,-6.4959,-6.4959,-6.4959,-6.4959,-6.4959,-6.4959,-6.4326,-6.3425,-6.254,-6.1795,-6.1029,-6.0904,-5.8828,-5.5675,-5.6448,-5.6082,-5.3297,-5.4897,-5.6341,-5.6341,-5.6341,-5.6341,-5.6225,-5.578,-5.5315,-5.517,-5.5207,-5.4852,-5.3682,-5.4811,-5.3683,-5.077,-4.9931,-4.7657,-4.2227,-3.9794,-3.8721,-3.9312,-3.9134,-3.9739,-4.0781,-4.1963,-4.2924,-4.3713,-4.4149,-4.4863,-4.5962,-4.6559,-4.7233,-4.7629,-4.8288,-4.8931,-5.0487,-5.1415,-5.2858,-5.4423,-5.5708,-5.5964,-5.5964,-5.5948,-5.5948,-5.6587,-5.6969,-5.6969,-5.7096,-5.7334,-5.7207,-5.657,-5.5787,-5.4488,-5.2118,-4.8569,-4.6199,-4.4623,-4.3317,-4.2139,-6.4959,-6.4959,-6.4959,-6.4959,-6.4959,-6.4959,-6.4959,-6.4959,-6.4959,-6.4959,-6.4959,-6.4959,-6.4959,-6.4959,-6.4959,-6.4959,-6.4959,-6.4959,-6.4959,-6.4836,-6.4836,-6.4591,-6.4098,-6.3994,-6.3994,-6.4117,-6.461,-6.4836,-6.4714,-6.4714,-6.4714,-6.4855,-6.4714,-6.4836,-6.4855,-6.4836,-6.4959,-6.4959,-6.4959,-6.4959,-6.4959,-6.4959,-6.4959,-6.4959,-6.4326,-6.277,-5.994,-5.7564,-5.6183,-5.5417,-5.4778,-5.2962,-5.194,-5.3087,-5.3529,-5.3028,-5.4914,-5.6225,-5.6341,-5.6394,-5.6448,-5.6127,-5.5699,-5.517,-5.4604,-5.4564,-5.3587,-5.18,-5.2966,-5.244,-4.7672,-4.6668,-4.557,-4.282,-3.9618,-3.8977,-4.0104,-3.9446,-3.843,-3.9549,-4.045,-4.1376,-4.2274,-4.2895,-4.3665,-4.4955,-4.5631,-4.6161,-4.7101,-4.7483,-4.8537,-4.9965,-5.0879,-5.1675,-5.3505,-5.4954,-5.4954,-5.4938,-5.5066,-5.5323,-5.5948,-5.6459,-5.6331,-5.6969,-5.7207,-5.7207,-5.6587,-5.3974,-5.2667,-5.0153,-4.7137,-4.3971,-4.2929,-4.2005,-4.0698,-6.4959,-6.4959,-6.4959,-6.4959,-6.4959,-6.4959,-6.4959,-6.4959,-6.4959,-6.4959,-6.4959,-6.4959,-6.4959,-6.4959,-6.4959,-6.4959,-6.4959,-6.4959,-6.4959,-6.4836,-6.4468,-6.4136,-6.387,-6.3499,-6.3499,-6.387,-6.3747,-6.3623,-6.3623,-6.3623,-6.3642,-6.3623,-6.4117,-6.4221,-6.4363,-6.4714,-6.4959,-6.4959,-6.4959,-6.4836,-6.4959,-6.4959,-6.4959,-6.4326,-6.0886,-5.796,-5.6532,-5.5657,-5.4778,-5.412,-5.375,-5.2942,-5.191,-5.2885,-5.3258,-5.2861,-5.4914,-5.6341,-5.6394,-5.684,-5.6759,-5.585,-5.5484,-5.4966,-5.395,-5.3836,-5.3471,-5.2947,-5.3958,-5.26,-4.7862,-4.5824,-4.3621,-3.9641,-3.8041,-3.7832,-3.8421,-3.7957,-3.783,-3.8522,-3.9393,-4.024,-4.1108,-4.1982,-4.2904,-4.3825,-4.4967,-4.5485,-4.6161,-4.6559,-4.7483,-4.8405,-4.9441,-5.0748,-5.166,-5.2324,-5.2324,-5.3246,-5.352,-5.4295,-5.4938,-5.5323,-5.5836,-5.6587,-5.6969,-5.6969,-5.5403,-5.2522,-4.9892,-4.7137,-4.4503,-4.2406,-4.1615,-4.0832,-4.0563,-6.4959,-6.4959,-6.4959,-6.4959,-6.4959,-6.4959,-6.4959,-6.4959,-6.4959,-6.4959,-6.4959,-6.4959,-6.4959,-6.4959,-6.4959,-6.4855,-6.4591,-6.4591,-6.4486,-6.424,-6.3747,-6.3499,-6.3252,-6.2898,-6.2898,-6.3146,-6.2774,-6.2774,-6.2898,-6.3022,-6.3022,-6.3146,-6.3642,-6.3994,-6.4117,-6.4591,-6.4959,-6.4836,-6.3814,-6.3425,-6.3302,-6.2416,-6.1795,-6.0993,-5.6316,-5.3388,-5.2717,-5.1462,-5.046,-4.9705,-4.9705,-4.9651,-4.9737,-5.0386,-5.1192,-5.2508,-5.4897,-5.6341,-5.6394,-5.6706,-5.6391,-5.5403,-5.5049,-5.4426,-5.37,-5.3347,-5.3291,-5.3341,-5.3757,-5.1621,-4.724,-4.4496,-4.1826,-3.8067,-3.7209,-3.7221,-3.7198,-3.7073,-3.7191,-3.7645,-3.8217,-3.9052,-3.9775,-4.0629,-4.1706,-4.2886,-4.3846,-4.4611,-4.5273,-4.5896,-4.644,-4.7233,-4.8274,-4.9179,-4.9572,-4.9834,-5.0372,-5.156,-5.2339,-5.2987,-5.4423,-5.5066,-5.5708,-5.6587,-5.6969,-5.6714,-5.4761,-5.2004,-4.963,-4.6609,-4.2929,-4.1089,-4.017,-4.044,-4.044,-6.4959,-6.4959,-6.4959,-6.4959,-6.4959,-6.4959,-6.4959,-6.4959,-6.4959,-6.4959,-6.4959,-6.4959,-6.4836,-6.4836,-6.4714,-6.4486,-6.3994,-6.387,-6.3623,-6.3146,-6.3022,-6.2668,-6.2046,-6.1921,-6.2046,-6.2171,-6.2046,-6.2277,-6.2898,-6.2898,-6.2898,-6.2898,-6.3376,-6.387,-6.387,-6.4363,-6.4714,-6.4061,-6.2025,-6.0743,-6.0243,-5.764,-5.5494,-5.4106,-5.1228,-4.9268,-4.8314,-4.5432,-4.3629,-4.2836,-4.3246,-4.3931,-4.541,-4.5942,-4.8202,-5.1954,-5.4746,-5.6225,-5.611,-5.5787,-5.542,-5.51,-5.437,-5.3548,-5.3279,-5.2861,-5.2676,-5.271,-5.2625,-5.0654,-4.5857,-4.3287,-4.038,-3.7739,-3.7192,-3.6921,-3.6944,-3.6897,-3.7026,-3.7174,-3.728,-3.7814,-3.8652,-3.8814,-4.0175,-4.1669,-4.2375,-4.3078,-4.4546,-4.514,-4.571,-4.6399,-4.7087,-4.7629,-4.7629,-4.842,-4.9325,-5.0256,-5.0908,-5.1545,-5.3376,-5.5066,-5.5836,-5.6348,-5.6714,-5.5931,-5.3845,-5.1485,-4.9107,-4.608,-4.2406,-4.0563,-4.017,-4.017,-4.017,-6.4959,-6.4959,-6.4959,-6.4959,-6.4959,-6.4959,-6.4959,-6.4959,-6.4959,-6.4959,-6.4959,-6.4959,-6.4732,-6.424,-6.3747,-6.3394,-6.327,-6.327,-6.3146,-6.2898,-6.2544,-6.2171,-6.1921,-6.1511,-6.1511,-6.1903,-6.1511,-6.1636,-6.2171,-6.176,-6.1618,-6.1636,-6.2277,-6.2544,-6.265,-6.3146,-6.2577,-6.0743,-5.9867,-5.8448,-5.6002,-5.1015,-4.777,-4.6849,-4.5815,-4.5108,-4.4469,-4.358,-4.2807,-4.2149,-4.2263,-4.2777,-4.4197,-4.6562,-4.8673,-5.093,-5.3524,-5.4932,-5.4949,-5.5336,-5.5152,-5.4101,-5.4293,-5.3651,-5.2392,-5.1909,-5.1793,-5.181,-5.1793,-5.0272,-4.6415,-4.3829,-4.137,-3.878,-3.6923,-3.5982,-3.6029,-3.6334,-3.6534,-3.6557,-3.6792,-3.7268,-3.766,-3.831,-3.9122,-4.0316,-4.0913,-4.1891,-4.3014,-4.343,-4.398,-4.5564,-4.6413,-4.6809,-4.6969,-4.7497,-4.8288,-4.9077,-4.9427,-5.0327,-5.2744,-5.3376,-5.3876,-5.5608,-5.6537,-5.5787,-5.2796,-5.0443,-4.8203,-4.5034,-4.2273,-4.0305,-4.017,-4.017,-4.017,-6.4591,-6.424,-6.4732,-6.4959,-6.4836,-6.461,-6.4714,-6.4836,-6.4959,-6.4959,-6.478,-6.363,-6.2984,-6.2619,-6.2254,-6.2109,-6.2138,-6.2138,-6.2197,-6.2116,-6.176,-6.1636,-6.1529,-6.1243,-6.1243,-6.1529,-6.1261,-6.1261,-6.1529,-6.1243,-6.0993,-6.1118,-6.1654,-6.1404,-6.0439,-6.0761,-5.9553,-5.6857,-5.5568,-5.3264,-4.9882,-4.5985,-4.3757,-4.3347,-4.3136,-4.2764,-4.2497,-4.1909,-4.1535,-4.1377,-4.1915,-4.3276,-4.5278,-4.8173,-5.0577,-5.2639,-5.4323,-5.5048,-5.4833,-5.498,-5.4679,-5.3531,-5.3701,-5.3398,-5.2159,-5.1943,-5.181,-5.1445,-5.0538,-4.9203,-4.6959,-4.3817,-4.114,-3.928,-3.694,-3.5583,-3.5571,-3.5589,-3.5631,-3.5654,-3.5666,-3.5705,-3.6131,-3.6698,-3.7553,-3.8863,-3.9607,-4.0438,-4.1724,-4.2084,-4.2847,-4.4073,-4.5021,-4.5548,-4.5956,-4.6777,-4.7747,-4.826,-4.8367,-4.8964,-5.0949,-5.1502,-5.202,-5.4313,-5.506,-5.4361,-5.1219,-4.8859,-4.7164,-4.3476,-4.0967,-4.017,-4.017,-4.017,-4.017,-6.3855,-6.303,-6.394,-6.4506,-6.4308,-6.3836,-6.394,-6.443,-6.4487,-6.4487,-6.4138,-6.17,-6.063,-6.0574,-6.0529,-6.0554,-6.0687,-6.0705,-6.0699,-6.0797,-6.0779,-6.0815,-6.0957,-6.0868,-6.0922,-6.0993,-6.0993,-6.1118,-6.1118,-6.0904,-6.0868,-6.1011,-6.1207,-5.9959,-5.7831,-5.7451,-5.5853,-5.3214,-4.9897,-4.6438,-4.2833,-4.2463,-4.245,-4.2463,-4.1945,-4.1699,-4.1561,-4.0523,-3.9975,-4.0176,-4.1642,-4.4173,-4.7282,-4.9945,-5.2748,-5.5781,-5.6172,-5.5994,-5.5315,-5.4699,-5.4116,-5.348,-5.3096,-5.2827,-5.2593,-5.2593,-5.2309,-5.1428,-4.9399,-4.8322,-4.7608,-4.388,-4.1041,-3.9868,-3.7565,-3.5728,-3.5323,-3.4859,-3.4501,-3.4501,-3.4147,-3.3873,-3.4575,-3.474,-3.5522,-3.7333,-3.8183,-3.9055,-4.0204,-4.0915,-4.1564,-4.1996,-4.2721,-4.3486,-4.4475,-4.5987,-4.6812,-4.7301,-4.7411,-4.8373,-4.9366,-4.9674,-4.9597,-5.2286,-5.3027,-5.1885,-4.8762,-4.7102,-4.6128,-4.205,-4.0409,-4.01,-4.017,-4.017,-4.017,-6.1367,-6.1247,-6.1469,-6.1589,-6.1607,-6.1487,-6.1487,-6.1607,-6.1607,-6.1607,-6.145,-6.04,-5.9876,-5.9876,-5.9415,-5.9144,-5.9185,-5.9203,-5.9171,-5.9211,-5.9211,-5.9549,-6.0066,-6.012,-6.0423,-6.094,-6.0993,-6.0993,-6.0922,-6.0387,-6.0102,-5.9925,-5.7622,-5.6224,-5.5452,-5.3616,-5.1302,-4.8362,-4.475,-4.214,-4.0676,-4.0676,-4.0427,-3.9941,-3.9829,-3.9754,-3.9729,-3.9093,-3.8531,-3.8246,-4.076,-4.3313,-4.5507,-4.9411,-5.2545,-5.4406,-5.5312,-5.5298,-5.4699,-5.4099,-5.3614,-5.3497,-5.338,-5.3027,-5.2554,-5.2107,-5.1674,-5.1395,-5.0768,-5.0276,-4.9232,-4.6798,-4.453,-4.2152,-3.9678,-3.7055,-3.4703,-3.4116,-3.3752,-3.3325,-3.3519,-3.3611,-3.3742,-3.3873,-3.4301,-3.5285,-3.6322,-3.7333,-3.847,-3.9169,-3.9332,-3.9401,-3.9754,-4.0887,-4.2402,-4.3451,-4.4418,-4.5374,-4.5863,-4.6989,-4.8265,-4.9005,-4.9522,-5.0538,-5.1395,-4.9762,-4.6212,-4.5528,-4.3953,-4.0874,-3.9654,-3.9748,-4.0077,-4.017,-4.017,-6.0354,-5.9876,-6.0336,-6.0336,-5.9756,-6.0455,-6.0593,-6.0519,-5.9348,-5.8649,-5.8667,-5.8314,-5.8197,-5.8197,-5.7861,-5.7803,-5.8141,-5.8141,-5.8337,-5.8694,-5.8712,-5.8925,-5.93,-5.9335,-5.9549,-5.9924,-5.9959,-5.9941,-5.9906,-5.9531,-5.9335,-5.9178,-5.7539,-5.535,-5.2938,-5.0186,-4.7416,-4.4705,-4.1846,-4.0316,-3.9941,-3.9941,-3.9829,-3.9442,-3.9207,-3.8972,-3.87,-3.816,-3.8332,-3.9319,-4.1322,-4.3869,-4.6915,-5.005,-5.2527,-5.4016,-5.4252,-5.4062,-5.3706,-5.3106,-5.2791,-5.2791,-5.2595,-5.2426,-5.241,-5.2035,-5.1622,-5.0913,-5.0971,-5.0241,-4.8392,-4.7041,-4.5295,-4.2768,-4.0193,-3.782,-3.6169,-3.4551,-3.3113,-3.2537,-3.2228,-3.2261,-3.2496,-3.2625,-3.2905,-3.3623,-3.4313,-3.5181,-3.6287,-3.6715,-3.6909,-3.7027,-3.7807,-3.9015,-4.0502,-4.1553,-4.248,-4.347,-4.3909,-4.4773,-4.5879,-4.6355,-4.6839,-4.7841,-4.9062,-4.7936,-4.4608,-4.4213,-4.307,-4.0427,-3.942,-3.9619,-4.0018,-4.017,-4.0088,-5.9412,-5.8493,-5.9531,-5.9412,-5.8493,-5.9531,-5.9988,-5.9878,-5.7378,-5.6341,-5.6341,-5.6341,-5.6341,-5.6341,-5.6341,-5.6697,-5.7303,-5.7303,-5.7696,-5.8355,-5.8373,-5.8426,-5.8533,-5.8533,-5.8533,-5.8551,-5.8658,-5.864,-5.8533,-5.8533,-5.8293,-5.8017,-5.7929,-5.5118,-5.014,-4.6819,-4.3991,-4.166,-4.0393,-3.9776,-3.9637,-3.965,-3.9548,-3.9597,-3.8981,-3.859,-3.8111,-3.7479,-3.8162,-4.0588,-4.2151,-4.4705,-4.8698,-5.0949,-5.2596,-5.366,-5.3255,-5.2881,-5.2899,-5.2428,-5.2162,-5.2233,-5.1838,-5.1641,-5.2026,-5.1984,-5.1495,-5.0503,-5.0362,-4.923,-4.6742,-4.6567,-4.5699,-4.3136,-4.0401,-3.8565,-3.794,-3.4891,-3.2395,-3.1692,-3.0789,-3.06,-3.1115,-3.1209,-3.1591,-3.2329,-3.2717,-3.3096,-3.4126,-3.429,-3.4505,-3.5216,-3.6227,-3.7296,-3.8527,-3.979,-4.0769,-4.1534,-4.1778,-4.2349,-4.3304,-4.3437,-4.3816,-4.4587,-4.6134,-4.5894,-4.3236,-4.3517,-4.2549,-3.992,-3.9271,-3.9387,-3.9591,-3.9882,-3.9752,-5.6984,-5.6769,-5.6966,-5.7002,-5.6769,-5.6984,-5.71,-5.7082,0.0,0.0,0.0,-5.6341,-5.6341,-5.6341,-5.6341,-5.6412,-5.6537,-5.6537,-5.6626,-5.6751,-5.6751,-5.709,-5.7678,-5.7696,-5.7713,-5.7731,-5.8391,-5.8355,-5.7713,-5.7814,-5.6711,-5.47,-5.3921,-5.0991,-4.6022,-4.2666,-4.0558,-3.9605,-3.9356,-3.8971,-3.8449,-3.8449,-3.8417,-3.8205,-3.7719,-3.7411,-3.7292,-3.6377,-3.631,-3.7333,-4.1618,-4.4572,-4.5658,-5.0407,-5.3046,-5.2595,-5.2866,-5.3018,-5.3018,-5.2907,-5.2849,-5.286,-5.2766,-5.2226,-5.1062,-5.068,-5.0397,-5.016,-5.0286,-5.012,-4.9554,-4.9521,-4.8489,-4.5926,-4.2668,-3.9646,-3.71,-3.3716,-3.1421,-3.0789,-3.0516,-3.0327,-3.0442,-3.0557,-3.0831,-3.1367,-3.1652,-3.2015,-3.2834,-3.2478,-3.2529,-3.385,-3.4482,-3.5098,-3.6226,-3.7421,-3.8307,-3.9163,-3.9972,-4.0981,-4.1934,-4.2403,-4.2693,-4.336,-4.374,-4.3351,-4.1865,-4.2073,-4.1383,-3.8744,-3.8549,-3.89,-3.8314,-3.8563,-3.8515,-5.6341,-5.6341,-5.6341,-5.6341,0.0,-5.6341,-5.5895,-5.5129,-5.526,-5.5147,-5.5242,-5.5147,-5.5147,-5.5129,-5.5147,-5.5129,-5.5147,-5.5129,-5.5147,-5.5278,-5.5557,-5.5967,-5.6341,-5.6733,-5.6911,-5.6911,-5.7321,-5.7303,-5.6929,-5.6894,-5.6192,-5.4512,-5.281,-4.9997,-4.5945,-4.3048,-4.0264,-3.7694,-3.82,-3.8352,-3.8077,-3.7963,-3.7837,-3.7563,-3.6956,0.0,0.0,0.0,0.0,0.0,0.0,0.0,0.0,0.0,0.0,-5.107,-5.0908,-5.0916,-5.0934,-5.0934,-5.1041,-5.1257,-5.1715,-5.1435,-5.0295,-5.0161,-4.9852,-4.9217,-4.9207,-4.8745,-4.7715,-4.8634,-4.8099,-4.5446,-4.2781,-4.03,-3.7986,-3.4191,-3.151,-3.0778,-3.0463,-3.0327,-3.0327,-3.0327,-3.0442,-3.0788,-3.0799,-3.0989,-3.1391,-3.1158,-3.1198,-3.2363,-3.2992,-3.3979,-3.5146,-3.5872,-3.6458,-3.7361,-3.8037,-3.8896,-4.0071,-4.089,-4.1443,-4.2048,-4.2792,-4.2627,-4.1446,-4.1271,-4.0951,-3.9452,-3.9205,-3.9121,-3.857,-3.7862,-3.7186,-5.5895,-5.5895,-5.5895,-5.5895,-5.5895,-5.5895,-5.5165,-5.4081,-5.4063,-5.4063,-5.4063,-5.4063,-5.4063,-5.4063,-5.4063,-5.4063,-5.4063,-5.4063,-5.4063,-5.4099,-5.4648,-5.4951,-5.5004,-5.561,-5.5824,-5.5681,-5.571,-5.571,-5.5549,-5.5595,-5.5091,-5.4052,-5.1993,-4.9208,-4.5875,0.0,0.0,0.0,-3.6991,-3.7402,-3.7276,-3.7276,-3.7124,-3.656,-3.6072,0.0,-3.4598,-3.4552,-3.559,-3.7833,-3.9913,0.0,0.0,0.0,0.0,0.0,0.0,0.0,0.0,0.0,0.0,0.0,-4.9281,-4.9595,-4.9243,-4.9369,-4.8971,-4.7725,-4.7841,-4.7138,-4.5048,-4.682,-4.716,-4.4665,-4.2547,-4.0547,-3.9019,-3.4926,-3.1777,-3.099,-3.0494,-3.0295,-3.0212,-3.0275,-3.0316,-3.0327,-3.0327,-3.0327,-3.0337,-3.0337,-3.0557,-3.1029,-3.2086,-3.3096,-3.4468,-3.4719,-3.5313,-3.6136,-3.6588,-3.723,-3.8431,-3.9499,-4.0428,-4.1437,-4.2276,-4.2627,-4.1666,-4.15,-4.1447,-4.0299,-4.0055,-3.9831,-3.9253,-3.7984,-3.6838,-5.4385,-5.4385,-5.4367,-5.4385,-5.4385,-5.4385,-5.426,-5.4063,-5.4063,-5.4063,-5.4063,-5.4063,-5.4063,-5.4063,-5.4063,-5.4063,-5.4063,-5.4063,-5.4063,-5.4081,-5.4077,-5.4224,-5.426,-5.4331,-5.3917,-5.3329,-5.3416,-5.3141,-5.2509,-5.2731,-5.1696,-4.9395,-4.8939,-4.6658,-4.2468,-3.8459,-3.6192,-3.5665,-3.5783,-3.5601,-3.5096,-3.4975,-3.4916,-3.4778,-3.422,-3.3907,-3.3773,-3.3831,-3.4256,-3.523,-3.8883,-4.16,-4.3098,-4.6477,-4.8039,0.0,-4.7798,0.0,0.0,0.0,0.0,0.0,0.0,0.0,0.0,-4.7587,-4.7111,-4.5159,-4.6342,-4.672,-4.5552,-4.7098,-4.7616,-4.6267,-4.3557,-4.0756,-3.8034,-3.4857,-3.2068,-2.9969,-3.0118,-3.0159,-2.9732,-3.0076,-3.0327,-3.0327,-3.0211,-3.0211,-3.0211,-3.0211,-3.0201,-3.0432,-3.1029,-3.1949,-3.3096,-3.3771,-3.4342,-3.5151,-3.6035,-3.7093,-3.8228,-3.9086,-4.0118,-4.1581,-4.2096,-4.2455,-4.2875,-4.3139,-4.2884,-4.1284,-4.0924,-4.0606,-3.9708,-3.928,-3.8404,-5.4063,-5.4063,-5.4063,-5.3331,-5.2134,-5.2134,-5.1884,-5.1386,-5.1491,-5.1491,-5.1491,-5.1509,-5.1491,-5.1491,-5.1491,-5.1404,-5.1545,-5.1938,-5.2134,-5.2188,-5.2937,-5.3329,-5.3347,-5.3461,-5.3257,-5.294,-5.272,-5.2481,-5.2168,-5.2258,-5.1519,-5.0024,-4.7252,-4.3877,-3.997,-3.7703,-3.6238,-3.5548,-3.5266,-3.5006,-3.4558,-3.4221,-3.3825,-3.3285,-3.3178,-3.2956,-3.2434,-3.2688,-3.3716,-3.5641,-3.8804,-4.141,-4.3042,-4.5977,-4.7266,0.0,0.0,0.0,0.0,0.0,0.0,0.0,0.0,0.0,0.0,0.0,-4.3806,-4.452,-4.5749,-4.5728,-4.3677,-4.5353,-4.5889,-4.4164,-4.133,-3.8721,-3.6726,-3.3599,-3.1152,-3.0044,-3.0191,-3.0243,-3.0055,-3.0191,-3.0327,-3.0327,-2.9729,-2.9036,-2.8457,-2.8351,-2.8457,-2.9141,-2.9729,-3.0662,-3.1949,-3.2856,-3.3645,-3.4342,-3.5139,-3.6109,-3.7259,-3.7994,-3.8756,-3.9922,-4.0937,-4.1733,-4.1992,-4.2832,-4.3256,-4.2405,-4.1948,-4.1521,-4.1097,-4.0017,-3.8421,-5.3081,-5.3133,-5.2719,-5.1512,-4.9822,-4.9822,-4.9461,-4.8766,-4.8848,-4.8866,-4.8848,-4.8848,-4.8848,-4.8848,-4.8648,-4.8755,-4.895,-4.952,-4.9996,-5.0366,-5.1545,-5.1992,-5.1903,-5.1949,-5.2009,-5.2057,-5.1335,-5.1185,-5.1418,-5.1153,-5.0583,-4.9606,-4.5719,-4.2283,-3.9445,-3.79,-3.6764,-3.5986,-3.5007,-3.4225,-3.4139,-3.3225,-3.2412,-3.167,-3.1873,-3.1774,-3.1318,-3.1626,-3.321,-3.5974,-3.7933,-4.0135,-4.2402,-4.4196,0.0,0.0,0.0,0.0,0.0,0.0,0.0,0.0,0.0,-3.9531,-4.1106,0.0,-4.0528,0.0,-4.4056,-4.3866,-4.1732,-4.3448,0.0,0.0,-3.9775,-3.7621,-3.5761,-3.3084,-3.1055,-3.0285,-3.0264,-3.0285,-3.017,-3.0254,-3.0054,-2.9366,-2.8494,-2.7635,-2.6841,-2.6608,-2.6957,-2.7867,-2.8678,-2.9498,-3.0442,-3.172,-3.2856,-3.3645,-3.4342,-3.5187,-3.6323,-3.7031,-3.7751,-3.8602,-3.999,-4.0923,-4.1221,-4.216,-4.2846,-4.2716,-4.2262,-4.1896,-4.1955,-4.0541,-3.8678,-5.0205,-5.0673,-4.9053,-4.8063,-4.766,-4.766,-4.7481,-4.7258,-4.7223,-4.7223,-4.7241,-4.7223,-4.7223,-4.7223,-4.6739,0.0,-4.7584,-4.7654,-4.8277,-4.9408,-4.955,-4.9382,-4.8974,-4.896,-4.9019,-4.9176,-4.7829,-4.7978,-4.9143,-4.8019,-4.672,-4.5251,-4.3712,-4.2924,-4.2326,-3.8168,-3.64,-3.7256,-3.4641,-3.3062,-3.2604,-3.1058,-3.0124,-2.9791,-2.9843,-3.0033,-3.0484,-3.1008,-3.239,-3.4647,-3.5388,-3.687,-3.9267,0.0,0.0,0.0,0.0,0.0,0.0,0.0,0.0,0.0,0.0,0.0,0.0,0.0,0.0,-3.8386,-3.9923,0.0,-4.0212,-4.2164,0.0,0.0,0.0,-3.9209,-3.5275,-3.4536,-3.3225,-3.0038,0.0,0.0,-2.9638,-3.0065,-2.9355,-2.6759,-2.6591,-2.6725,-2.6608,-2.6483,-2.6608,-2.6715,-2.7751,-2.8447,-2.8784,-3.0201,-3.1605,-3.2856,-3.3645,-3.4496,-3.5581,-3.6719,-3.7884,-3.8955,-3.9802,-4.0505,-4.1116,-4.1576,-4.2002,-4.1309,-4.1281,-4.1233,-4.127,-4.0948,-4.0187,-4.7741,-4.6726,-4.6038,-4.5646,-4.5579,-4.5597,-4.5414,-4.5148,-4.5148,-4.4883,-4.4459,-4.4459,-4.4102,-4.3406,-4.3712,0.0,0.0,0.0,-4.6059,-4.7006,-4.6988,-4.7087,-4.7186,-4.689,-4.7092,-4.7738,-4.7062,-4.7261,-4.8275,-4.7929,-4.5765,-4.1829,0.0,-4.0206,-3.9189,-3.8292,-3.7215,-3.5872,-3.5406,-3.4074,-3.1766,-3.0831,-2.9858,-2.9228,-2.9762,-3.0013,-2.9805,-3.0146,-3.1489,-3.4119,-3.4488,-3.5769,0.0,0.0,0.0,0.0,0.0,0.0,0.0,0.0,0.0,0.0,0.0,-3.3156,-3.3677,0.0,0.0,0.0,-3.5325,-3.5338,-3.5653,-3.8156,0.0,0.0,0.0,0.0,0.0,0.0,0.0,-2.8997,-2.8641,-2.8264,-2.7572,-2.7401,-2.6816,-2.5196,-2.5118,-2.4993,-2.4178,0.0,-2.4633,-2.5308,-2.5891,-2.6697,-2.809,-2.8457,-2.9277,-3.1594,-3.2753,-3.375,-3.4614,-3.5659,-3.6764,-3.7693,-3.8925,-3.9857,-4.0089,-3.9417,-3.8813,-3.8604,-3.9083,-3.9484,-3.96,-3.9946,-3.9688,-4.4697,0.0,0.0,0.0,0.0,-4.2803,-4.263,-4.2423,-4.2423,-4.2143,-4.1635,-4.1635,0.0,0.0,0.0,0.0,0.0,0.0,-4.369,-4.4685,-4.478,-4.5109,-4.5509,-4.5015,-4.5317,-4.6275,-4.5754,-4.5977,-4.6786,-4.6301,-4.3686,-3.9474,0.0,0.0,0.0,0.0,-3.8186,-3.5749,-3.6099,-3.4653,-3.1169,-3.0596,-2.9842,-2.8945,-2.9709,-2.9981,-2.9544,-2.9534,-3.0879,-3.378,-3.3462,0.0,0.0,0.0,0.0,0.0,0.0,0.0,0.0,0.0,0.0,0.0,0.0,0.0,0.0,0.0,0.0,0.0,0.0,0.0,-3.2142,-3.4666,-3.5819,0.0,0.0,0.0,0.0,0.0,0.0,0.0,0.0,0.0,-2.4621,-2.4684,-2.4577,0.0,0.0,-2.3344,-2.2326,-2.2397,-2.2725,-2.3641,-2.4073,0.0,-2.6804,-2.7045,-2.7877,-3.0096,-3.1594,-3.2741,-3.3291,-3.4528,-3.5448,-3.5899,-3.7228,-3.82,-3.8121,-3.7153,-3.6296,-3.6363,-3.7097,-3.7757,-3.7771,-3.8407,-3.8644,0.0,0.0,0.0,0.0,0.0,0.0,0.0,0.0,-3.8912,-3.8878,0.0,-3.8826,0.0,0.0,0.0,0.0,-3.9183,-3.973,0.0,0.0,-4.3168,-4.3557,-4.3712,-4.3326,-4.3555,-4.4202,-4.3301,-4.3415,-4.4391,-4.1951,0.0,0.0,0.0,0.0,0.0,0.0,-3.9241,-3.7408,-3.6372,-3.4147,-3.0693,-2.9872,-2.9416,-2.8987,-2.9304,-2.9555,-2.9534,-2.9503,-3.0846,-3.3573,-3.2191,0.0,0.0,0.0,0.0,0.0,0.0,0.0,0.0,0.0,0.0,0.0,0.0,0.0,0.0,0.0,0.0,0.0,0.0,0.0,0.0,-3.2281,0.0,0.0,0.0,0.0,0.0,0.0,0.0,0.0,0.0,-2.3968,-2.1001,-2.2389,-2.3264,-2.1737,0.0,0.0,0.0,0.0,-2.1451,-2.1566,-2.2747,-2.3773,-2.3881,-2.6339,-2.8302,-2.8427,0.0,0.0,-3.2031,-3.3328,-3.4239,-3.4104,-3.4866,-3.5346,-3.5359,-3.5182,-3.4993,-3.4954,-3.5462,-3.6043,-3.6072,-3.6857,-3.7579,0.0,0.0,0.0,0.0,0.0,0.0,0.0,0.0,0.0,-3.6518,-3.6073,-3.6056,0.0,0.0,0.0,0.0,0.0,0.0,0.0,0.0,-3.9576,-3.9884,-3.9885,-4.0074,-4.0556,-4.1315,-4.1187,-4.0261,0.0,0.0,0.0,0.0,0.0,0.0,0.0,0.0,-3.8756,-3.5887,-3.609,-3.4381,-3.0626,-2.9793,-2.9699,-2.9835,-2.972,-2.9185,-2.8507,-2.7761,-2.8131,0.0,0.0,0.0,0.0,0.0,0.0,0.0,0.0,0.0,0.0,0.0,0.0,0.0,0.0,0.0,0.0,0.0,0.0,0.0,0.0,0.0,0.0,0.0,-3.0053,0.0,0.0,0.0,0.0,0.0,0.0,0.0,0.0,0.0,-2.1587,-2.2051,-2.205,-2.0914,-2.1305,-2.1628,-2.151,0.0,0.0,0.0,0.0,0.0,0.0,0.0,-2.4932,-2.6644,-2.6877,-2.7751,-2.995,-3.2075,-3.3548,-3.3536,0.0,0.0,-3.3195,-3.3559,-3.3663,-3.2634,-3.3151,-3.3735,-3.3815,-3.4071,-3.4635,0.0,0.0,0.0,0.0,0.0,0.0,0.0,0.0,0.0,-3.3783,-3.3271,0.0,0.0,0.0,0.0,0.0,0.0,0.0,0.0,0.0,0.0,0.0,-3.7085,-3.7356,0.0,0.0,0.0,0.0,0.0,0.0,0.0,0.0,0.0,0.0,0.0,0.0,-3.8037,-3.506,-3.5922,-3.4733,-3.1082,-3.0167,-3.0013,-3.0306,-2.9774,-2.9082,-2.8044,0.0,0.0,0.0,0.0,0.0,0.0,0.0,0.0,0.0,0.0,0.0,0.0,0.0,0.0,0.0,0.0,0.0,0.0,0.0,0.0,0.0,0.0,0.0,0.0,0.0,-2.7264,0.0,0.0,0.0,0.0,0.0,0.0,0.0,0.0,0.0,0.0,0.0,-2.0971,-2.0051,-2.0565,-2.0922,-2.1139,-2.1101,-2.0985,0.0,0.0,0.0,0.0,0.0,0.0,0.0,0.0,0.0,0.0,0.0,0.0,0.0,0.0,-3.3001,-3.18,-3.1639,-3.1563,-3.0641,0.0,0.0,0.0,0.0,0.0,0.0,0.0,0.0,0.0,0.0,0.0,0.0,0.0,0.0,0.0,-3.0623,0.0,0.0,-3.059,0.0,0.0,0.0,0.0,0.0,0.0,0.0,0.0,0.0,0.0,0.0,0.0,0.0,0.0,0.0,0.0,0.0,0.0,0.0,0.0,0.0,0.0,-3.7091,-3.479,-3.5868,-3.5065,-3.2051,-3.0957,-3.0264,-3.0138,-2.9742,-2.8928,-2.7862,0.0,0.0,0.0,0.0,0.0,0.0,0.0,0.0,0.0,0.0,0.0,0.0,0.0,0.0,0.0,0.0,0.0,0.0,0.0,0.0,0.0,0.0,0.0,0.0,0.0,0.0,-2.6183,-2.7011,-2.7287,0.0,0.0,0.0,0.0,0.0,0.0,0.0,0.0,0.0,-1.9103,-1.9595,-2.012,-2.0661,-2.0,-1.9464,-1.945,-2.0081,-2.0594,-2.0658,-2.2791,-2.4322,0.0,0.0,0.0,0.0,0.0,0.0,0.0,0.0,0.0,0.0,0.0,0.0,0.0,0.0,0.0,0.0,0.0,0.0,0.0,0.0,0.0,0.0,0.0,0.0,0.0,0.0,0.0,0.0,0.0,0.0,0.0,0.0,0.0,0.0,0.0,0.0,0.0,0.0,0.0,0.0,0.0,0.0,0.0,0.0,0.0,0.0,0.0,0.0,0.0,0.0,0.0,0.0,0.0,0.0,-3.5229,-3.4182,-3.5374,-3.4529,-3.1772,-3.1257,-3.0235,-2.8205,-2.7973,-2.7071,0.0,0.0,0.0,0.0,0.0,0.0,0.0,0.0,0.0,0.0,0.0,0.0,0.0,0.0,0.0,0.0,0.0,0.0,0.0,0.0,0.0,0.0,0.0,0.0,0.0,0.0,0.0,0.0,-2.5549,-2.5594,-2.569,0.0,0.0,0.0,0.0,0.0,0.0,0.0,0.0,0.0,0.0,-1.865,-1.9207,-1.9097,-1.8926,-1.9147,-1.9567,-1.9786,-1.9773,-2.1274,-2.2024,-2.1312,0.0,0.0,0.0,0.0,0.0,0.0,0.0,0.0,0.0,0.0,0.0,0.0,0.0,0.0,0.0,0.0,0.0,0.0,0.0,0.0,0.0,0.0,0.0,0.0,0.0,0.0,0.0,0.0,0.0,0.0,0.0,0.0,0.0,0.0,0.0,0.0,0.0,0.0,0.0,0.0,0.0,0.0,0.0,0.0,0.0,0.0,0.0,0.0,0.0,0.0,0.0,0.0,0.0,-3.4195,-3.4135,-3.4937,-3.4667,-3.3175,-3.167,-3.0001,-2.8243,-2.6983,-2.5421,0.0,0.0,0.0,0.0,0.0,0.0,0.0,0.0,0.0,0.0,0.0,0.0,0.0,0.0,0.0,0.0,0.0,0.0,0.0,0.0,0.0,0.0,0.0,0.0,0.0,0.0,0.0,0.0,-2.4216,-2.4135,-2.4464,0.0,0.0,0.0,0.0,0.0,0.0,0.0,0.0,0.0,0.0,-1.7591,-1.8438,-1.8221,0.0,0.0,-1.9009,-1.9139,-1.928,-2.0511,-2.0936,-1.9704,-2.0226,0.0,0.0,0.0,0.0,0.0,0.0,0.0,0.0,0.0,0.0,0.0,0.0,0.0,0.0,0.0,0.0,0.0,0.0,0.0,0.0,0.0,0.0,0.0,0.0,0.0,0.0,0.0,0.0,0.0,0.0,0.0,0.0,0.0,0.0,0.0,0.0,0.0,0.0,0.0,0.0,0.0,0.0,0.0,0.0,0.0,0.0,0.0,0.0,0.0,0.0,0.0,0.0,-3.3772,-3.4452,-3.4776,-3.5052,-3.5439,-3.1813,-2.9664,-2.9445,-2.6412,-2.3877,0.0,0.0,0.0,0.0,0.0,0.0,0.0,0.0,0.0,0.0,0.0,0.0,0.0,0.0,0.0,0.0,0.0,0.0,0.0,0.0,0.0,0.0,0.0,0.0,0.0,0.0,0.0,0.0,0.0,0.0,0.0,0.0,0.0,0.0,0.0,0.0,0.0,0.0,0.0,0.0,0.0,-1.682,-1.7858,-1.7332,-1.7128,0.0,-1.8411,-1.8602,-1.8817,-2.0289,-2.0693,-1.8663,0.0,0.0,0.0,0.0,0.0,0.0,0.0,0.0,0.0,0.0,0.0,0.0,0.0,0.0,0.0,0.0,0.0,0.0,0.0,0.0,0.0,0.0,0.0,0.0,0.0,0.0,0.0,0.0,0.0,0.0,0.0,0.0,0.0,0.0,0.0,0.0,0.0,0.0,0.0,0.0,0.0,0.0,0.0,0.0,0.0,0.0,0.0,0.0,0.0,0.0,0.0,0.0,0.0,0.0,-3.3341,-3.4707,-3.4861,-3.3836,-3.1791,-2.9432,-2.6892,-2.4169,0.0,0.0,0.0,0.0,0.0,0.0,0.0,0.0,0.0,0.0,0.0,0.0,0.0,0.0,0.0,0.0,0.0,0.0,0.0,0.0,0.0,0.0,0.0,0.0,0.0,0.0,0.0,-2.1659,0.0,0.0,0.0,0.0,0.0,0.0,0.0,0.0,0.0,0.0,0.0,0.0,0.0,0.0,-1.5136,-1.5815,-1.6128,-1.6361,0.0,0.0,-1.7697,-1.7486,-1.9465,-2.0456,0.0,0.0,0.0,0.0,0.0,0.0,0.0,0.0,0.0,0.0,0.0,0.0,0.0,0.0,0.0,0.0,0.0,0.0,0.0,0.0,0.0,0.0,0.0,0.0,0.0,0.0,0.0,0.0,0.0,0.0,0.0,0.0,0.0,0.0,0.0,0.0,0.0,0.0,0.0,0.0,0.0,0.0,0.0,0.0,0.0,0.0,0.0,0.0,0.0,0.0,0.0,0.0,0.0,0.0,-3.1786,-3.2856,-3.3921,-3.3947,-3.2595,-3.0614,-2.8527,-2.6393,-2.3552,-2.2343,0.0,0.0,0.0,0.0,0.0,0.0,0.0,0.0,0.0,0.0,0.0,0.0,0.0,0.0,0.0,0.0,0.0,0.0,0.0,0.0,0.0,0.0,0.0,0.0,0.0,0.0,0.0,0.0,0.0,0.0,0.0,0.0,0.0,0.0,0.0,0.0,0.0,0.0,0.0,0.0,0.0,0.0,-1.5031,-1.5186,0.0,0.0,0.0,-1.7006,-1.6835,0.0,0.0,0.0,0.0,0.0,0.0,0.0,0.0,0.0,0.0,0.0,0.0,0.0,0.0,0.0,0.0,0.0,0.0,0.0,0.0,0.0,0.0,0.0,0.0,0.0,0.0,0.0,0.0,0.0,0.0,0.0,0.0,0.0,0.0,0.0,0.0,0.0,0.0,0.0,0.0,0.0,0.0,0.0,0.0,0.0,0.0,0.0,0.0,0.0,0.0,0.0,0.0,0.0,0.0,0.0,0.0,0.0,-3.2526,-3.2822,-3.252,-3.1463,-2.9084,-2.7452,-2.6817,-2.381,-2.2968,0.0,0.0,0.0,0.0,0.0,0.0,0.0,0.0,0.0,0.0,0.0,0.0,0.0,0.0,0.0,0.0,0.0,0.0,0.0,0.0,0.0,0.0,0.0,0.0,0.0,0.0,0.0,0.0,0.0,0.0,0.0,0.0,0.0,0.0,0.0,0.0,0.0,0.0,0.0,0.0,0.0,-1.649,-1.5117,-1.482,-1.4946,0.0,0.0,-1.638,-1.6871,-1.7373,0.0,0.0,0.0,0.0,0.0,0.0,0.0,0.0,0.0,0.0,0.0,0.0,0.0,0.0,0.0,0.0,0.0,0.0,0.0,0.0,0.0,0.0,0.0,0.0,0.0,0.0,0.0,0.0,0.0,0.0,0.0,0.0,0.0,0.0,0.0,0.0,0.0,0.0,0.0,0.0,0.0,0.0,0.0,0.0,0.0,0.0,0.0,0.0,0.0,0.0,0.0,0.0,0.0,0.0,0.0,0.0,-3.1275,-3.1814,-3.1361,-2.9785,-2.9085,-2.767,-2.5652,-2.411,-2.3927,0.0,0.0,0.0,0.0,0.0,0.0,0.0,0.0,0.0,0.0,0.0,0.0,0.0,0.0,0.0,0.0,0.0,0.0,0.0,0.0,0.0,0.0,0.0,0.0,0.0,0.0,0.0,0.0,0.0,0.0,0.0,0.0,0.0,0.0,0.0,0.0,0.0,0.0,0.0,0.0,0.0,-1.6224,-1.6066,-1.647,0.0,0.0,0.0,0.0,-1.7562,-1.843,0.0,0.0,0.0,0.0,0.0,0.0,0.0,0.0,0.0,0.0,0.0,0.0,0.0,0.0,0.0,0.0,0.0,0.0,0.0,0.0,0.0,0.0,0.0,0.0,0.0,0.0,0.0,0.0,0.0,0.0,0.0,0.0,0.0,0.0,0.0,0.0,0.0,0.0,0.0,0.0,0.0,0.0,0.0,0.0,0.0,0.0,0.0,0.0,0.0,0.0,0.0,0.0,0.0,0.0,0.0,0.0,-3.0779,-3.0796,-2.999,-2.8417,-2.8093,-2.7215,-2.5723,-2.5067,-2.5577,0.0,0.0,0.0,0.0,0.0,0.0,0.0,0.0,0.0,0.0,0.0,0.0,0.0,0.0,0.0,0.0,0.0,0.0,0.0,0.0,0.0,0.0,0.0,0.0,0.0,0.0,0.0,0.0,0.0,0.0,0.0,0.0,0.0,0.0,0.0,0.0,0.0,0.0,0.0,0.0,-1.8553,-1.7994,-1.7357,0.0,0.0,0.0,0.0,0.0,0.0,-1.7694,-1.8335,0.0,0.0,0.0,0.0,0.0,0.0,0.0,0.0,0.0,0.0,0.0,0.0,0.0,0.0,0.0,0.0,0.0,0.0,0.0,0.0,0.0,0.0,0.0,0.0,0.0,0.0,0.0,0.0,0.0,0.0,0.0,0.0,0.0,0.0,0.0,0.0,0.0,0.0,0.0,0.0,0.0,0.0,0.0,0.0,0.0,0.0,0.0,0.0,0.0,0.0,0.0,0.0,0.0,0.0,0.0,-3.0427,-2.9778,-2.8744,-2.7291,-2.7055,-2.6732,-2.611,-2.6291,-2.7017,-2.8206,0.0,0.0,0.0,0.0,0.0,0.0,0.0,0.0,0.0,0.0,0.0,0.0,0.0,0.0,0.0,0.0,0.0,0.0,0.0,0.0,0.0,0.0,0.0,0.0,0.0,0.0,0.0,0.0,0.0,0.0,0.0,0.0,0.0,0.0,0.0,0.0,0.0,0.0,0.0,-1.936,-1.9876,0.0,0.0,0.0,0.0,0.0,0.0,0.0,0.0,-1.7896,0.0,0.0,0.0,0.0,0.0,0.0,0.0,0.0,0.0,0.0,0.0,0.0,0.0,0.0,0.0,0.0,0.0,0.0,0.0,0.0,0.0,0.0,0.0,0.0,0.0,0.0,0.0,0.0,0.0,0.0,0.0,0.0,0.0,0.0,0.0,0.0,0.0,0.0,0.0,0.0,0.0,0.0,0.0,0.0,0.0,0.0,0.0,0.0,0.0,0.0,0.0,0.0,0.0,0.0,0.0,0.0,-2.8774,-2.8055,-2.6713,-2.7409,-2.7264,-2.6063,-2.7193,-2.6989,-2.517,0.0,0.0,0.0,0.0,0.0,0.0,0.0,0.0,0.0,0.0,0.0,0.0,0.0,0.0,0.0,0.0,0.0,0.0,0.0,0.0,0.0,0.0,0.0,0.0,0.0,0.0,0.0,0.0,0.0,0.0,0.0,0.0,0.0,0.0,0.0,0.0,0.0,0.0,-1.9119,-1.9628,0.0,0.0,0.0,0.0,0.0,0.0,0.0,0.0,-1.9734,0.0,0.0,0.0,0.0,0.0,0.0,0.0,0.0,0.0,0.0,0.0,0.0,0.0,0.0,0.0,0.0,0.0,0.0,0.0,0.0,0.0,0.0,0.0,0.0,0.0,0.0,0.0,0.0,0.0,0.0,0.0,0.0,0.0,0.0,0.0,0.0,0.0,0.0,0.0,0.0,0.0,0.0,0.0,0.0,0.0,0.0,0.0,0.0,0.0,0.0,0.0,0.0,0.0,0.0,0.0,0.0,0.0,0.0,-2.8039,-2.7544,-2.6903,-2.6323,-2.574,-2.7037,-2.709,0.0,0.0,0.0,0.0,0.0,0.0,0.0,0.0,0.0,0.0,0.0,0.0,0.0,0.0,0.0,0.0,0.0,0.0,0.0,0.0,0.0,0.0,0.0,0.0,0.0,0.0,0.0,0.0,0.0,0.0,0.0,0.0,0.0,0.0,0.0,0.0,0.0,0.0,0.0,0.0,0.0,0.0,0.0,0.0,0.0,0.0,0.0,0.0,0.0,0.0,0.0,0.0,0.0,0.0,0.0,0.0,0.0,0.0,0.0,0.0,0.0,0.0,0.0,0.0,0.0,0.0,0.0,0.0,0.0,0.0,0.0,0.0,0.0,0.0,0.0,0.0,0.0,0.0,0.0,0.0,0.0,0.0,0.0,0.0,0.0,0.0,0.0,0.0,0.0,0.0,0.0,0.0,0.0,0.0,0.0,0.0,0.0,0.0,0.0,0.0,0.0,0.0,0.0,0.0,0.0,0.0,0.0,0.0,-2.7936,-2.8477,-2.6749,-2.5707,-2.5791,-2.6308,-2.6259,0.0,0.0,0.0,0.0,0.0,0.0,0.0,0.0,0.0,0.0,0.0,0.0,0.0,0.0,0.0,0.0,0.0,0.0,0.0,0.0,0.0,0.0,0.0,0.0,0.0,0.0,0.0,0.0,0.0,0.0,0.0,0.0,0.0,0.0,0.0,0.0,0.0,0.0,0.0,0.0,0.0,0.0,0.0,0.0,0.0,0.0,0.0,0.0,-2.0465,0.0,0.0,0.0,0.0,0.0,0.0,0.0,0.0,0.0,0.0,0.0,0.0,0.0,0.0,0.0,0.0,0.0,0.0,0.0,0.0,0.0,0.0,0.0,0.0,0.0,0.0,0.0,0.0,0.0,0.0,0.0,0.0,0.0,0.0,0.0,0.0,0.0,0.0,0.0,0.0,0.0,0.0,0.0,0.0,0.0,0.0,0.0,0.0,0.0,0.0,0.0,0.0,0.0,0.0,0.0,0.0,0.0,0.0,0.0,-2.7242,-2.8545,-2.7671,-2.7216,-2.7108,-2.5087,-2.3666,0.0,0.0,0.0,0.0,0.0,0.0,0.0,0.0,0.0,0.0,0.0,0.0,0.0,0.0,0.0,0.0,0.0,0.0,0.0,0.0,0.0,0.0,0.0,0.0,0.0,0.0,0.0,0.0,0.0,0.0,0.0,0.0,0.0,0.0,0.0,0.0,0.0,0.0,0.0,0.0,0.0,0.0,0.0,0.0,0.0,0.0,0.0,0.0,0.0,0.0,0.0,0.0,0.0,0.0,0.0,0.0,0.0,0.0,0.0,0.0,0.0,0.0,0.0,0.0,0.0,0.0,0.0,0.0,0.0,0.0,0.0,0.0,0.0,0.0,0.0,0.0,0.0,0.0,0.0,0.0,0.0,0.0,0.0,0.0,0.0,0.0,0.0,0.0,0.0,0.0,0.0,0.0,0.0,0.0,0.0,0.0,0.0,0.0,0.0,0.0,0.0,0.0,0.0,0.0,0.0,0.0,0.0,0.0,-2.6518,-2.7709,-2.6034,-2.5412,-2.597,-2.4927,-2.3992,0.0,0.0,0.0,0.0,0.0,0.0,0.0,0.0,0.0,0.0,0.0,0.0,0.0,0.0,0.0,0.0,0.0,0.0,0.0,0.0,0.0,0.0,0.0,0.0,0.0,0.0,0.0,0.0,0.0,0.0,0.0,0.0,0.0,0.0,0.0,0.0,0.0,0.0,0.0,0.0,0.0,0.0,0.0,0.0,0.0,0.0,0.0,0.0,0.0,0.0,0.0,0.0,0.0,0.0,0.0,0.0,0.0,0.0,0.0,0.0,0.0,0.0,0.0,0.0,0.0,0.0,0.0,0.0,0.0,0.0,0.0,0.0,0.0,0.0,0.0,0.0,0.0,0.0,0.0,0.0,0.0,0.0,0.0,0.0,0.0,0.0,0.0,0.0,0.0,0.0,0.0,0.0,0.0,0.0,0.0,0.0,0.0,0.0,0.0,0.0,0.0,0.0,0.0,0.0,0.0,0.0,0.0,0.0,0.0,-2.6858,-2.4774,-2.3935,-2.4581,-2.4628,-2.442,0.0,0.0,0.0,0.0,0.0,0.0,0.0,0.0,0.0,0.0,0.0,0.0,0.0,0.0,0.0,0.0,0.0,0.0,0.0,0.0,0.0,0.0,0.0,0.0,0.0,0.0,0.0,0.0,0.0,0.0,0.0,0.0,0.0,0.0,0.0,0.0,0.0,0.0,0.0,0.0,0.0,0.0,0.0,0.0,0.0,0.0,0.0,0.0,0.0,0.0,0.0,0.0,0.0,0.0,0.0,0.0,0.0,0.0,0.0,0.0,0.0,0.0,0.0,0.0,0.0,0.0,0.0,0.0,0.0,0.0,0.0,0.0,0.0,0.0,0.0,0.0,0.0,0.0,0.0,0.0,0.0,0.0,0.0,0.0,0.0,0.0,0.0,0.0,0.0,0.0,0.0,0.0,0.0,0.0,0.0,0.0,0.0,0.0,0.0,0.0,0.0,0.0,0.0,0.0,0.0,0.0,0.0,0.0,0.0,-2.6286,-2.4693,-2.3904,-2.397,-2.397,-2.3944,0.0,0.0,0.0,0.0,0.0,0.0,0.0,0.0,0.0,0.0,0.0,0.0,0.0,0.0,0.0,0.0,0.0,0.0,0.0,0.0,0.0,0.0,0.0,0.0,0.0,0.0,0.0,0.0,0.0,0.0,0.0,0.0,0.0,0.0,0.0,0.0,0.0,0.0,0.0,0.0,0.0,0.0,0.0,0.0,0.0,0.0,0.0,0.0,0.0,0.0,0.0,0.0,0.0,0.0,0.0,0.0,0.0,0.0,0.0,0.0,0.0,0.0,0.0,0.0,0.0,0.0,0.0,0.0,0.0,0.0,0.0,0.0,0.0,0.0,0.0,0.0,0.0,0.0,0.0,0.0,0.0,0.0,0.0,0.0,0.0,0.0,0.0,0.0,0.0,0.0,0.0,0.0,0.0,0.0,0.0,0.0,0.0,0.0,0.0,0.0,0.0,0.0,0.0,0.0,0.0,0.0,0.0,0.0,0.0,-2.5116,-2.4343,-2.3918,-2.3918,-2.3918,-2.3821,-2.3653,0.0,0.0,0.0,0.0,0.0,0.0,0.0,0.0,0.0,0.0,0.0,0.0,0.0,0.0,0.0,0.0,0.0,0.0,0.0,0.0,0.0,0.0,0.0,0.0,0.0,0.0,0.0,0.0,0.0,0.0,0.0,0.0,0.0,0.0,0.0,0.0,0.0,0.0,0.0,0.0,0.0,0.0,0.0,0.0,0.0,0.0,0.0,0.0,0.0,0.0,0.0,0.0,0.0,0.0,0.0,0.0,0.0,0.0,0.0,0.0,0.0,0.0,0.0,0.0,0.0,0.0,0.0,0.0,0.0,0.0,0.0,0.0,0.0,0.0,0.0,0.0,0.0,0.0,0.0,0.0,0.0,0.0,0.0,0.0,0.0,0.0,0.0,0.0,0.0,0.0,0.0,0.0,0.0,0.0,0.0,0.0,0.0,0.0,0.0,0.0,0.0,0.0,0.0,0.0,0.0,0.0,0.0,0.0,-2.407,-2.38,-2.3659,-2.3646,-2.3969,-2.4023,0.0,0.0,0.0,0.0,0.0,0.0,0.0,0.0,0.0,0.0,0.0,0.0,0.0,0.0,0.0,0.0,0.0,0.0,0.0,0.0,0.0,0.0,0.0,0.0,0.0,0.0,0.0,0.0,0.0,0.0,0.0,0.0,0.0,0.0,0.0,0.0,0.0,0.0,0.0,0.0,0.0,0.0,0.0,0.0,0.0,0.0,0.0,0.0,0.0,0.0,0.0,0.0,0.0,0.0,0.0,0.0,0.0,0.0,0.0,0.0,0.0,0.0,0.0,0.0,0.0,0.0,0.0,0.0,0.0,0.0,0.0,0.0,0.0,0.0,0.0,0.0,0.0,0.0,0.0,0.0,0.0,0.0,0.0,0.0,0.0,0.0,0.0,0.0,0.0,0.0,0.0,0.0,0.0,0.0,0.0,0.0,0.0,0.0,0.0,0.0,0.0,0.0,0.0,0.0,0.0,0.0,0.0,0.0,-2.327,-2.3186,-2.317,-2.3183,-2.313,-2.413,-2.464,0.0,0.0,0.0,0.0,0.0,0.0,0.0,0.0,0.0,0.0,0.0,0.0,0.0,0.0,0.0,0.0,0.0,0.0,0.0,0.0,0.0,0.0,0.0,0.0,0.0,0.0,0.0,0.0,0.0,0.0,0.0,0.0,0.0,0.0,0.0,0.0,0.0,0.0,0.0,0.0,0.0,0.0,0.0,0.0,0.0,0.0,0.0,0.0,0.0,0.0,0.0,0.0,0.0,0.0,0.0,0.0,0.0,0.0,0.0,0.0,0.0,0.0,0.0,0.0,0.0,0.0,0.0,0.0,0.0,0.0,0.0,0.0,0.0,0.0,0.0,0.0,0.0,0.0,0.0,0.0,0.0,0.0,0.0,0.0,0.0,0.0,0.0,0.0,0.0,0.0,0.0,0.0,0.0,0.0,0.0,0.0,0.0,0.0,0.0,0.0,0.0,0.0,0.0,0.0,0.0,0.0,0.0,0.0,0.0,-2.3243,0.0,-2.3144,0.0,-2.3632,-2.3617,0.0,0.0,0.0,0.0,0.0,0.0,0.0,0.0,0.0,0.0,0.0,0.0,0.0,0.0,0.0,0.0,0.0,0.0,0.0,0.0,0.0,0.0,0.0,0.0,0.0,0.0,0.0,0.0,0.0,0.0,0.0,0.0,0.0,0.0,0.0,0.0,0.0,0.0,0.0,0.0,0.0,0.0,0.0,0.0,0.0,0.0,0.0,0.0,0.0,0.0,0.0,0.0,0.0,0.0,0.0,0.0,0.0,0.0,0.0,0.0,0.0,0.0,0.0,0.0,0.0,0.0,0.0,0.0,0.0,0.0,0.0,0.0,0.0,0.0,0.0,0.0,0.0,0.0,0.0,0.0,0.0,0.0,0.0,0.0,0.0,0.0,0.0,0.0,0.0,0.0,0.0,0.0,0.0,0.0,0.0,0.0,0.0,0.0,0.0,0.0,0.0,0.0,0.0,0.0,0.0,0.0,0.0,0.0,0.0,-2.3162,-2.3002,-2.2854,-2.2854,-2.3345,-2.3494,0.0,0.0,0.0,0.0,0.0,0.0,0.0,0.0,0.0,0.0,0.0,0.0,0.0,0.0,0.0,0.0,0.0,0.0,0.0,0.0,0.0,0.0,0.0,0.0,0.0,0.0,0.0,0.0,0.0,0.0,0.0,0.0,0.0,0.0,0.0,0.0,0.0,0.0,0.0,0.0,0.0,0.0,0.0,0.0,0.0,0.0,0.0,0.0,0.0,0.0,0.0,0.0,0.0,0.0,0.0,0.0,0.0,0.0,0.0,0.0,0.0,0.0,0.0,0.0,0.0,0.0,0.0,0.0,0.0,0.0,0.0,0.0,0.0,0.0,0.0,0.0,0.0,0.0,0.0,0.0,0.0,0.0,0.0,0.0,0.0,0.0,0.0,0.0,0.0,0.0,0.0,0.0,0.0,0.0,0.0,0.0,0.0,0.0,0.0,0.0,0.0,0.0,0.0,0.0,0.0,0.0,0.0,0.0,0.0,0.0,-2.2671,-2.2467,-2.2404,-2.3325,-2.4025,0.0,0.0,0.0,0.0,0.0,0.0,0.0,0.0,0.0,0.0,0.0,0.0,0.0,0.0,0.0,0.0,0.0,0.0,0.0,0.0,0.0,0.0,0.0,0.0,0.0,0.0,0.0,0.0,0.0,0.0,0.0,0.0,0.0,0.0,0.0,0.0,0.0,0.0,0.0,0.0,0.0,0.0,0.0,0.0,0.0,0.0,0.0,0.0,0.0,0.0,0.0,0.0,0.0,0.0,0.0,0.0,0.0,0.0,0.0,0.0,0.0,0.0,0.0,0.0,0.0,0.0,0.0,0.0,0.0,0.0,0.0,0.0,0.0,0.0,0.0,0.0,0.0,0.0,0.0,0.0,0.0,0.0,0.0,0.0,0.0,0.0,0.0,0.0,0.0,0.0,0.0,0.0,0.0,0.0,0.0,0.0,0.0,0.0,0.0,0.0,0.0,0.0,0.0,0.0,0.0,0.0,0.0,0.0,0.0,0.0,-2.4192,-2.3889,-2.2886,-2.3613,-2.3928,-2.3638,0.0,0.0,0.0,0.0,0.0,0.0,0.0,0.0,0.0,0.0,0.0,0.0,0.0,0.0,0.0,0.0,0.0,0.0,0.0,0.0,0.0,0.0,0.0,0.0,0.0,0.0,0.0,0.0,0.0,0.0,0.0,0.0,0.0,0.0,0.0,0.0,0.0,0.0,0.0,0.0,0.0,0.0,0.0,0.0,0.0,0.0,0.0,0.0,0.0,0.0,0.0,0.0,0.0,0.0,0.0,0.0,0.0,0.0,0.0,0.0,0.0,0.0,0.0,0.0,0.0,0.0,0.0,0.0,0.0,0.0,0.0,0.0,0.0,0.0,0.0,0.0,0.0,0.0,0.0,0.0,0.0,0.0,0.0,0.0,0.0,0.0,0.0,0.0,0.0,0.0,0.0,0.0,0.0,0.0,0.0,0.0,0.0,0.0,0.0,0.0,0.0,0.0,0.0,0.0,0.0,0.0,0.0,0.0,0.0,0.0,-2.4753,-2.3861,-2.3897,-2.3857,0.0,0.0,0.0,0.0,0.0,0.0,0.0,0.0,0.0,0.0,0.0,0.0,0.0,0.0,0.0,0.0,0.0,0.0,0.0,0.0,0.0,0.0,0.0,0.0,0.0,0.0,0.0,0.0,0.0,0.0,0.0,0.0,0.0,0.0,0.0,0.0,0.0,0.0,0.0,0.0,0.0,0.0,0.0,0.0,0.0,0.0,0.0,0.0,0.0,0.0,0.0,0.0,0.0,0.0,0.0,0.0,0.0,0.0,0.0,0.0,0.0,0.0,0.0,0.0,0.0,0.0,0.0,0.0,0.0,0.0,0.0,0.0,0.0,0.0,0.0,0.0,0.0,0.0,0.0,0.0,0.0,0.0,0.0,0.0,0.0,0.0,0.0,0.0,0.0,0.0,0.0,0.0,0.0,0.0,0.0,0.0,0.0,0.0,0.0,0.0,0.0,0.0,0.0,0.0,0.0,0.0,0.0,0.0,0.0,0.0,0.0,-2.5249,-2.5137,-2.432,0.0,-2.4309,0.0,0.0,0.0,0.0,0.0,0.0,0.0,0.0,0.0,0.0,0.0,0.0,0.0,0.0,0.0,0.0,0.0,0.0,0.0,0.0,0.0,0.0,0.0,0.0,0.0,0.0,0.0,0.0,0.0,0.0,0.0,0.0,0.0,0.0,0.0,0.0,0.0,0.0,0.0,0.0,0.0,0.0,0.0,0.0,0.0,0.0,0.0,0.0,0.0,0.0,0.0,0.0,0.0,0.0,0.0,0.0,0.0,0.0,0.0,0.0,0.0,0.0,0.0,0.0,0.0,0.0,0.0,0.0,0.0,0.0,0.0,0.0,0.0,0.0,0.0,0.0,0.0,0.0,0.0,0.0,0.0,0.0,0.0,0.0,0.0,0.0,0.0,0.0,0.0,0.0,0.0,0.0,0.0,0.0,0.0,0.0,0.0,0.0,0.0,0.0,0.0,0.0,0.0,0.0,0.0,0.0,0.0,0.0,0.0,0.0,0.0,0.0,-2.5025,-2.4798,-2.4921,0.0,0.0,0.0,0.0,0.0,0.0,0.0,0.0,0.0,0.0,0.0,0.0,0.0,0.0,0.0,0.0,0.0,0.0,0.0,0.0,0.0,0.0,0.0,0.0,0.0,0.0,0.0,0.0,0.0,0.0,0.0,0.0,0.0,0.0,0.0,0.0,0.0,0.0,0.0,0.0,0.0,0.0,0.0,0.0,0.0,0.0,0.0,0.0,0.0,0.0,0.0,0.0,0.0,0.0,0.0,0.0,0.0,0.0,0.0,0.0,0.0,0.0,0.0,0.0,0.0,0.0,0.0,0.0,0.0,0.0,0.0,0.0,0.0,0.0,0.0,0.0,0.0,0.0,0.0,0.0,0.0,0.0,0.0,0.0,0.0,0.0,0.0,0.0,0.0,0.0,0.0,0.0,0.0,0.0,0.0,0.0,0.0,0.0,0.0,0.0,0.0,0.0,0.0,0.0,0.0,0.0,0.0,0.0,0.0,0.0,-2.6935,-2.5946,-2.5362,-2.5105,-2.5105,0.0,0.0,0.0,0.0,0.0,0.0,0.0,0.0,0.0,0.0,0.0,0.0,0.0,0.0,0.0,0.0,0.0,0.0,0.0,0.0,0.0,0.0,0.0,0.0,0.0,0.0,0.0,0.0,0.0,0.0,0.0,0.0,0.0,0.0,0.0,0.0,0.0,0.0,0.0,0.0,0.0,0.0,0.0,0.0,0.0,0.0,0.0,0.0,0.0,0.0,0.0,0.0,0.0,0.0,0.0,0.0,0.0,0.0,0.0,0.0,0.0,0.0,0.0,0.0,0.0,0.0,0.0,0.0,0.0,0.0,0.0,0.0,0.0,0.0,0.0,0.0,0.0,0.0,0.0,0.0,0.0,0.0,0.0,0.0,0.0,0.0,0.0,0.0,0.0,0.0,0.0,0.0,0.0,0.0,0.0,0.0,0.0,0.0,0.0,0.0,0.0,0.0,0.0,0.0,0.0,0.0,0.0,0.0,0.0,0.0,0.0,0.0,0.0,0.0,-2.5105,0.0,0.0,0.0,0.0,0.0,0.0,0.0,0.0,0.0,0.0,0.0,0.0,0.0,0.0,0.0,0.0,0.0,0.0,0.0,0.0,0.0,0.0,0.0,0.0,0.0,0.0,0.0,0.0,0.0,0.0,0.0,0.0,0.0,0.0,0.0,0.0,0.0,0.0,0.0,0.0,0.0,0.0,0.0,0.0,0.0,0.0,0.0,0.0,0.0,0.0,0.0,0.0,0.0,0.0,0.0,0.0,0.0,0.0,0.0,0.0,0.0,0.0,0.0,0.0,0.0,0.0,0.0,0.0,0.0,0.0,0.0,0.0,0.0,0.0,0.0,0.0,0.0,0.0,0.0,0.0,0.0,0.0,0.0,0.0,0.0,0.0,0.0,0.0,0.0,0.0,0.0,0.0,0.0,0.0,0.0,0.0,0.0,0.0,0.0,0.0,0.0,0.0,0.0,0.0,0.0,0.0,0.0,0.0,0.0,0.0,0.0,0.0,0.0,0.0,0.0,0.0,0.0,0.0,0.0,0.0,0.0,0.0,0.0,0.0,0.0,0.0,0.0,0.0,0.0,0.0,0.0,0.0,0.0,0.0,0.0,0.0,0.0,0.0,0.0,0.0,0.0,0.0,0.0,0.0,0.0,0.0,0.0,0.0,0.0,0.0,0.0,0.0,0.0,0.0,0.0,0.0,0.0,0.0,0.0,0.0,0.0,0.0,0.0,0.0,0.0,0.0,0.0,0.0,0.0,0.0,0.0,0.0,0.0,0.0,0.0,0.0,0.0,0.0,0.0,0.0,0.0,0.0,0.0,0.0,0.0,0.0,0.0,0.0,0.0,0.0,0.0,0.0,0.0,0.0,0.0,0.0,0.0,0.0,0.0,0.0,0.0,0.0,0.0,0.0,0.0,0.0,0.0,0.0,0.0,0.0,0.0,0.0,0.0,0.0,0.0,0.0,0.0,0.0,0.0,0.0,0.0,0.0,0.0,0.0,0.0,0.0,0.0,0.0,0.0,0.0,0.0,0.0,0.0,0.0,0.0,0.0,0.0,0.0,0.0,0.0,0.0,0.0,0.0,0.0,0.0,0.0,0.0,0.0,0.0,0.0,0.0,0.0,0.0,0.0,0.0,0.0,0.0,0.0,0.0,0.0,0.0,0.0,0.0,0.0,0.0,0.0,0.0,0.0,0.0,0.0,0.0,0.0,0.0,0.0,0.0,0.0,0.0,0.0,0.0,0.0,0.0,0.0,0.0,0.0,0.0,0.0,0.0,0.0,0.0,0.0,0.0,0.0,0.0,0.0,0.0,0.0,0.0,0.0,0.0,0.0,0.0,0.0,0.0,0.0,0.0,0.0,0.0,0.0,0.0,0.0,0.0,0.0,0.0,0.0,0.0,0.0,0.0,0.0,0.0,0.0,0.0,0.0,0.0,0.0,0.0,0.0,0.0,0.0,0.0,0.0,0.0,0.0,0.0,0.0,0.0,0.0,0.0,0.0,0.0,0.0,0.0,0.0,0.0,0.0,0.0,0.0,0.0,0.0,0.0,0.0,0.0,0.0,0.0,0.0,0.0,0.0,0.0,0.0,0.0,0.0,0.0,0.0,0.0,0.0,0.0,0.0,0.0,0.0,0.0,0.0,0.0,0.0,0.0,0.0,0.0,0.0,0.0,0.0,0.0,0.0,0.0,0.0,0.0,0.0,0.0,0.0,0.0,0.0,0.0,0.0,0.0,0.0,0.0,0.0,0.0,0.0,0.0,0.0,0.0,0.0,0.0,0.0,0.0,0.0,0.0,0.0,0.0,0.0,0.0,0.0,0.0,0.0,0.0,0.0,0.0,0.0,0.0,0.0,0.0,0.0,0.0,0.0,0.0,0.0,0.0,0.0,0.0,0.0,0.0,0.0,0.0,0.0,0.0,0.0,0.0,0.0,0.0,0.0,0.0,0.0,0.0,0.0,0.0,0.0,0.0,0.0,0.0,0.0,0.0,0.0,0.0,0.0,0.0,0.0,0.0,0.0,0.0,0.0,0.0,0.0,0.0,0.0,0.0,0.0,0.0,0.0,0.0,0.0,0.0,0.0,0.0,0.0,0.0,0.0,0.0,0.0,0.0,0.0,0.0,0.0,0.0,0.0,0.0,0.0,0.0,0.0,0.0,0.0,0.0,0.0,0.0,0.0,0.0,0.0,0.0,0.0,0.0,0.0,0.0,0.0,0.0,0.0,0.0,0.0,0.0,0.0,0.0,0.0,0.0,0.0,0.0,0.0,0.0,0.0,0.0,0.0,0.0,0.0,0.0,0.0,0.0,0.0,0.0,0.0,0.0,0.0,0.0,0.0,0.0,0.0,0.0,0.0,0.0,0.0,0.0,0.0,0.0,0.0,0.0,0.0,0.0,0.0,0.0,0.0,0.0,0.0,0.0,0.0,0.0,0.0,0.0,0.0,0.0,0.0,0.0,0.0,0.0,0.0,0.0,0.0,0.0,0.0,0.0,0.0,0.0,0.0,0.0,0.0,0.0,0.0,0.0,0.0,0.0,0.0,0.0,0.0,0.0,0.0,0.0,0.0,0.0,0.0,0.0,0.0,0.0,0.0,0.0,0.0,0.0,0.0,0.0,0.0,0.0,0.0,0.0,0.0,0.0,0.0,0.0,0.0,0.0,0.0,0.0,0.0,0.0,0.0,0.0,0.0,0.0,0.0,0.0,0.0,0.0,0.0,0.0,0.0,0.0,0.0,0.0,0.0,0.0,0.0,0.0,0.0,0.0,0.0,0.0,0.0,0.0,0.0,0.0,0.0,0.0,0.0,0.0,0.0,0.0,0.0,0.0,0.0,0.0,0.0,0.0,0.0,0.0,0.0,0.0,0.0,0.0,0.0,0.0,0.0,0.0,0.0,0.0,0.0,0.0,0.0,0.0,0.0,0.0,0.0,0.0,0.0,0.0,0.0,0.0,0.0,0.0,0.0,0.0,0.0,0.0,0.0,0.0,0.0,0.0,0.0,0.0,0.0,0.0,0.0,0.0,0.0,0.0,0.0,0.0,0.0,0.0,0.0,0.0,0.0,0.0,0.0,0.0,0.0,0.0,0.0,0.0,0.0,0.0,0.0,0.0,0.0,0.0,0.0,0.0,0.0,0.0,0.0,0.0,0.0,0.0,0.0,0.0,0.0,0.0,0.0,0.0,0.0,0.0,0.0,0.0,0.0,0.0,0.0,0.0,0.0,0.0,0.0,0.0,0.0,0.0,0.0,0.0,0.0,0.0,0.0,0.0,0.0,0.0,0.0,0.0,0.0,0.0,0.0,0.0,0.0,0.0,0.0,0.0,0.0,0.0,0.0,0.0,0.0,0.0,0.0,0.0,0.0,0.0,0.0,0.0,0.0,0.0,0.0,0.0,0.0,0.0,0.0,0.0,0.0,0.0,0.0,0.0,0.0,0.0,0.0,0.0,0.0,0.0,0.0,0.0,0.0,0.0,0.0,0.0,0.0,0.0,0.0,0.0,0.0,0.0,0.0,0.0,0.0,0.0,0.0,0.0,0.0,0.0,0.0,0.0,0.0,0.0,0.0,0.0,0.0,0.0,0.0,0.0,0.0,0.0,0.0,0.0,0.0,0.0,0.0,0.0,0.0,0.0,0.0,0.0,0.0,0.0,0.0,0.0,0.0,0.0,0.0,0.0,0.0,0.0,0.0,0.0,0.0,0.0,0.0,0.0,0.0,0.0,0.0,0.0,0.0,0.0,0.0,0.0,0.0,0.0,0.0,0.0,0.0,0.0,0.0,0.0,0.0,0.0,0.0,0.0,0.0,0.0,0.0,0.0,0.0,0.0,0.0,0.0,0.0,0.0,0.0,0.0,0.0,0.0,0.0,0.0,0.0,0.0,0.0,0.0,0.0,0.0,0.0,0.0,0.0,0.0,0.0,0.0,0.0,0.0,0.0,0.0,0.0,0.0,0.0,0.0,0.0,0.0,0.0,0.0,0.0,0.0,0.0,0.0,0.0,0.0,0.0,0.0,0.0,0.0,0.0,0.0,0.0,0.0,0.0,0.0,0.0,0.0,0.0,0.0,0.0,0.0,0.0,0.0,0.0,0.0,0.0,0.0,0.0,0.0,0.0,0.0,0.0,0.0,0.0,0.0,0.0,0.0,0.0,0.0,0.0,0.0,0.0,0.0,0.0,0.0,0.0,0.0,0.0,0.0,0.0,0.0,0.0,0.0,0.0,0.0,0.0,0.0,0.0,0.0,0.0,0.0,0.0,0.0,0.0,0.0,0.0,0.0,0.0,0.0,0.0,0.0,0.0,0.0,0.0,0.0,0.0,0.0,0.0,0.0,0.0,0.0,0.0,0.0,0.0,0.0,0.0,0.0,0.0]}],[{"header":{"parameterUnit":"kt","parameterCategory":2,"dx":1,"dy":1,"la1":29.587661999999998,"la2":31.0,"lo1":-88.76705300000003,"lo2":-86.6583820000003,"nx":115,"ny":88,"refTime":"2022-10-19T18:00:00:Z","depth":0,"parameterNumber":2,"parameterNumberName":"V-component_of_WINDS"},"data":[10.7143,10.6989,10.7554,10.6841,10.5111,10.4109,10.266,10.1239,10.1094,10.057,9.9843,9.961,9.9581,9.9581,9.9581,9.9581,9.9581,9.9581,9.9581,9.9581,9.9581,9.9581,9.9581,9.9581,9.9581,9.9581,9.9581,9.9581,9.9581,9.961,10.0134,10.107,10.1274,10.3114,10.5134,10.699,10.8127,10.9937,11.1791,11.3473,11.459,11.6114,11.8335,11.8806,11.8806,11.8806,11.8774,11.8806,11.8774,11.8806,11.8693,11.8285,11.8007,11.7645,11.7115,11.6611,11.6241,11.576,11.51,11.4664,11.4344,11.3535,11.1122,10.9339,10.8215,10.6425,10.5354,10.481,10.4726,10.4642,10.4473,10.4158,10.3928,10.3702,10.3763,10.3334,10.2902,10.2728,10.2554,10.2557,10.2616,10.3095,10.3783,10.4166,10.4725,10.5259,10.6031,10.7344,10.8892,11.0748,11.2515,11.3725,11.5029,11.5908,11.6959,11.8567,11.7975,11.6732,11.5294,11.375,11.3115,11.3835,11.441,11.4645,11.4711,11.4711,11.4711,11.4711,11.6253,11.7963,11.8801,11.9974,12.2253,12.346,12.3293,10.6659,10.5745,10.6248,10.5606,10.4352,10.4084,10.2472,10.0171,9.9843,9.9727,9.9581,9.9581,9.9581,9.9581,9.9581,9.9581,9.9581,9.9581,9.9581,9.9581,9.9581,9.9581,9.9581,9.9581,9.9581,9.9581,9.9581,9.9581,9.9581,9.9581,9.9789,10.0295,10.1936,10.4084,10.5399,10.7527,10.9997,11.1437,11.3022,11.4891,11.6221,11.7582,11.8288,11.8677,11.8806,11.8806,11.8774,11.8774,11.8774,11.8709,11.8548,11.8225,11.7967,11.7661,11.7267,11.6842,11.653,11.6094,11.5576,11.4797,11.4521,11.3594,11.083,10.9216,10.8632,10.7225,10.569,10.5084,10.5084,10.5031,10.4864,10.4581,10.4297,10.4043,10.4158,10.4134,10.3592,10.3162,10.2815,10.2554,10.2584,10.2584,10.2911,10.3259,10.364,10.3994,10.491,10.607,10.7669,10.9887,11.1386,11.2601,11.4785,11.6816,11.8126,11.8127,11.7021,11.5864,11.5047,11.3492,11.2729,11.3836,11.4544,11.4711,11.4711,11.4711,11.4711,11.4711,11.6555,11.8533,11.9203,12.0008,12.2253,12.3628,12.3628,10.7459,10.8749,10.8307,10.6613,10.4289,10.3424,10.1795,9.9793,9.9581,9.9581,9.9581,9.9581,9.9581,9.9581,9.9581,9.9581,9.9581,9.9581,9.9581,9.9581,9.9581,9.9581,9.9581,9.9581,9.9581,9.9581,9.9581,9.9581,9.9581,9.9643,10.0309,10.1321,10.212,10.3893,10.6049,10.7361,10.9512,11.2293,11.3631,11.4546,11.5142,11.6409,11.7502,11.7969,11.8307,11.8903,11.8984,11.9112,11.8692,11.8143,11.7902,11.7596,11.6825,11.6681,11.6281,11.6009,11.5799,11.5365,11.4536,11.3946,11.3499,11.2525,11.05,10.9321,10.8741,10.7719,10.617,10.5635,10.5583,10.5251,10.5001,10.4948,10.4665,10.4466,10.4527,10.4558,10.4189,10.3733,10.3299,10.2925,10.2662,10.2601,10.2619,10.2877,10.3344,10.3752,10.362,10.4672,10.713,10.9529,11.0078,11.1368,11.4753,11.7038,11.7358,11.6689,11.5985,11.5414,11.4675,11.3901,11.3563,11.4276,11.4711,11.4711,11.4711,11.4711,11.4711,11.4711,11.622,11.8499,11.9404,12.0075,12.1918,12.3628,12.3628,10.8155,11.0386,10.9793,10.7875,10.494,10.3515,10.1938,10.0219,10.0158,9.9977,9.9643,10.0006,10.0068,9.9643,9.9581,9.9581,9.9581,9.9581,9.9581,9.9581,9.9581,9.9581,9.9581,9.9581,9.9581,9.9581,9.9581,9.9581,9.9734,10.0219,10.0996,10.2083,10.3922,10.4994,10.6829,10.8599,11.0288,11.2606,11.3489,11.3768,11.4563,11.5604,11.6213,11.6535,11.6951,11.777,11.7708,11.7931,11.7507,11.6878,11.673,11.5959,11.4712,11.4744,11.4679,11.4647,11.4735,11.4485,11.396,11.3591,11.3186,11.2082,11.0867,10.9705,10.8696,10.7695,10.6971,10.6373,10.5964,10.5583,10.5251,10.5168,10.5084,10.5001,10.4948,10.478,10.4726,10.4267,10.3776,10.3399,10.2992,10.2775,10.2581,10.2834,10.3215,10.3207,10.2967,10.397,10.6429,10.8327,10.8982,11.1534,11.4807,11.5816,11.5348,11.5046,11.5214,11.4812,11.4578,11.4645,11.4578,11.4711,11.4711,11.4711,11.4711,11.4711,11.4711,11.4711,11.5951,11.8298,11.9538,12.0477,12.2086,12.3527,12.3628,10.8006,10.7579,10.8845,10.855,10.7069,10.5315,10.3691,10.217,10.2083,10.1173,10.0158,10.1232,10.0966,9.9734,9.9581,9.9581,9.9581,9.9581,9.9581,9.9581,9.9581,9.9581,9.9581,9.9581,9.9581,9.9581,9.9581,9.9581,9.9977,10.0907,10.182,10.2431,10.5026,10.6895,10.7957,10.9698,11.0948,11.2344,11.2422,11.277,11.3912,11.4738,11.5041,11.4918,11.5487,11.5925,11.5507,11.5222,11.5183,11.4996,11.5009,11.5253,11.4678,11.4581,11.4646,11.4537,11.397,11.3705,11.3329,11.2905,11.2668,11.2063,11.112,11.0026,10.9444,10.8749,10.7833,10.7181,10.6697,10.6209,10.5717,10.5552,10.5334,10.5168,10.5084,10.5031,10.4948,10.4749,10.4138,10.3489,10.2986,10.1961,10.1794,10.1664,10.1982,10.1892,10.2139,10.3298,10.5252,10.7069,10.8985,11.1706,11.3741,11.4712,11.4443,11.4711,11.4711,11.4711,11.4645,11.4711,11.4711,11.4711,11.4711,11.4711,11.4711,11.4711,11.4745,11.4845,11.5683,11.7996,11.9672,12.0745,12.1952,12.3293,12.3628,10.8326,10.8797,10.8496,10.8638,10.8585,10.6124,10.5223,10.5274,10.4337,10.2834,10.141,10.1995,10.1262,9.9825,9.9581,9.9581,9.9581,9.9581,9.9581,9.9581,9.9581,9.9581,9.9581,9.9581,9.9581,9.9581,9.9581,9.9734,9.9977,10.1321,10.3715,10.514,10.6448,10.8022,10.91,11.0301,11.1143,11.1143,11.1175,11.1368,11.2132,11.3038,11.3438,11.3902,11.5082,11.5647,11.5744,11.582,11.5277,11.4518,11.4346,11.4063,11.2929,11.2929,11.2854,11.2684,11.2413,11.2326,11.2282,11.1802,11.1565,11.1122,11.0507,11.0115,10.9873,10.9468,10.8747,10.7976,10.75,10.6908,10.6423,10.5964,10.5635,10.5251,10.5251,10.5251,10.5115,10.5031,10.4496,10.3726,10.2788,10.1729,10.0967,10.0723,10.068,10.1382,10.2265,10.3537,10.5259,10.685,10.9178,11.1296,11.2601,11.3907,11.4376,11.4711,11.4711,11.4711,11.4711,11.4711,11.4711,11.4711,11.4711,11.4711,11.4711,11.4711,11.4711,11.4845,11.5482,11.756,11.9471,12.0879,12.2287,12.3326,12.3628,10.8985,11.0027,10.8831,10.8985,10.9768,10.755,10.6832,10.7328,10.6286,10.4839,10.3118,10.3093,10.2227,10.0459,9.9825,9.9552,9.9581,9.9581,9.9581,9.9581,9.9581,9.9581,9.9581,9.9581,9.9581,9.9734,10.0068,10.0578,10.0817,10.2227,10.4808,10.7249,10.8101,10.894,10.9692,11.0209,11.0306,11.0413,11.0628,11.0757,11.1197,11.1907,11.225,11.2724,11.3705,11.4049,11.4328,11.4468,11.4174,11.3496,11.3398,11.3144,11.1613,11.1653,11.158,11.1142,11.0774,11.0551,11.0551,11.0583,11.067,11.0649,11.052,11.0327,11.0102,10.9744,10.9394,10.879,10.829,10.7628,10.7069,10.6747,10.6454,10.6128,10.5799,10.5583,10.5168,10.5115,10.5053,10.4304,10.3364,10.22,10.0419,10.01,10.0639,10.1633,10.2836,10.4294,10.5836,10.7124,10.902,11.0524,11.1929,11.3437,11.4074,11.4711,11.4711,11.4711,11.4711,11.4711,11.4711,11.4711,11.4711,11.4711,11.4711,11.4711,11.4711,11.5247,11.575,11.7661,11.9304,12.1047,12.2522,12.3192,12.3628,11.0102,11.0209,11.0209,11.0102,11.0177,10.9876,10.894,10.7597,10.7518,10.6658,10.5357,10.4922,10.3661,10.2255,10.037,9.9552,9.9581,9.9581,9.9581,9.9581,9.9581,9.9825,9.9734,9.9643,9.9796,10.0219,10.0907,10.1586,10.2227,10.3885,10.5521,10.7408,10.8908,10.9692,11.0027,11.0209,11.0209,11.0252,11.0402,11.0476,11.0658,11.1255,11.1638,11.1956,11.2338,11.2647,11.2679,11.2719,11.2353,11.2189,11.2026,11.204,11.2118,11.2299,11.2157,11.1941,11.1507,11.1289,11.1216,11.1142,11.1069,11.0921,11.0848,11.0551,11.0327,11.0102,10.9756,10.9298,10.9068,10.8415,10.7865,10.7628,10.7341,10.6859,10.6535,10.6046,10.55,10.5334,10.5334,10.4738,10.3795,10.2353,10.0627,10.0002,10.048,10.1664,10.3309,10.4717,10.5899,10.7279,10.8179,10.9716,11.146,11.2934,11.3907,11.4577,11.4711,11.4711,11.4711,11.4711,11.4711,11.4711,11.4711,11.4711,11.4711,11.4711,11.4711,11.518,11.6018,11.7393,11.8968,12.0779,12.2991,12.3527,12.3628,11.0209,11.0209,11.0209,11.0209,11.0209,11.0209,10.9951,10.94,10.9247,10.8335,10.677,10.547,10.4138,10.2315,10.0578,9.9581,9.9581,9.9552,9.9552,9.9581,9.9581,10.0399,10.0578,10.0338,10.0549,10.1232,10.1995,10.2431,10.2718,10.5274,10.685,10.7912,10.9247,11.0027,11.0209,11.0209,11.0209,11.0252,11.0327,11.0476,11.07,11.0995,11.1362,11.158,11.1869,11.2228,11.2228,11.2261,11.2332,11.2294,11.2261,11.2299,11.2371,11.2442,11.2299,11.2085,11.1797,11.1653,11.1507,11.1435,11.1507,11.1402,11.1289,11.0995,11.07,11.0402,11.0102,10.9951,10.98,10.9266,10.8758,10.8681,10.8212,10.758,10.7181,10.6828,10.6373,10.6128,10.6046,10.5048,10.4,10.2526,10.1027,10.0837,10.1119,10.2514,10.3862,10.4811,10.5949,10.6537,10.7269,10.9214,11.1057,11.2599,11.3705,11.4443,11.4711,11.4711,11.4711,11.4711,11.4711,11.4711,11.4711,11.4711,11.4711,11.4711,11.4711,11.518,11.6186,11.7426,11.8767,12.0745,12.3125,12.3628,12.3628,11.0209,11.0209,11.0209,11.0209,11.0209,11.0209,11.0209,11.0209,11.0177,10.9736,10.8568,10.685,10.5026,10.363,10.2285,10.1055,10.0489,10.0309,10.0428,10.0518,10.1498,10.1995,10.217,10.2025,10.217,10.3007,10.3885,10.4306,10.3969,10.693,10.8257,10.8599,10.9692,11.0177,11.0209,11.0209,11.0209,11.0252,11.0327,11.0476,11.07,11.1142,11.1507,11.1869,11.2085,11.2371,11.2442,11.2442,11.2513,11.2442,11.2442,11.2513,11.2513,11.2513,11.2442,11.2228,11.2157,11.2013,11.1837,11.1765,11.1869,11.1797,11.1758,11.1435,11.1069,11.0774,11.0625,11.0551,11.0476,11.0177,10.968,10.9604,10.91,10.8447,10.8133,10.7707,10.7229,10.702,10.6554,10.5592,10.5028,10.3814,10.2448,10.2094,10.3232,10.4651,10.5774,10.6634,10.6135,10.6431,10.6901,10.8945,11.0655,11.2197,11.3504,11.4309,11.4711,11.4711,11.4711,11.4711,11.4711,11.4711,11.4711,11.4711,11.4711,11.4711,11.4711,11.4946,11.6119,11.7259,11.8499,12.0209,12.2622,12.3628,12.3628,11.0209,11.0209,11.0209,11.0209,11.0209,11.0209,11.0209,11.0209,11.0209,11.0476,11.0635,10.8845,10.7107,10.6081,10.5078,10.346,10.214,10.3715,10.3915,10.2548,10.349,10.4054,10.4084,10.403,10.4168,10.5253,10.5961,10.6578,10.7058,10.8908,10.9736,11.0177,11.007,11.0252,11.0209,11.0209,11.0209,11.0284,11.0625,11.0848,11.1142,11.1289,11.1797,11.2085,11.2228,11.2299,11.2513,11.2513,11.2513,11.2513,11.2513,11.2513,11.2513,11.2513,11.2513,11.2475,11.2513,11.2513,11.2513,11.2513,11.2299,11.2085,11.1941,11.1725,11.1507,11.1362,11.1216,11.1069,11.0995,11.0774,11.07,11.0402,10.9908,10.9375,10.9222,10.8836,10.818,10.7707,10.7229,10.651,10.6255,10.5832,10.4424,10.3975,10.5437,10.6645,10.7717,10.7488,10.657,10.6632,10.7102,10.8711,11.0219,11.1761,11.3203,11.4108,11.4711,11.4711,11.4711,11.4711,11.4711,11.4711,11.4711,11.4711,11.4711,11.4711,11.4711,11.4711,11.5147,11.5817,11.746,11.9873,12.2119,12.3628,12.3628,11.0209,11.0209,11.0209,11.0209,11.0209,11.0209,11.0209,11.0209,11.0209,11.0551,11.0815,10.9304,10.8286,10.7629,10.6756,10.5161,10.4913,10.5408,10.5244,10.5161,10.5357,10.5849,10.593,10.593,10.5961,10.6721,10.7439,10.7802,10.8193,10.9779,11.0476,11.0625,11.0625,11.0402,11.0359,11.0209,11.0209,11.0327,11.0583,11.0921,11.1069,11.1435,11.2013,11.2085,11.2299,11.2442,11.2513,11.2513,11.2513,11.2513,11.2513,11.2513,11.2513,11.2513,11.2513,11.2513,11.2513,11.2513,11.2513,11.2513,11.2513,11.2299,11.2157,11.1909,11.1692,11.1507,11.1507,11.1435,11.1362,11.1216,11.1216,11.1069,11.0625,11.0284,11.0134,10.9756,10.9036,10.8571,10.8023,10.7676,10.7038,10.6609,10.5804,10.6424,10.7788,10.8879,10.9246,10.845,10.7403,10.7102,10.747,10.8476,10.9884,11.1392,11.2901,11.3873,11.4711,11.4711,11.4711,11.4711,11.4711,11.4711,11.4711,11.4711,11.4711,11.4711,11.4711,11.4711,11.4711,11.4745,11.7192,11.9907,12.2019,12.3293,12.336,11.0209,11.0209,11.0209,11.0209,11.0209,11.0209,11.0209,11.0252,11.0402,11.0551,11.0774,11.0166,10.9543,10.8979,10.8176,10.7786,10.6596,10.7503,10.7455,10.7186,10.7424,10.8037,10.8069,10.7912,10.7787,10.88,10.9062,10.9183,10.9304,11.0486,11.0995,11.0995,11.0995,11.0732,11.0509,11.0402,11.0551,11.07,11.0921,11.1142,11.1289,11.1797,11.2013,11.2157,11.2442,11.2513,11.2513,11.2513,11.2513,11.2513,11.2513,11.2513,11.2513,11.2513,11.2513,11.2513,11.2513,11.2513,11.2513,11.2513,11.2513,11.2513,11.2371,11.2157,11.2157,11.2013,11.1869,11.1725,11.1725,11.162,11.158,11.1507,11.1362,11.1069,11.0806,11.0359,10.9951,10.9572,10.919,10.9171,10.8554,10.7881,10.8289,10.8845,11.0079,11.0963,11.0242,10.9448,10.8308,10.7705,10.7772,10.8476,10.9683,11.1124,11.2599,11.3672,11.4644,11.4711,11.4711,11.4711,11.4711,11.4711,11.4711,11.4711,11.4711,11.4711,11.4711,11.4711,11.4879,11.518,11.7091,11.9672,12.1248,12.2723,12.3192,11.0209,11.0209,11.0209,11.0209,11.0209,11.0209,11.0284,11.0359,11.0625,11.0815,11.1069,11.1402,11.0833,11.0176,11.0612,10.9909,10.7503,11.057,11.0016,10.9488,10.9973,11.0305,11.008,11.0188,11.0667,11.1069,11.0815,11.0889,11.1329,11.1329,11.1435,11.1435,11.1289,11.0921,11.07,11.0625,11.0848,11.1142,11.1362,11.158,11.1797,11.2013,11.2157,11.2475,11.2513,11.2513,11.2513,11.2513,11.2513,11.2513,11.2513,11.2513,11.2513,11.2513,11.2513,11.2513,11.2513,11.2513,11.2513,11.2513,11.2513,11.2513,11.2513,11.2442,11.2442,11.2513,11.2513,11.2371,11.2157,11.2013,11.1941,11.1725,11.1653,11.1467,11.1248,11.088,11.0476,11.0252,11.0295,11.0602,11.0389,10.9984,11.0176,11.168,11.2897,11.3,11.2396,11.1619,11.0246,10.8376,10.8342,10.8342,10.9515,11.0621,11.213,11.327,11.4141,11.4443,11.4611,11.4711,11.4711,11.4711,11.4711,11.4711,11.4711,11.4711,11.4711,11.4711,11.4879,11.5415,11.6588,11.8667,12.041,12.2287,12.3259,11.0209,11.0209,11.0209,11.0209,11.0209,11.0209,11.0402,11.0625,11.0774,11.111,11.158,11.1797,11.1909,11.1909,11.1948,11.1804,11.1012,11.1981,11.1804,11.1515,11.162,11.1548,11.1329,11.111,11.1289,11.1362,11.1507,11.158,11.1797,11.2013,11.2013,11.1797,11.158,11.1289,11.1069,11.0995,11.1069,11.1435,11.1653,11.1869,11.2013,11.2228,11.2371,11.2513,11.2513,11.2513,11.2513,11.2513,11.2513,11.2513,11.2513,11.2513,11.2513,11.2513,11.2513,11.2513,11.2513,11.2513,11.2513,11.2513,11.2513,11.2513,11.2513,11.2513,11.2513,11.2513,11.2513,11.2513,11.2442,11.2442,11.2371,11.2299,11.2085,11.1869,11.1685,11.1289,11.0921,11.0774,11.0741,11.1151,11.145,11.1312,11.2564,11.421,11.4809,11.4943,11.4538,11.3762,11.1851,10.9575,10.8941,10.8141,10.9012,10.9649,11.0957,11.2163,11.3504,11.4208,11.4543,11.4711,11.4711,11.4711,11.4711,11.4711,11.4711,11.4711,11.4711,11.4711,11.4778,11.5717,11.6789,11.8298,11.9907,12.2052,12.3465,11.0209,11.0209,11.0209,11.0209,11.0284,11.0402,11.0625,11.0848,11.1142,11.158,11.1941,11.2085,11.2299,11.2442,11.2513,11.2513,11.2513,11.2513,11.2513,11.2371,11.2085,11.2013,11.2085,11.1869,11.1797,11.1869,11.1941,11.2013,11.2157,11.2371,11.2371,11.1941,11.1725,11.158,11.1289,11.1256,11.1402,11.1653,11.2013,11.2124,11.2299,11.2442,11.2513,11.2513,11.2513,11.2513,11.2513,11.2513,11.2513,11.2513,11.2513,11.2513,11.2513,11.2513,11.2513,11.2513,11.2513,11.2513,11.2513,11.2513,11.2513,11.2513,11.2513,11.2583,11.2583,11.2654,11.2725,11.2583,11.2687,11.2687,11.2616,11.2583,11.2371,11.2228,11.2013,11.1653,11.1435,11.1289,11.1289,11.1804,11.2272,11.3152,11.4176,11.4909,11.4943,11.5239,11.5261,11.4791,11.3414,11.1441,11.0239,10.8841,10.8778,10.9012,11.0152,11.1091,11.2465,11.3538,11.3907,11.451,11.4577,11.4711,11.4711,11.4711,11.4711,11.4711,11.4711,11.4711,11.4711,11.5817,11.7091,11.8197,11.9371,12.155,12.3364,11.0209,11.0209,11.0252,11.0252,11.0359,11.07,11.0921,11.1069,11.1653,11.2013,11.2085,11.2371,11.2513,11.2513,11.2513,11.2513,11.2513,11.2513,11.2513,11.2513,11.2228,11.2228,11.2442,11.2157,11.2228,11.2371,11.2442,11.2513,11.2513,11.2513,11.2338,11.2052,11.1941,11.1869,11.1725,11.1725,11.2013,11.2085,11.2371,11.2513,11.2513,11.2513,11.2513,11.2513,11.2513,11.2513,11.2513,11.2513,11.2513,11.2513,11.2513,11.2513,11.2513,11.2513,11.2513,11.2513,11.2513,11.2513,11.2513,11.2513,11.2513,11.2513,11.2654,11.2687,11.2758,11.2968,11.3038,11.2725,11.2968,11.3108,11.2898,11.2725,11.2654,11.2513,11.2299,11.2085,11.1869,11.158,11.1797,11.2267,11.2832,11.4006,11.5041,11.5008,11.5173,11.5728,11.6112,11.5887,11.5119,11.3947,11.2744,11.0575,10.9911,10.9441,11.0078,11.0353,11.1493,11.27,11.3437,11.4242,11.4476,11.4711,11.4711,11.4711,11.4711,11.4711,11.4711,11.4711,11.4711,11.5482,11.6756,11.7896,11.9035,12.098,12.3092,11.0209,11.0284,11.0551,11.07,11.0774,11.1069,11.1435,11.1725,11.1909,11.2157,11.2371,11.2513,11.2513,11.2513,11.2513,11.2513,11.2513,11.2513,11.2513,11.2513,11.2442,11.2442,11.2513,11.2442,11.2442,11.2513,11.2513,11.2513,11.2513,11.2513,11.2513,11.2371,11.2085,11.2013,11.2157,11.2085,11.2189,11.2299,11.2513,11.2513,11.2513,11.2513,11.2513,11.2513,11.2513,11.2513,11.2513,11.2513,11.2513,11.2513,11.2513,11.2513,11.2513,11.2513,11.2513,11.2513,11.2513,11.2513,11.2583,11.2583,11.2654,11.2654,11.2898,11.2968,11.3108,11.3248,11.3525,11.3525,11.3627,11.3558,11.3317,11.3145,11.3038,11.2968,11.2654,11.2299,11.2085,11.2085,11.2332,11.2935,11.3386,11.4174,11.4875,11.5106,11.5789,11.6332,11.6429,11.6302,11.6108,11.5243,11.4247,11.2141,11.084,11.0268,10.9571,10.9944,11.089,11.1996,11.28,11.384,11.4309,11.4678,11.4711,11.4711,11.4711,11.4711,11.4711,11.4711,11.4711,11.518,11.6421,11.7695,11.9002,12.0745,12.2555,11.0509,11.0551,11.0921,11.1069,11.1175,11.1507,11.1797,11.2013,11.2157,11.2403,11.2513,11.2513,11.2513,11.2513,11.2513,11.2513,11.2513,11.2513,11.2513,11.2513,11.2513,11.2513,11.2513,11.2513,11.2513,11.2513,11.2513,11.2513,11.2513,11.2513,11.2513,11.2513,11.2403,11.2299,11.2442,11.2299,11.2371,11.2442,11.2513,11.2513,11.2513,11.2513,11.2513,11.2513,11.2513,11.2513,11.2513,11.2513,11.2513,11.2513,11.2513,11.2513,11.2513,11.2513,11.2513,11.2583,11.2758,11.2828,11.2828,11.3038,11.3108,11.3108,11.3281,11.3386,11.3456,11.3594,11.3764,11.3901,11.3969,11.3901,11.3764,11.3525,11.342,11.3317,11.3005,11.2758,11.2545,11.2371,11.2939,11.3667,11.4074,11.4544,11.5071,11.5849,11.6423,11.6645,11.6708,11.6645,11.6554,11.6031,11.5574,11.3965,11.2964,11.1522,10.9423,10.9873,11.0655,11.1325,11.2096,11.3303,11.4007,11.4543,11.4711,11.4711,11.4711,11.4711,11.4711,11.4711,11.4711,11.4879,11.6119,11.7426,11.8868,12.0343,12.1985,11.0954,11.0921,11.1289,11.1507,11.158,11.1869,11.2118,11.2189,11.2403,11.2513,11.2513,11.2513,11.2513,11.2513,11.2513,11.2513,11.2513,11.2513,11.2513,11.2513,11.2513,11.2513,11.2513,11.2513,11.2513,11.2513,11.2513,11.2513,11.2513,11.2513,11.2513,11.2513,11.2513,11.2513,11.2513,11.2513,11.2513,11.2513,11.2513,11.2513,11.2513,11.2513,11.2513,11.2513,11.2513,11.2513,11.2513,11.2513,11.2513,11.2513,11.2513,11.2583,11.2687,11.2687,11.2725,11.2898,11.3108,11.3281,11.3281,11.3489,11.3627,11.3696,11.3764,11.3833,11.3534,11.3702,11.3839,11.4042,11.4008,11.4241,11.3868,11.3833,11.3833,11.3696,11.3456,11.3178,11.3075,11.3181,11.3598,11.4344,11.4675,11.5035,11.5967,11.6785,11.7072,11.714,11.7174,11.7113,11.6866,11.6486,11.6166,11.5531,11.4828,11.2409,10.984,11.0533,11.041,11.1079,11.1555,11.2763,11.3669,11.4274,11.4711,11.4811,11.4877,11.4778,11.4778,11.4711,11.4711,11.4711,11.5817,11.7091,11.8398,11.9706,12.1348,11.1289,11.1362,11.1725,11.1869,11.1941,11.2332,11.2442,11.2442,11.2513,11.2513,11.2513,11.2513,11.2513,11.2513,11.2513,11.2513,11.2513,11.2513,11.2513,11.2513,11.2513,11.2513,11.2513,11.2513,11.2513,11.2513,11.2513,11.2513,11.2513,11.2513,11.2513,11.2513,11.2513,11.2513,11.2513,11.2513,11.2513,11.2513,11.2513,11.2513,11.2513,11.2513,11.2513,11.2513,11.2513,11.2513,11.2513,11.2513,11.2513,11.2513,11.2513,11.2725,11.2968,11.3038,11.3211,11.3489,11.3558,11.3494,11.3428,11.353,11.3598,11.3764,11.387,11.354,11.2907,11.3241,11.3407,11.3473,11.3774,11.4344,11.4511,11.4343,11.4207,11.4139,11.3901,11.3456,11.3422,11.4142,11.461,11.5232,11.587,11.6559,11.7299,11.7693,11.7677,11.772,11.7695,11.7513,11.7051,11.6645,11.6486,11.5986,11.5884,11.4196,11.2409,11.2462,11.0784,11.0924,11.1004,11.2114,11.309,11.3935,11.4743,11.4877,11.4943,11.501,11.4976,11.491,11.4811,11.4745,11.5482,11.6555,11.7795,11.9136,12.1642,11.1758,11.1725,11.2157,11.2299,11.2332,11.2475,11.2513,11.2513,11.2513,11.2513,11.2513,11.2513,11.2513,11.2513,11.2513,11.2513,11.2513,11.2513,11.2513,11.2513,11.2513,11.2513,11.2513,11.2513,11.2513,11.2513,11.2513,11.2513,11.2513,11.2513,11.2513,11.2513,11.2513,11.2513,11.2513,11.2513,11.2513,11.2513,11.2513,11.2513,11.2513,11.2513,11.2513,11.2513,11.2513,11.2513,11.2513,11.2513,11.2513,11.2513,11.2583,11.2758,11.3038,11.3108,11.3317,11.3696,11.3901,11.3703,11.3005,11.294,11.2773,11.2005,11.2137,11.1735,11.1667,11.1832,11.2029,11.1929,11.2666,11.394,11.4544,11.4511,11.4544,11.4444,11.4241,11.3969,11.3971,11.4776,11.5841,11.6988,11.7471,11.8223,11.864,11.8812,11.8824,11.8536,11.8455,11.7815,11.7358,11.699,11.677,11.6645,11.6742,11.6208,11.4648,11.3341,11.1761,11.1405,11.1488,11.2133,11.3043,11.3895,11.4773,11.4739,11.4738,11.4904,11.5239,11.5141,11.5043,11.4944,11.518,11.6052,11.7328,11.9077,12.1535,11.2085,11.2085,11.2442,11.2513,11.2513,11.2513,11.2513,11.2513,11.2513,11.2513,11.2513,11.2513,11.2513,11.2513,11.2513,11.2513,11.2513,11.2513,11.2513,11.2513,11.2513,11.2513,11.2513,11.2513,11.2513,11.2513,11.2513,11.2513,11.2513,11.2513,11.2513,11.2513,11.2513,11.2513,11.2513,11.2513,11.2513,11.2513,11.2513,11.2513,11.2513,11.2513,11.2513,11.2513,11.2513,11.2513,11.2513,11.2513,11.2513,11.2513,11.2583,11.2758,11.3009,11.2884,11.2859,11.3135,11.3307,11.284,11.1938,11.1834,11.1627,11.0758,11.0725,11.0286,11.0052,11.0286,11.0387,11.0186,11.1225,11.2432,11.3337,11.394,11.4242,11.4544,11.4477,11.4511,11.4976,11.6069,11.7505,11.865,11.9249,11.9706,12.0387,11.9975,11.9721,11.9445,11.8916,11.8196,11.772,11.7297,11.7051,11.6708,11.6804,11.6639,11.551,11.5006,11.3624,11.2895,11.2477,11.2656,11.3365,11.4214,11.4754,11.4825,11.4729,11.5064,11.5595,11.5468,11.5175,11.5109,11.5144,11.5985,11.7059,11.9119,12.1316,11.2513,11.2513,11.2513,11.2513,11.2513,11.2513,11.2513,11.2513,11.2513,11.2513,11.2513,11.2513,11.2513,11.2513,11.2513,11.2513,11.2513,11.2513,11.2513,11.2513,11.2513,11.2513,11.2513,11.2513,11.2513,11.2513,11.2513,11.2513,11.2513,11.2513,11.2513,11.2513,11.2513,11.2513,11.2513,11.2513,11.2513,11.2513,11.2513,11.2513,11.2513,11.2513,11.2513,11.2513,11.2513,11.2513,11.2513,11.2513,11.2513,11.2513,11.2513,11.2692,11.2877,11.2063,11.187,11.2039,11.1502,11.0995,11.0624,11.0557,11.0487,11.0119,11.0085,10.9884,10.8878,10.9281,10.9549,10.8774,10.975,11.0786,11.1423,11.2163,11.3136,11.4175,11.4609,11.517,11.6384,11.8247,11.9581,11.9834,12.0634,12.0878,12.0966,12.0722,12.0458,11.9866,11.9389,11.8744,11.8314,11.79,11.754,11.7113,11.6928,11.69,11.6702,11.6503,11.513,11.4224,11.367,11.3438,11.415,11.4692,11.5027,11.5171,11.5159,11.5429,11.5758,11.5564,11.5207,11.5141,11.5595,11.6113,11.689,11.924,12.1387,11.2513,11.2513,11.2513,11.2513,11.2513,11.2513,11.2513,11.2513,11.2513,11.2513,11.2513,11.2513,11.2513,11.2513,11.2513,11.2513,11.2513,11.2513,11.2513,11.2513,11.2513,11.2513,11.2513,11.2513,11.2513,11.2513,11.2513,11.2513,11.2513,11.2513,11.2513,11.2513,11.2513,11.2513,11.2513,11.2513,11.2513,11.2513,11.2513,11.2513,11.2513,11.2513,11.2513,11.2513,11.2513,11.2513,11.2513,11.2513,11.2513,11.2513,11.255,11.2399,11.2161,11.1636,11.134,11.1033,11.066,10.9951,10.9314,10.9079,10.8711,10.804,10.7839,10.7437,10.7236,10.737,10.8367,10.829,10.8991,10.986,11.076,11.1273,11.2123,11.326,11.4143,11.5812,11.8738,11.9063,11.9613,12.0628,12.1254,12.134,12.0966,12.0914,12.0599,12.0191,11.9831,11.9333,11.8859,11.8582,11.8172,11.7755,11.7453,11.7147,11.6921,11.6702,11.5697,11.5561,11.5164,11.4654,11.5204,11.572,11.5453,11.4988,11.5352,11.5697,11.5856,11.5822,11.5564,11.566,11.623,11.6946,11.8043,11.9887,12.1897,11.2513,11.2513,11.2513,11.2513,11.2513,11.2513,11.2513,11.2513,11.2513,11.2513,11.2513,11.2513,11.2513,11.2513,11.2513,11.2513,11.2513,11.2513,11.2513,11.2513,11.2513,11.2513,11.2513,11.2513,11.2513,11.2513,11.2513,11.2513,11.2513,11.2513,11.2513,11.2513,11.2513,11.2513,11.2513,11.2513,11.2513,11.2513,11.2513,11.2513,11.2513,11.2513,11.2513,11.2513,11.2513,11.2513,11.2513,11.2513,11.2513,11.2513,11.2654,11.2345,11.1502,11.1106,11.0474,10.9728,10.9318,10.8644,10.7772,10.7537,10.7006,10.6063,10.6264,10.5995,10.6118,10.6454,10.7561,10.8782,10.9351,10.9952,11.0949,11.1797,11.1857,11.2331,11.3583,11.594,11.889,11.9437,11.9617,12.1398,12.1754,12.1591,12.1289,12.1136,12.1017,12.0599,12.0245,11.9831,11.9389,11.903,11.8547,11.8137,11.7755,11.7453,11.7147,11.6928,11.6736,11.6599,11.6258,11.565,11.5998,11.6413,11.5675,11.504,11.5841,11.6048,11.6176,11.6142,11.6142,11.6044,11.6543,11.7125,11.8521,12.0191,12.2202,11.2513,11.2513,11.2513,11.2513,11.2513,11.2513,11.2513,11.2513,11.2513,11.2513,11.2513,11.2513,11.2513,11.2513,11.2513,11.2513,11.2513,11.2513,11.2513,11.2513,11.2513,11.2513,11.2513,11.2513,11.2513,11.2513,11.2513,11.2513,11.2513,11.2513,11.2513,11.2513,11.2513,11.2513,11.2513,11.2513,11.2513,11.2513,11.2513,11.2513,11.2513,11.2513,11.2513,11.2513,11.2513,11.2513,11.2513,11.2513,11.2513,11.2616,11.2865,11.2589,11.1505,11.0441,10.9403,10.8123,10.6843,10.6403,10.6197,10.6297,10.6163,10.5995,10.5962,10.6085,10.653,10.7561,10.8891,11.0349,11.085,11.113,11.1656,11.2996,11.3192,11.1668,11.3591,11.5866,11.846,11.9479,12.0299,12.1716,12.218,12.1937,12.1606,12.1556,12.134,12.1017,12.0774,12.0352,11.994,11.959,11.8973,11.8489,11.8078,11.766,11.727,11.7051,11.677,11.6667,11.6565,11.6395,11.6571,11.6674,11.627,11.6242,11.6492,11.652,11.652,11.6457,11.6395,11.7003,11.7454,11.7454,11.8605,12.0388,12.2068,11.2513,11.2513,11.2513,11.2513,11.2513,11.2513,11.2513,11.2513,11.2513,11.2513,11.2513,11.2513,11.2513,11.2513,11.2513,11.2513,11.2513,11.2513,11.2513,11.2513,11.2513,11.2513,11.2513,11.2513,11.2513,11.2513,11.2513,11.2513,11.2513,11.2513,11.2513,11.2513,11.2513,11.2513,11.2513,11.2513,11.2513,11.2513,11.2513,11.2513,11.2513,11.2513,11.2513,11.2513,11.2513,11.2513,11.2513,11.2513,11.2654,11.2898,11.3038,11.2604,11.1579,11.0426,10.9214,10.7818,10.6719,10.5962,10.5962,10.5962,10.5962,10.6023,10.6146,10.6362,10.6753,10.8108,10.9757,11.1149,11.1693,11.2402,11.3697,11.4477,11.346,11.1967,11.5018,11.6747,11.6087,11.7787,11.9654,12.0898,12.1822,12.2121,12.195,12.1804,12.1541,12.1223,12.1017,12.0669,12.0511,12.0245,11.9756,11.9165,11.8629,11.8078,11.7574,11.7147,11.6866,11.6866,11.6928,11.6928,11.6866,11.6804,11.6804,11.6742,11.6583,11.6549,11.6832,11.677,11.7133,11.8363,11.9291,11.9476,11.9964,12.1428,12.2121,11.2513,11.2513,11.2513,11.2513,11.2513,11.2513,11.2513,11.2513,11.2513,11.2513,11.2513,11.2513,11.2513,11.2513,11.2513,11.2513,11.2513,11.2513,11.2513,11.2513,11.2513,11.2583,11.2725,11.2725,11.2758,11.2725,11.2583,11.2513,11.2513,11.2513,11.2513,11.2513,11.2513,11.2513,11.2513,11.2513,11.2513,11.2513,11.2513,11.2513,11.2513,11.2513,11.2513,11.2513,11.2513,11.2832,11.3254,11.3702,11.4108,11.4477,11.4543,11.3917,11.2279,11.0785,10.9182,10.7779,10.6589,10.5962,10.5962,10.5962,10.5962,10.6023,10.6301,10.6544,10.6833,10.835,11.0017,11.1605,11.2069,11.2866,11.4705,11.4493,11.4348,11.4077,11.6394,11.6995,11.5395,11.6537,11.8337,11.9708,12.0586,12.1214,12.1335,12.1298,12.1198,12.1314,12.1289,12.1069,12.0914,12.0652,12.0352,11.9666,11.9312,11.8721,11.8053,11.7453,11.7331,11.7331,11.7297,11.7297,11.699,11.6804,11.6804,11.6742,11.6583,11.6645,11.6956,11.7289,11.7856,11.8799,12.0212,12.1142,12.1772,12.2323,12.2814,11.2513,11.2513,11.2513,11.2513,11.2513,11.2513,11.2513,11.2513,11.2513,11.2513,11.2513,11.2513,11.2513,11.2513,11.2513,11.2513,11.2513,11.2513,11.2513,11.2583,11.2583,11.2725,11.3005,11.3108,11.3108,11.3038,11.2758,11.2583,11.2654,11.2654,11.2654,11.2616,11.2654,11.2583,11.2616,11.2583,11.2513,11.2513,11.2513,11.2513,11.2513,11.2513,11.2513,11.2513,11.2832,11.3532,11.4837,11.6088,11.6805,11.717,11.7471,11.6551,11.3971,11.13,10.9146,10.7827,10.6623,10.6023,10.5962,10.6063,10.6163,10.6118,10.6429,10.6833,10.7166,10.8548,11.0174,11.1403,11.1988,11.278,11.3684,11.4428,11.5318,11.6853,11.6294,11.6069,11.5243,11.579,11.6971,11.82,11.8737,11.89,11.9793,12.0297,12.0788,12.1448,12.1641,12.1441,12.112,12.093,12.0511,11.9885,11.95,11.9199,11.8431,11.7849,11.7849,11.7815,11.7755,11.7634,11.7297,11.7051,11.7113,11.6804,11.6645,11.6645,11.699,11.8093,11.864,11.9601,12.0821,12.2049,12.25,12.286,12.3419,11.2513,11.2513,11.2513,11.2513,11.2513,11.2513,11.2513,11.2513,11.2513,11.2513,11.2513,11.2513,11.2513,11.2513,11.2513,11.2513,11.2513,11.2513,11.2513,11.2583,11.2795,11.3071,11.3178,11.3386,11.3386,11.3178,11.3248,11.3317,11.3317,11.3317,11.335,11.3317,11.3038,11.2935,11.2898,11.2654,11.2513,11.2513,11.2513,11.2583,11.2513,11.2513,11.2513,11.2832,11.451,11.5933,11.6552,11.7015,11.7471,11.7733,11.7944,11.7185,11.5235,11.1816,10.9194,10.7783,10.6623,10.5962,10.6063,10.6901,10.703,10.6436,10.744,10.7876,10.7326,10.8868,10.9935,11.0694,11.1556,11.3124,11.4139,11.3418,11.3267,11.472,11.4941,11.473,11.4414,11.4689,11.557,11.6821,11.7732,11.8969,12.0238,12.0217,12.0738,12.2062,12.1888,12.1655,12.1441,12.1289,12.093,12.0564,12.0102,11.9556,11.9165,11.8916,11.8916,11.8547,11.8466,11.8113,11.7815,11.7634,11.7392,11.699,11.6804,11.6804,11.7471,11.8662,11.971,12.0821,12.1856,12.2722,12.3033,12.3375,12.3464,11.2513,11.2513,11.2513,11.2513,11.2513,11.2513,11.2513,11.2513,11.2513,11.2513,11.2513,11.2513,11.2513,11.2513,11.2513,11.2616,11.2725,11.2725,11.2828,11.2968,11.3248,11.3386,11.3525,11.3764,11.3764,11.3627,11.3833,11.3833,11.3764,11.3696,11.3696,11.3627,11.335,11.3108,11.3038,11.2725,11.2513,11.2583,11.3079,11.3254,11.3323,11.377,11.4108,11.441,11.6108,11.715,11.737,11.7304,11.7449,11.7812,11.7812,11.6969,11.5074,11.2507,11.0094,10.7955,10.6589,10.5962,10.6063,10.6929,10.7181,10.6712,10.7749,10.7979,10.7706,10.8475,10.9263,10.9365,11.0218,11.1653,11.3,11.2599,11.2242,11.3772,11.4095,11.4131,11.4059,11.41,11.4461,11.5431,11.6322,11.7566,11.8445,11.8837,11.9429,12.1107,12.1287,12.1332,12.1491,12.1541,12.1375,12.1069,12.0617,12.021,12.0048,11.994,11.9756,11.9291,11.8951,11.8663,11.8053,11.7755,11.7453,11.699,11.6804,11.6928,11.7771,11.8891,11.9818,12.1026,12.25,12.325,12.3632,12.3544,12.3544,11.2513,11.2513,11.2513,11.2513,11.2513,11.2513,11.2513,11.2513,11.2513,11.2513,11.2513,11.2513,11.2583,11.2583,11.2654,11.2828,11.3108,11.3178,11.3317,11.3627,11.3696,11.3934,11.4275,11.4342,11.4275,11.4207,11.4275,11.4106,11.3764,11.3764,11.3764,11.3764,11.3456,11.3178,11.3178,11.2898,11.2654,11.2939,11.394,11.4543,11.4807,11.5924,11.6672,11.7029,11.7117,11.7131,11.7364,11.7207,11.708,11.7292,11.7222,11.5953,11.3462,11.3001,11.1188,10.8012,10.6581,10.6023,10.6085,10.6598,10.6746,10.6698,10.7285,10.74,10.7153,10.7487,10.7704,10.7772,10.7898,10.8628,11.0368,11.0953,11.2084,11.3201,11.3622,11.363,11.3702,11.3558,11.3955,11.3987,11.4312,11.5096,11.5938,11.6004,11.7508,11.9321,12.0079,12.0394,12.1153,12.1541,12.1449,12.1269,12.1085,12.0914,12.0914,12.0599,12.0191,11.9846,11.957,11.9256,11.8489,11.7755,11.7392,11.7147,11.6928,11.7262,11.8152,11.9116,12.0034,12.1228,12.2722,12.3464,12.3632,12.3632,12.3632,11.2513,11.2513,11.2513,11.2513,11.2513,11.2513,11.2513,11.2513,11.2513,11.2513,11.2513,11.2513,11.2687,11.2968,11.3248,11.3489,11.3558,11.3558,11.3627,11.3764,11.4003,11.4207,11.4342,11.4477,11.4477,11.4309,11.4477,11.441,11.4207,11.4343,11.4377,11.441,11.4106,11.4003,11.3901,11.3627,11.3768,11.4543,11.5003,11.5646,11.6429,11.663,11.6766,11.7057,11.7058,11.7129,11.7373,11.7341,11.6817,11.5804,11.5723,11.4034,11.043,11.0361,10.9322,10.6777,10.6478,10.6657,10.669,10.773,10.7951,10.7335,10.8302,10.8197,10.6533,10.6135,10.6192,10.6226,10.6192,10.6291,10.6748,10.7467,10.8478,10.9511,11.0351,11.0742,11.0886,11.1825,11.2439,11.2511,11.3233,11.4276,11.4627,11.5332,11.6501,11.8342,11.882,11.9122,12.0215,12.0549,12.0835,12.1463,12.1305,12.1152,12.1172,12.0966,12.0652,12.0333,12.0067,11.9651,11.8813,11.8489,11.8221,11.6912,11.6887,11.7289,11.8582,11.9561,12.0441,12.1661,12.2768,12.3588,12.3632,12.3632,12.3632,11.2725,11.2968,11.2687,11.2513,11.2583,11.2758,11.2654,11.2583,11.2513,11.2513,11.2485,11.1612,11.1324,11.1529,11.1734,11.2336,11.297,11.297,11.337,11.4107,11.4343,11.441,11.4511,11.4578,11.4578,11.4511,11.4611,11.4611,11.4511,11.4578,11.4711,11.4645,11.4444,11.4578,11.4875,11.3974,11.4096,11.5294,11.5205,11.5871,11.716,11.7114,11.7032,11.7104,11.6534,11.6307,11.6365,11.5932,11.4896,11.3298,11.2857,11.1284,10.8306,10.7882,10.7238,10.6157,10.6329,10.6597,10.675,10.7613,10.7894,10.7367,10.8299,10.828,10.6647,10.6499,10.6226,10.577,10.5954,10.612,10.6095,10.7103,10.7875,10.792,10.8823,10.9514,10.9478,11.035,11.0895,11.0967,11.184,11.2386,11.2449,11.2944,11.4302,11.6148,11.7099,11.7859,11.9061,11.9256,11.975,12.068,12.0816,12.0618,12.0504,12.0676,12.0826,12.0582,12.0089,11.9313,11.8231,11.7743,11.7182,11.6807,11.6415,11.6911,11.8859,12.0176,12.0892,12.2348,12.333,12.3632,12.3632,12.3632,12.3632,11.2576,11.3127,11.244,11.2292,11.223,11.2543,11.244,11.216,11.2259,11.2259,11.1934,11.0173,10.9379,10.9279,10.9478,11.0375,11.1772,11.1806,11.2672,11.4041,11.4309,11.4376,11.4343,11.4476,11.4577,11.4711,11.4711,11.4645,11.4645,11.4543,11.4476,11.4443,11.421,11.457,11.5361,11.398,11.3884,11.5099,11.4756,11.5299,11.6888,11.7064,11.7028,11.7064,11.5636,11.4958,11.4968,11.3646,11.2108,11.0382,10.9552,10.8311,10.6824,10.5899,10.5508,10.5743,10.5923,10.6146,10.6544,10.6776,10.7073,10.7265,10.7667,10.7715,10.7533,10.7533,10.6954,10.5736,10.6239,10.6649,10.6929,10.8266,10.8684,10.7704,10.8328,10.9147,10.9119,10.9308,10.9422,10.9422,10.997,10.9936,11.0075,11.0182,11.097,11.3216,11.4533,11.5883,11.7177,11.7574,11.8191,11.9005,11.8989,11.8671,11.8953,11.9801,11.9603,11.9696,11.8836,11.7873,11.7008,11.5969,11.5093,11.5732,11.5687,11.6536,11.8821,12.0346,12.056,12.2122,12.2995,12.3415,12.3632,12.3632,12.3632,11.0142,11.0209,11.0042,10.9975,11.0008,11.0075,11.0075,11.0008,11.0008,11.0008,11.0008,10.981,10.9707,10.9707,11.0,11.0361,11.0727,11.0761,11.0993,11.1359,11.1359,11.1996,11.2968,11.3069,11.3638,11.4611,11.4711,11.4711,11.4577,11.3571,11.3035,11.3,11.2786,11.2769,11.3066,11.3361,11.4218,11.5329,11.3968,11.3462,11.4075,11.4075,11.4164,11.4375,11.4052,11.3837,11.3765,11.2339,11.0725,10.9136,10.7938,10.6201,10.4038,10.4766,10.5101,10.4792,10.5689,10.651,10.6776,10.7039,10.724,10.7299,10.7357,10.6939,10.5986,10.5953,10.5363,10.3934,10.4959,10.5406,10.4682,10.5419,10.6191,10.6668,10.6478,10.6857,10.7604,10.7792,10.7866,10.8158,10.921,10.9937,10.9936,10.9936,11.0042,11.0647,11.1789,11.3216,11.4558,11.5804,11.5869,11.5244,11.3837,11.3879,11.5712,11.6214,11.6092,11.5559,11.606,11.5936,11.5452,11.5099,11.4919,11.4517,11.4426,11.5477,11.6942,11.7455,11.8742,12.128,12.2043,12.2332,12.3343,12.3632,12.3632,10.9444,10.9707,10.9411,10.9411,10.9772,10.9345,10.9312,10.918,10.8178,10.7738,10.7771,10.7963,10.8026,10.8026,10.825,10.8711,10.9348,10.9348,10.9716,11.0387,11.042,11.0823,11.1527,11.1594,11.1996,11.27,11.2767,11.2733,11.2666,11.1962,11.1594,11.1591,11.142,11.1931,11.2882,11.3385,11.412,11.5331,11.4581,11.4243,11.4375,11.4375,11.4454,11.4548,11.3866,11.3184,11.2394,11.1616,11.0151,10.8027,10.6259,10.4616,10.3244,10.2902,10.2813,10.2939,10.3116,10.3301,10.3444,10.3668,10.4169,10.502,10.5203,10.4863,10.3979,10.4082,10.3821,10.3241,10.3931,10.416,10.3189,10.352,10.4172,10.5193,10.5392,10.6065,10.732,10.7533,10.7468,10.7684,10.7935,10.8044,10.7974,10.7975,10.8048,10.8702,10.9242,11.0321,11.168,11.2579,11.2756,11.1877,11.1376,11.1722,11.2807,11.3395,11.3618,11.3243,11.3278,11.2939,11.2494,11.2258,11.2386,11.2706,11.3173,11.4314,11.6588,11.6698,11.7934,12.0388,12.1321,12.1935,12.3163,12.3632,12.3379,10.9138,10.972,10.9074,10.9138,10.972,10.9074,10.8779,10.858,10.6785,10.5962,10.5962,10.5962,10.5962,10.5962,10.5962,10.6632,10.7772,10.7772,10.851,10.975,10.9783,10.9884,11.0085,11.0085,11.0085,11.0119,11.032,11.0286,11.0085,11.0085,11.0213,11.0272,11.0104,11.1157,11.3281,11.3381,11.3857,11.4851,11.5263,11.5517,11.5525,11.5561,11.5676,11.5819,11.4425,11.2873,11.1472,11.1206,11.005,10.784,10.5319,10.4054,10.4136,10.1909,10.0768,10.1453,10.0422,9.9718,9.9751,9.9914,10.0738,10.2238,10.2566,10.2453,10.1832,10.2024,10.2442,10.2976,10.3257,10.3213,10.2864,10.2776,10.3248,10.414,10.4906,10.5958,10.7513,10.7384,10.7211,10.7421,10.6498,10.5842,10.5889,10.5782,10.6224,10.6993,10.7431,10.7831,10.9062,10.917,10.9022,10.9194,10.9862,11.0266,11.0325,11.1207,11.1256,11.1459,11.0272,10.9607,10.9233,10.9221,10.9479,11.0356,11.1034,11.2529,11.4876,11.5622,11.6507,11.8877,11.9972,12.0773,12.2303,12.2289,12.1892,10.6609,10.6766,10.6575,10.6642,10.6766,10.6609,10.6547,10.6513,0.0,0.0,0.0,10.5962,10.5962,10.5962,10.5962,10.6096,10.6331,10.6331,10.6498,10.6733,10.6733,10.737,10.8476,10.851,10.8543,10.8577,10.9817,10.975,10.8543,10.8447,10.8942,10.9711,10.8742,10.935,11.1451,11.2615,11.3352,11.3809,11.3895,11.3987,11.4084,11.4084,11.4816,11.6286,11.4807,11.3869,11.3509,11.1132,11.0115,11.0774,10.7366,10.5968,10.7239,10.5091,10.3272,10.2394,10.1826,10.1576,10.1576,10.1634,10.1793,10.2086,10.2178,10.1132,9.8614,10.0004,10.1081,10.1157,10.2533,10.3333,10.3311,10.3242,10.3689,10.4684,10.4619,10.499,10.6238,10.6126,10.6076,10.6063,10.5984,10.5762,10.5729,10.5696,10.5775,10.5894,10.6007,10.6374,10.7395,10.7067,10.6814,10.7358,10.6917,10.6437,10.7101,10.7534,10.706,10.7235,10.7625,10.7813,10.7487,10.7303,10.7351,10.7657,10.7585,10.8315,10.9061,11.0323,11.1799,11.4546,11.6052,11.7536,11.9245,11.8685,11.7663,10.5962,10.5962,10.5962,10.5962,0.0,10.5962,10.5124,10.3682,10.3656,10.3716,10.3622,10.3716,10.3716,10.3682,10.3716,10.3682,10.3716,10.3682,10.3716,10.3689,10.4487,10.5258,10.5962,10.6699,10.7035,10.7035,10.7806,10.7772,10.7068,10.7001,10.7371,10.8149,10.7977,10.8764,11.0579,11.1779,11.2529,11.2656,11.4168,11.5038,11.5049,11.5127,11.5168,11.5178,11.3738,0.0,0.0,0.0,0.0,0.0,0.0,0.0,0.0,0.0,0.0,10.0231,9.9376,9.886,9.8894,9.8894,9.8838,9.8726,9.9344,9.8805,9.6616,9.8181,9.9443,9.9802,10.061,10.1341,10.1745,10.1394,10.1984,10.3899,10.4245,10.4985,10.653,10.6812,10.6802,10.6897,10.6237,10.5762,10.5762,10.5762,10.5729,10.5629,10.5665,10.5887,10.6402,10.6035,10.5746,10.6269,10.5439,10.4965,10.5421,10.5297,10.5135,10.4777,10.522,10.5432,10.5073,10.549,10.5886,10.5729,10.6249,10.6846,10.727,10.7866,10.9164,11.1408,11.2661,11.3615,11.4444,11.44,11.4023,10.5124,10.5124,10.5124,10.5124,10.5124,10.5124,10.375,10.1445,10.1411,10.1411,10.1411,10.1411,10.1411,10.1411,10.1411,10.1411,10.1411,10.1411,10.1411,10.1478,10.2777,10.3347,10.3448,10.4588,10.499,10.4722,10.5051,10.5051,10.4749,10.5111,10.5548,10.6083,10.6897,10.829,11.0073,0.0,0.0,0.0,11.3847,11.5111,11.5151,11.5151,11.4682,11.3787,11.2268,0.0,10.7678,10.7134,10.6754,10.6101,10.3303,0.0,0.0,0.0,0.0,0.0,0.0,0.0,0.0,0.0,0.0,0.0,9.5175,9.5525,9.4596,9.6112,9.7421,9.8122,9.8361,9.8827,9.9713,9.9272,9.9993,10.2417,10.3356,10.4605,10.6479,10.7093,10.7277,10.7191,10.6346,10.5653,10.5361,10.558,10.5726,10.5762,10.5762,10.5762,10.5799,10.5799,10.5696,10.5598,10.5361,10.4968,10.4526,10.4523,10.4404,10.3841,10.3682,10.3695,10.3823,10.4599,10.4976,10.5195,10.5965,10.6846,10.7144,10.7411,10.8327,10.9973,11.0425,11.0183,10.9705,11.0312,11.09,10.2014,10.2014,10.1981,10.2014,10.2014,10.2014,10.178,10.1411,10.1411,10.1411,10.1411,10.1411,10.1411,10.1411,10.1411,10.1411,10.1411,10.1411,10.1411,10.1445,10.1705,10.1713,10.178,10.1914,10.1403,10.0297,10.1796,10.1812,10.06,10.211,10.3403,10.4437,10.4652,10.6352,10.9561,10.9745,10.9754,10.9767,11.0128,11.0386,11.0468,11.0506,11.1162,11.2438,11.106,11.0045,10.9609,10.812,10.7827,10.883,10.4344,10.2963,10.5674,10.1399,9.8223,0.0,9.6395,0.0,0.0,0.0,0.0,0.0,0.0,0.0,0.0,9.3143,9.4489,9.548,9.6345,9.7132,9.7686,9.8467,9.9271,10.0074,10.1077,10.2156,10.3444,10.4557,10.489,10.4087,10.5032,10.5178,10.4116,10.4886,10.5762,10.5762,10.5795,10.5795,10.5795,10.5795,10.5759,10.5693,10.5598,10.5323,10.4968,10.4713,10.4528,10.4298,10.3916,10.4027,10.503,10.524,10.5542,10.6239,10.6526,10.6752,10.6788,10.7787,10.8868,10.9688,10.9823,10.8969,10.6913,10.7192,10.8074,10.1411,10.1411,10.1411,10.0038,9.7793,9.7793,9.7324,9.6643,9.6587,9.6587,9.6587,9.662,9.6587,9.6587,9.6587,9.6676,9.6687,9.7424,9.7793,9.7893,9.9559,10.0297,10.033,10.1344,10.1494,10.0889,10.1817,10.1898,10.129,10.2012,10.2769,10.3421,10.4592,10.5929,10.7261,10.6469,10.7137,10.9406,10.8539,10.8543,10.9603,10.9788,10.9355,10.8448,10.8521,10.7795,10.6088,10.609,10.6126,10.6136,10.3441,10.1852,10.1709,9.9163,9.691,0.0,0.0,0.0,0.0,0.0,0.0,0.0,0.0,0.0,0.0,0.0,9.0065,9.1787,9.406,9.5335,9.529,9.6983,9.8408,9.9194,10.1024,10.2539,10.3351,10.4569,10.5166,10.4777,10.5288,10.547,10.4813,10.5288,10.5762,10.5762,10.5853,10.6045,10.6202,10.627,10.6202,10.5977,10.5853,10.5626,10.5323,10.5004,10.4714,10.4528,10.4262,10.4131,10.4491,10.4388,10.4351,10.4682,10.5268,10.5608,10.5588,10.6683,10.774,10.7996,10.7522,10.6426,10.5002,10.4931,10.5202,9.9569,9.9928,9.9675,9.7392,9.3949,9.3949,9.3023,9.1715,9.1629,9.1662,9.1629,9.1629,9.1629,9.1629,9.1735,9.1936,9.2305,9.3378,9.4028,9.4476,9.6687,9.7783,9.7873,9.9265,10.0175,10.0535,10.048,10.0727,10.146,10.1211,10.1455,10.2274,10.3904,10.4653,10.4457,10.3776,10.4908,10.7942,10.6946,10.692,10.7864,10.7831,10.6849,10.4813,10.5902,10.5574,10.365,10.4667,10.4534,10.3013,10.1457,9.9338,9.6652,9.505,0.0,0.0,0.0,0.0,0.0,0.0,0.0,0.0,0.0,7.9941,8.3355,0.0,8.5448,0.0,9.083,9.2227,9.1838,9.4518,0.0,0.0,10.0014,10.1977,10.3127,10.4136,10.4838,10.5182,10.5543,10.5616,10.5215,10.5507,10.5682,10.5442,10.5878,10.6379,10.6661,10.6719,10.6632,10.6319,10.6103,10.5918,10.5729,10.5393,10.5004,10.4714,10.4528,10.4406,10.4378,10.421,10.4073,10.4286,10.486,10.5233,10.532,10.6011,10.6718,10.6729,10.593,10.5013,10.4498,10.3915,10.3448,9.4175,9.5302,9.4481,9.307,9.1311,9.1311,9.0247,8.8647,8.858,8.858,8.8613,8.858,8.858,8.858,8.8836,0.0,9.0922,9.1057,9.1759,9.2922,9.319,9.3365,9.358,9.3801,9.4669,9.6254,9.5149,9.5966,9.8567,9.7641,9.8227,10.0455,10.1134,10.143,10.1557,10.3111,10.3869,10.3767,10.4669,10.4462,10.3014,10.1983,10.2105,10.3467,10.365,10.4306,10.5441,10.5525,10.4314,10.1703,9.8225,9.5118,9.2506,0.0,0.0,0.0,0.0,0.0,0.0,0.0,0.0,0.0,0.0,0.0,0.0,0.0,0.0,8.4475,8.5859,0.0,8.6729,9.0678,0.0,0.0,0.0,9.8278,10.1367,10.1741,10.2256,10.3475,0.0,0.0,10.3787,10.485,10.5406,10.441,10.5667,10.669,10.6719,10.6711,10.6719,10.6653,10.6349,10.6165,10.6035,10.5759,10.5427,10.5004,10.4714,10.4996,10.5956,10.5889,10.6244,10.7028,10.7526,10.7263,10.7112,10.6567,10.6971,10.6915,10.6845,10.6375,10.4771,10.4286,10.4011,9.1954,8.9999,8.9628,8.9104,8.8498,8.8532,8.7472,8.5812,8.5812,8.5308,8.4502,8.4502,8.4046,8.3382,8.442,0.0,0.0,0.0,8.919,9.0539,9.0505,9.0454,9.0402,9.0556,9.1434,9.2938,9.3622,9.5051,9.709,9.7727,9.7586,9.6778,0.0,9.9514,10.11,10.2417,10.3297,10.3812,10.3931,10.4096,10.4308,10.2845,10.2024,10.193,10.3791,10.4667,10.4371,10.4273,10.34,10.1601,9.7055,9.3792,0.0,0.0,0.0,0.0,0.0,0.0,0.0,0.0,0.0,0.0,0.0,7.1922,7.3897,0.0,0.0,0.0,8.052,8.2005,8.2985,8.5952,0.0,0.0,0.0,0.0,0.0,0.0,0.0,10.0298,10.1978,10.3226,10.3805,10.3615,10.369,10.4447,10.5129,10.5627,10.5778,0.0,10.7231,10.6957,10.6817,10.658,10.6221,10.6202,10.6018,10.5391,10.5076,10.5039,10.5357,10.5048,10.4908,10.5344,10.5867,10.6249,10.6162,10.3697,10.1774,10.1894,10.2483,10.2858,10.2162,10.2721,10.339,8.8437,0.0,0.0,0.0,0.0,8.446,8.344,8.171,8.171,8.1171,8.0194,8.0194,0.0,0.0,0.0,0.0,0.0,0.0,8.5286,8.6994,8.6945,8.7117,8.7423,8.7636,8.8462,8.9848,9.1517,9.2975,9.4354,9.4931,9.4492,9.2995,0.0,0.0,0.0,0.0,10.2132,10.3091,10.3371,10.3945,10.4804,10.3707,10.2385,10.0945,10.3609,10.4558,10.3459,10.3422,10.2196,9.9512,9.5485,0.0,0.0,0.0,0.0,0.0,0.0,0.0,0.0,0.0,0.0,0.0,0.0,0.0,0.0,0.0,0.0,0.0,0.0,0.0,7.8079,8.093,8.3121,0.0,0.0,0.0,0.0,0.0,0.0,0.0,0.0,0.0,10.1578,10.1836,10.237,0.0,0.0,10.4759,10.4476,10.5936,10.6915,10.6638,10.693,0.0,10.6514,10.6492,10.6356,10.5828,10.5391,10.504,10.4787,10.3946,10.3315,10.3159,10.3333,10.3544,10.3331,10.037,9.8055,9.7909,9.8891,9.9657,9.9367,10.0709,10.2,0.0,0.0,0.0,0.0,0.0,0.0,0.0,0.0,7.596,7.5892,0.0,7.5791,0.0,0.0,0.0,0.0,7.8588,7.8398,0.0,0.0,8.2049,8.2788,8.442,8.4576,8.5482,8.6985,8.7564,8.8524,8.9524,8.7461,0.0,0.0,0.0,0.0,0.0,0.0,9.9939,10.072,10.2711,10.3553,10.3203,10.3325,10.2587,10.1091,10.2619,10.3495,10.3422,10.3313,10.05,9.4479,9.2832,0.0,0.0,0.0,0.0,0.0,0.0,0.0,0.0,0.0,0.0,0.0,0.0,0.0,0.0,0.0,0.0,0.0,0.0,0.0,0.0,7.5591,0.0,0.0,0.0,0.0,0.0,0.0,0.0,0.0,0.0,9.8416,9.6218,9.9449,10.1781,10.0642,0.0,0.0,0.0,0.0,10.5435,10.5411,10.6444,10.7231,10.7168,10.663,10.6086,10.6092,0.0,0.0,10.5179,10.334,10.1961,10.1926,10.0544,9.9127,9.9163,9.7654,9.6471,9.6363,9.7431,9.8027,9.6802,9.8251,9.9846,0.0,0.0,0.0,0.0,0.0,0.0,0.0,0.0,0.0,7.245,7.1568,7.1534,0.0,0.0,0.0,0.0,0.0,0.0,0.0,0.0,7.8093,7.8277,7.8915,7.8862,7.9596,8.1085,8.2383,8.1867,0.0,0.0,0.0,0.0,0.0,0.0,0.0,0.0,9.7763,10.099,10.1563,10.2755,10.4648,10.3901,10.3573,10.4047,10.3646,10.3482,10.3671,10.0529,9.7703,0.0,0.0,0.0,0.0,0.0,0.0,0.0,0.0,0.0,0.0,0.0,0.0,0.0,0.0,0.0,0.0,0.0,0.0,0.0,0.0,0.0,0.0,0.0,7.278,0.0,0.0,0.0,0.0,0.0,0.0,0.0,0.0,0.0,9.492,9.5515,9.6956,10.0002,10.1317,10.1753,10.1196,0.0,0.0,0.0,0.0,0.0,0.0,0.0,10.5368,10.491,10.5829,10.6349,10.5751,10.3696,10.2111,10.2075,0.0,0.0,9.5055,9.4767,9.4407,9.2476,9.2332,9.2686,9.3223,9.3291,9.3569,0.0,0.0,0.0,0.0,0.0,0.0,0.0,0.0,0.0,6.8129,6.7281,0.0,0.0,0.0,0.0,0.0,0.0,0.0,0.0,0.0,0.0,0.0,7.4585,7.5129,0.0,0.0,0.0,0.0,0.0,0.0,0.0,0.0,0.0,0.0,0.0,0.0,9.4739,9.8665,10.0051,10.1955,10.4513,10.4346,10.4667,10.5689,10.4262,10.355,10.3757,0.0,0.0,0.0,0.0,0.0,0.0,0.0,0.0,0.0,0.0,0.0,0.0,0.0,0.0,0.0,0.0,0.0,0.0,0.0,0.0,0.0,0.0,0.0,0.0,0.0,6.7481,0.0,0.0,0.0,0.0,0.0,0.0,0.0,0.0,0.0,0.0,0.0,9.3152,9.7467,9.8872,9.9496,9.945,10.0894,10.2004,0.0,0.0,0.0,0.0,0.0,0.0,0.0,0.0,0.0,0.0,0.0,0.0,0.0,0.0,9.3192,9.0113,8.9969,8.9754,8.7743,0.0,0.0,0.0,0.0,0.0,0.0,0.0,0.0,0.0,0.0,0.0,0.0,0.0,0.0,0.0,6.2787,0.0,0.0,6.2719,0.0,0.0,0.0,0.0,0.0,0.0,0.0,0.0,0.0,0.0,0.0,0.0,0.0,0.0,0.0,0.0,0.0,0.0,0.0,0.0,0.0,0.0,9.0944,9.3674,9.8213,10.1118,10.2431,10.4511,10.5543,10.554,10.4152,10.3436,10.3531,0.0,0.0,0.0,0.0,0.0,0.0,0.0,0.0,0.0,0.0,0.0,0.0,0.0,0.0,0.0,0.0,0.0,0.0,0.0,0.0,0.0,0.0,0.0,0.0,0.0,0.0,6.4805,6.7705,6.9718,0.0,0.0,0.0,0.0,0.0,0.0,0.0,0.0,0.0,9.2856,9.5778,9.7801,9.7727,9.9414,10.072,10.0645,10.3307,10.5334,10.5051,10.6085,10.6407,0.0,0.0,0.0,0.0,0.0,0.0,0.0,0.0,0.0,0.0,0.0,0.0,0.0,0.0,0.0,0.0,0.0,0.0,0.0,0.0,0.0,0.0,0.0,0.0,0.0,0.0,0.0,0.0,0.0,0.0,0.0,0.0,0.0,0.0,0.0,0.0,0.0,0.0,0.0,0.0,0.0,0.0,0.0,0.0,0.0,0.0,0.0,0.0,0.0,0.0,0.0,0.0,0.0,0.0,8.8583,9.2036,9.5563,9.853,10.0768,10.1446,10.2072,10.2572,10.2164,10.1031,0.0,0.0,0.0,0.0,0.0,0.0,0.0,0.0,0.0,0.0,0.0,0.0,0.0,0.0,0.0,0.0,0.0,0.0,0.0,0.0,0.0,0.0,0.0,0.0,0.0,0.0,0.0,0.0,6.4242,6.5815,6.8257,0.0,0.0,0.0,0.0,0.0,0.0,0.0,0.0,0.0,0.0,9.3761,9.6011,9.8819,10.0281,9.908,10.0661,10.1199,9.884,10.0625,10.1435,9.8675,0.0,0.0,0.0,0.0,0.0,0.0,0.0,0.0,0.0,0.0,0.0,0.0,0.0,0.0,0.0,0.0,0.0,0.0,0.0,0.0,0.0,0.0,0.0,0.0,0.0,0.0,0.0,0.0,0.0,0.0,0.0,0.0,0.0,0.0,0.0,0.0,0.0,0.0,0.0,0.0,0.0,0.0,0.0,0.0,0.0,0.0,0.0,0.0,0.0,0.0,0.0,0.0,0.0,8.6257,8.9214,9.3133,9.6225,9.8434,9.9685,10.0478,10.0986,10.0701,9.9188,0.0,0.0,0.0,0.0,0.0,0.0,0.0,0.0,0.0,0.0,0.0,0.0,0.0,0.0,0.0,0.0,0.0,0.0,0.0,0.0,0.0,0.0,0.0,0.0,0.0,0.0,0.0,0.0,6.089,6.2064,6.4784,0.0,0.0,0.0,0.0,0.0,0.0,0.0,0.0,0.0,0.0,9.1028,9.4305,9.713,0.0,0.0,9.9531,9.9622,9.6926,9.8612,9.9027,9.5251,9.6189,0.0,0.0,0.0,0.0,0.0,0.0,0.0,0.0,0.0,0.0,0.0,0.0,0.0,0.0,0.0,0.0,0.0,0.0,0.0,0.0,0.0,0.0,0.0,0.0,0.0,0.0,0.0,0.0,0.0,0.0,0.0,0.0,0.0,0.0,0.0,0.0,0.0,0.0,0.0,0.0,0.0,0.0,0.0,0.0,0.0,0.0,0.0,0.0,0.0,0.0,0.0,0.0,8.3851,8.5541,9.0595,9.4062,9.5741,9.8643,10.0142,10.0207,9.9439,9.7578,0.0,0.0,0.0,0.0,0.0,0.0,0.0,0.0,0.0,0.0,0.0,0.0,0.0,0.0,0.0,0.0,0.0,0.0,0.0,0.0,0.0,0.0,0.0,0.0,0.0,0.0,0.0,0.0,0.0,0.0,0.0,0.0,0.0,0.0,0.0,0.0,0.0,0.0,0.0,0.0,0.0,8.9127,9.2407,9.4669,9.6519,0.0,9.9335,9.9763,9.7945,9.862,9.7876,9.3293,0.0,0.0,0.0,0.0,0.0,0.0,0.0,0.0,0.0,0.0,0.0,0.0,0.0,0.0,0.0,0.0,0.0,0.0,0.0,0.0,0.0,0.0,0.0,0.0,0.0,0.0,0.0,0.0,0.0,0.0,0.0,0.0,0.0,0.0,0.0,0.0,0.0,0.0,0.0,0.0,0.0,0.0,0.0,0.0,0.0,0.0,0.0,0.0,0.0,0.0,0.0,0.0,0.0,0.0,8.2264,8.6993,9.0521,9.2649,9.5014,9.6644,9.7382,9.6489,0.0,0.0,0.0,0.0,0.0,0.0,0.0,0.0,0.0,0.0,0.0,0.0,0.0,0.0,0.0,0.0,0.0,0.0,0.0,0.0,0.0,0.0,0.0,0.0,0.0,0.0,0.0,5.4634,0.0,0.0,0.0,0.0,0.0,0.0,0.0,0.0,0.0,0.0,0.0,0.0,0.0,0.0,8.4225,8.7459,9.2648,9.5843,0.0,0.0,9.6069,9.3212,9.1577,8.9493,0.0,0.0,0.0,0.0,0.0,0.0,0.0,0.0,0.0,0.0,0.0,0.0,0.0,0.0,0.0,0.0,0.0,0.0,0.0,0.0,0.0,0.0,0.0,0.0,0.0,0.0,0.0,0.0,0.0,0.0,0.0,0.0,0.0,0.0,0.0,0.0,0.0,0.0,0.0,0.0,0.0,0.0,0.0,0.0,0.0,0.0,0.0,0.0,0.0,0.0,0.0,0.0,0.0,0.0,7.892,8.1068,8.4486,8.7578,9.0475,9.2164,9.3308,9.3974,9.316,9.1309,0.0,0.0,0.0,0.0,0.0,0.0,0.0,0.0,0.0,0.0,0.0,0.0,0.0,0.0,0.0,0.0,0.0,0.0,0.0,0.0,0.0,0.0,0.0,0.0,0.0,0.0,0.0,0.0,0.0,0.0,0.0,0.0,0.0,0.0,0.0,0.0,0.0,0.0,0.0,0.0,0.0,0.0,8.4707,8.8957,0.0,0.0,0.0,9.1757,8.9201,0.0,0.0,0.0,0.0,0.0,0.0,0.0,0.0,0.0,0.0,0.0,0.0,0.0,0.0,0.0,0.0,0.0,0.0,0.0,0.0,0.0,0.0,0.0,0.0,0.0,0.0,0.0,0.0,0.0,0.0,0.0,0.0,0.0,0.0,0.0,0.0,0.0,0.0,0.0,0.0,0.0,0.0,0.0,0.0,0.0,0.0,0.0,0.0,0.0,0.0,0.0,0.0,0.0,0.0,0.0,0.0,0.0,8.0505,8.2268,8.4995,8.8541,8.951,9.0143,9.0532,8.9642,8.8018,0.0,0.0,0.0,0.0,0.0,0.0,0.0,0.0,0.0,0.0,0.0,0.0,0.0,0.0,0.0,0.0,0.0,0.0,0.0,0.0,0.0,0.0,0.0,0.0,0.0,0.0,0.0,0.0,0.0,0.0,0.0,0.0,0.0,0.0,0.0,0.0,0.0,0.0,0.0,0.0,0.0,8.0602,8.257,8.459,8.6418,0.0,0.0,8.7316,8.5792,8.4917,0.0,0.0,0.0,0.0,0.0,0.0,0.0,0.0,0.0,0.0,0.0,0.0,0.0,0.0,0.0,0.0,0.0,0.0,0.0,0.0,0.0,0.0,0.0,0.0,0.0,0.0,0.0,0.0,0.0,0.0,0.0,0.0,0.0,0.0,0.0,0.0,0.0,0.0,0.0,0.0,0.0,0.0,0.0,0.0,0.0,0.0,0.0,0.0,0.0,0.0,0.0,0.0,0.0,0.0,0.0,0.0,7.7407,7.8991,8.1698,8.559,8.599,8.7094,8.9093,8.657,8.4137,0.0,0.0,0.0,0.0,0.0,0.0,0.0,0.0,0.0,0.0,0.0,0.0,0.0,0.0,0.0,0.0,0.0,0.0,0.0,0.0,0.0,0.0,0.0,0.0,0.0,0.0,0.0,0.0,0.0,0.0,0.0,0.0,0.0,0.0,0.0,0.0,0.0,0.0,0.0,0.0,0.0,7.6741,7.7239,8.0955,0.0,0.0,0.0,0.0,8.352,7.983,0.0,0.0,0.0,0.0,0.0,0.0,0.0,0.0,0.0,0.0,0.0,0.0,0.0,0.0,0.0,0.0,0.0,0.0,0.0,0.0,0.0,0.0,0.0,0.0,0.0,0.0,0.0,0.0,0.0,0.0,0.0,0.0,0.0,0.0,0.0,0.0,0.0,0.0,0.0,0.0,0.0,0.0,0.0,0.0,0.0,0.0,0.0,0.0,0.0,0.0,0.0,0.0,0.0,0.0,0.0,0.0,7.642,7.7436,7.9417,8.2528,8.2759,8.3451,8.4796,8.3289,8.1742,0.0,0.0,0.0,0.0,0.0,0.0,0.0,0.0,0.0,0.0,0.0,0.0,0.0,0.0,0.0,0.0,0.0,0.0,0.0,0.0,0.0,0.0,0.0,0.0,0.0,0.0,0.0,0.0,0.0,0.0,0.0,0.0,0.0,0.0,0.0,0.0,0.0,0.0,0.0,0.0,7.2063,7.3886,7.4077,0.0,0.0,0.0,0.0,0.0,0.0,7.6259,7.388,0.0,0.0,0.0,0.0,0.0,0.0,0.0,0.0,0.0,0.0,0.0,0.0,0.0,0.0,0.0,0.0,0.0,0.0,0.0,0.0,0.0,0.0,0.0,0.0,0.0,0.0,0.0,0.0,0.0,0.0,0.0,0.0,0.0,0.0,0.0,0.0,0.0,0.0,0.0,0.0,0.0,0.0,0.0,0.0,0.0,0.0,0.0,0.0,0.0,0.0,0.0,0.0,0.0,0.0,0.0,7.5784,7.6327,7.7654,7.9823,7.9703,7.9892,8.0656,8.0318,7.9876,7.9102,0.0,0.0,0.0,0.0,0.0,0.0,0.0,0.0,0.0,0.0,0.0,0.0,0.0,0.0,0.0,0.0,0.0,0.0,0.0,0.0,0.0,0.0,0.0,0.0,0.0,0.0,0.0,0.0,0.0,0.0,0.0,0.0,0.0,0.0,0.0,0.0,0.0,0.0,0.0,7.0709,7.167,0.0,0.0,0.0,0.0,0.0,0.0,0.0,0.0,7.2111,0.0,0.0,0.0,0.0,0.0,0.0,0.0,0.0,0.0,0.0,0.0,0.0,0.0,0.0,0.0,0.0,0.0,0.0,0.0,0.0,0.0,0.0,0.0,0.0,0.0,0.0,0.0,0.0,0.0,0.0,0.0,0.0,0.0,0.0,0.0,0.0,0.0,0.0,0.0,0.0,0.0,0.0,0.0,0.0,0.0,0.0,0.0,0.0,0.0,0.0,0.0,0.0,0.0,0.0,0.0,0.0,7.4232,7.6047,7.8135,7.6604,7.726,8.0512,7.8974,7.7558,7.661,0.0,0.0,0.0,0.0,0.0,0.0,0.0,0.0,0.0,0.0,0.0,0.0,0.0,0.0,0.0,0.0,0.0,0.0,0.0,0.0,0.0,0.0,0.0,0.0,0.0,0.0,0.0,0.0,0.0,0.0,0.0,0.0,0.0,0.0,0.0,0.0,0.0,0.0,6.7229,6.9018,0.0,0.0,0.0,0.0,0.0,0.0,0.0,0.0,7.1157,0.0,0.0,0.0,0.0,0.0,0.0,0.0,0.0,0.0,0.0,0.0,0.0,0.0,0.0,0.0,0.0,0.0,0.0,0.0,0.0,0.0,0.0,0.0,0.0,0.0,0.0,0.0,0.0,0.0,0.0,0.0,0.0,0.0,0.0,0.0,0.0,0.0,0.0,0.0,0.0,0.0,0.0,0.0,0.0,0.0,0.0,0.0,0.0,0.0,0.0,0.0,0.0,0.0,0.0,0.0,0.0,0.0,0.0,7.5243,7.6193,7.6502,7.7546,7.922,7.7421,7.5711,0.0,0.0,0.0,0.0,0.0,0.0,0.0,0.0,0.0,0.0,0.0,0.0,0.0,0.0,0.0,0.0,0.0,0.0,0.0,0.0,0.0,0.0,0.0,0.0,0.0,0.0,0.0,0.0,0.0,0.0,0.0,0.0,0.0,0.0,0.0,0.0,0.0,0.0,0.0,0.0,0.0,0.0,0.0,0.0,0.0,0.0,0.0,0.0,0.0,0.0,0.0,0.0,0.0,0.0,0.0,0.0,0.0,0.0,0.0,0.0,0.0,0.0,0.0,0.0,0.0,0.0,0.0,0.0,0.0,0.0,0.0,0.0,0.0,0.0,0.0,0.0,0.0,0.0,0.0,0.0,0.0,0.0,0.0,0.0,0.0,0.0,0.0,0.0,0.0,0.0,0.0,0.0,0.0,0.0,0.0,0.0,0.0,0.0,0.0,0.0,0.0,0.0,0.0,0.0,0.0,0.0,0.0,0.0,7.4471,7.4672,7.6596,7.7673,7.7644,7.5865,7.4153,0.0,0.0,0.0,0.0,0.0,0.0,0.0,0.0,0.0,0.0,0.0,0.0,0.0,0.0,0.0,0.0,0.0,0.0,0.0,0.0,0.0,0.0,0.0,0.0,0.0,0.0,0.0,0.0,0.0,0.0,0.0,0.0,0.0,0.0,0.0,0.0,0.0,0.0,0.0,0.0,0.0,0.0,0.0,0.0,0.0,0.0,0.0,0.0,6.8814,0.0,0.0,0.0,0.0,0.0,0.0,0.0,0.0,0.0,0.0,0.0,0.0,0.0,0.0,0.0,0.0,0.0,0.0,0.0,0.0,0.0,0.0,0.0,0.0,0.0,0.0,0.0,0.0,0.0,0.0,0.0,0.0,0.0,0.0,0.0,0.0,0.0,0.0,0.0,0.0,0.0,0.0,0.0,0.0,0.0,0.0,0.0,0.0,0.0,0.0,0.0,0.0,0.0,0.0,0.0,0.0,0.0,0.0,0.0,7.3595,7.4605,7.5258,7.5544,7.5502,7.4437,7.3107,0.0,0.0,0.0,0.0,0.0,0.0,0.0,0.0,0.0,0.0,0.0,0.0,0.0,0.0,0.0,0.0,0.0,0.0,0.0,0.0,0.0,0.0,0.0,0.0,0.0,0.0,0.0,0.0,0.0,0.0,0.0,0.0,0.0,0.0,0.0,0.0,0.0,0.0,0.0,0.0,0.0,0.0,0.0,0.0,0.0,0.0,0.0,0.0,0.0,0.0,0.0,0.0,0.0,0.0,0.0,0.0,0.0,0.0,0.0,0.0,0.0,0.0,0.0,0.0,0.0,0.0,0.0,0.0,0.0,0.0,0.0,0.0,0.0,0.0,0.0,0.0,0.0,0.0,0.0,0.0,0.0,0.0,0.0,0.0,0.0,0.0,0.0,0.0,0.0,0.0,0.0,0.0,0.0,0.0,0.0,0.0,0.0,0.0,0.0,0.0,0.0,0.0,0.0,0.0,0.0,0.0,0.0,0.0,7.2122,7.3379,7.4031,7.3283,7.111,7.0637,6.9676,0.0,0.0,0.0,0.0,0.0,0.0,0.0,0.0,0.0,0.0,0.0,0.0,0.0,0.0,0.0,0.0,0.0,0.0,0.0,0.0,0.0,0.0,0.0,0.0,0.0,0.0,0.0,0.0,0.0,0.0,0.0,0.0,0.0,0.0,0.0,0.0,0.0,0.0,0.0,0.0,0.0,0.0,0.0,0.0,0.0,0.0,0.0,0.0,0.0,0.0,0.0,0.0,0.0,0.0,0.0,0.0,0.0,0.0,0.0,0.0,0.0,0.0,0.0,0.0,0.0,0.0,0.0,0.0,0.0,0.0,0.0,0.0,0.0,0.0,0.0,0.0,0.0,0.0,0.0,0.0,0.0,0.0,0.0,0.0,0.0,0.0,0.0,0.0,0.0,0.0,0.0,0.0,0.0,0.0,0.0,0.0,0.0,0.0,0.0,0.0,0.0,0.0,0.0,0.0,0.0,0.0,0.0,0.0,0.0,7.1834,7.1696,7.0258,6.7535,6.7437,6.6866,0.0,0.0,0.0,0.0,0.0,0.0,0.0,0.0,0.0,0.0,0.0,0.0,0.0,0.0,0.0,0.0,0.0,0.0,0.0,0.0,0.0,0.0,0.0,0.0,0.0,0.0,0.0,0.0,0.0,0.0,0.0,0.0,0.0,0.0,0.0,0.0,0.0,0.0,0.0,0.0,0.0,0.0,0.0,0.0,0.0,0.0,0.0,0.0,0.0,0.0,0.0,0.0,0.0,0.0,0.0,0.0,0.0,0.0,0.0,0.0,0.0,0.0,0.0,0.0,0.0,0.0,0.0,0.0,0.0,0.0,0.0,0.0,0.0,0.0,0.0,0.0,0.0,0.0,0.0,0.0,0.0,0.0,0.0,0.0,0.0,0.0,0.0,0.0,0.0,0.0,0.0,0.0,0.0,0.0,0.0,0.0,0.0,0.0,0.0,0.0,0.0,0.0,0.0,0.0,0.0,0.0,0.0,0.0,0.0,7.0305,6.7615,6.6124,6.5858,6.5858,6.5787,0.0,0.0,0.0,0.0,0.0,0.0,0.0,0.0,0.0,0.0,0.0,0.0,0.0,0.0,0.0,0.0,0.0,0.0,0.0,0.0,0.0,0.0,0.0,0.0,0.0,0.0,0.0,0.0,0.0,0.0,0.0,0.0,0.0,0.0,0.0,0.0,0.0,0.0,0.0,0.0,0.0,0.0,0.0,0.0,0.0,0.0,0.0,0.0,0.0,0.0,0.0,0.0,0.0,0.0,0.0,0.0,0.0,0.0,0.0,0.0,0.0,0.0,0.0,0.0,0.0,0.0,0.0,0.0,0.0,0.0,0.0,0.0,0.0,0.0,0.0,0.0,0.0,0.0,0.0,0.0,0.0,0.0,0.0,0.0,0.0,0.0,0.0,0.0,0.0,0.0,0.0,0.0,0.0,0.0,0.0,0.0,0.0,0.0,0.0,0.0,0.0,0.0,0.0,0.0,0.0,0.0,0.0,0.0,0.0,6.7175,6.6207,6.5715,6.5715,6.5715,6.5225,6.4114,0.0,0.0,0.0,0.0,0.0,0.0,0.0,0.0,0.0,0.0,0.0,0.0,0.0,0.0,0.0,0.0,0.0,0.0,0.0,0.0,0.0,0.0,0.0,0.0,0.0,0.0,0.0,0.0,0.0,0.0,0.0,0.0,0.0,0.0,0.0,0.0,0.0,0.0,0.0,0.0,0.0,0.0,0.0,0.0,0.0,0.0,0.0,0.0,0.0,0.0,0.0,0.0,0.0,0.0,0.0,0.0,0.0,0.0,0.0,0.0,0.0,0.0,0.0,0.0,0.0,0.0,0.0,0.0,0.0,0.0,0.0,0.0,0.0,0.0,0.0,0.0,0.0,0.0,0.0,0.0,0.0,0.0,0.0,0.0,0.0,0.0,0.0,0.0,0.0,0.0,0.0,0.0,0.0,0.0,0.0,0.0,0.0,0.0,0.0,0.0,0.0,0.0,0.0,0.0,0.0,0.0,0.0,0.0,6.481,6.495,6.5002,6.4966,6.4321,6.3408,0.0,0.0,0.0,0.0,0.0,0.0,0.0,0.0,0.0,0.0,0.0,0.0,0.0,0.0,0.0,0.0,0.0,0.0,0.0,0.0,0.0,0.0,0.0,0.0,0.0,0.0,0.0,0.0,0.0,0.0,0.0,0.0,0.0,0.0,0.0,0.0,0.0,0.0,0.0,0.0,0.0,0.0,0.0,0.0,0.0,0.0,0.0,0.0,0.0,0.0,0.0,0.0,0.0,0.0,0.0,0.0,0.0,0.0,0.0,0.0,0.0,0.0,0.0,0.0,0.0,0.0,0.0,0.0,0.0,0.0,0.0,0.0,0.0,0.0,0.0,0.0,0.0,0.0,0.0,0.0,0.0,0.0,0.0,0.0,0.0,0.0,0.0,0.0,0.0,0.0,0.0,0.0,0.0,0.0,0.0,0.0,0.0,0.0,0.0,0.0,0.0,0.0,0.0,0.0,0.0,0.0,0.0,0.0,6.1623,6.3274,6.3442,6.3478,6.3335,6.1455,6.0228,0.0,0.0,0.0,0.0,0.0,0.0,0.0,0.0,0.0,0.0,0.0,0.0,0.0,0.0,0.0,0.0,0.0,0.0,0.0,0.0,0.0,0.0,0.0,0.0,0.0,0.0,0.0,0.0,0.0,0.0,0.0,0.0,0.0,0.0,0.0,0.0,0.0,0.0,0.0,0.0,0.0,0.0,0.0,0.0,0.0,0.0,0.0,0.0,0.0,0.0,0.0,0.0,0.0,0.0,0.0,0.0,0.0,0.0,0.0,0.0,0.0,0.0,0.0,0.0,0.0,0.0,0.0,0.0,0.0,0.0,0.0,0.0,0.0,0.0,0.0,0.0,0.0,0.0,0.0,0.0,0.0,0.0,0.0,0.0,0.0,0.0,0.0,0.0,0.0,0.0,0.0,0.0,0.0,0.0,0.0,0.0,0.0,0.0,0.0,0.0,0.0,0.0,0.0,0.0,0.0,0.0,0.0,0.0,0.0,6.1552,0.0,6.3371,0.0,6.2582,6.1125,0.0,0.0,0.0,0.0,0.0,0.0,0.0,0.0,0.0,0.0,0.0,0.0,0.0,0.0,0.0,0.0,0.0,0.0,0.0,0.0,0.0,0.0,0.0,0.0,0.0,0.0,0.0,0.0,0.0,0.0,0.0,0.0,0.0,0.0,0.0,0.0,0.0,0.0,0.0,0.0,0.0,0.0,0.0,0.0,0.0,0.0,0.0,0.0,0.0,0.0,0.0,0.0,0.0,0.0,0.0,0.0,0.0,0.0,0.0,0.0,0.0,0.0,0.0,0.0,0.0,0.0,0.0,0.0,0.0,0.0,0.0,0.0,0.0,0.0,0.0,0.0,0.0,0.0,0.0,0.0,0.0,0.0,0.0,0.0,0.0,0.0,0.0,0.0,0.0,0.0,0.0,0.0,0.0,0.0,0.0,0.0,0.0,0.0,0.0,0.0,0.0,0.0,0.0,0.0,0.0,0.0,0.0,0.0,0.0,5.9754,6.0913,6.1536,6.1536,6.0619,5.8889,0.0,0.0,0.0,0.0,0.0,0.0,0.0,0.0,0.0,0.0,0.0,0.0,0.0,0.0,0.0,0.0,0.0,0.0,0.0,0.0,0.0,0.0,0.0,0.0,0.0,0.0,0.0,0.0,0.0,0.0,0.0,0.0,0.0,0.0,0.0,0.0,0.0,0.0,0.0,0.0,0.0,0.0,0.0,0.0,0.0,0.0,0.0,0.0,0.0,0.0,0.0,0.0,0.0,0.0,0.0,0.0,0.0,0.0,0.0,0.0,0.0,0.0,0.0,0.0,0.0,0.0,0.0,0.0,0.0,0.0,0.0,0.0,0.0,0.0,0.0,0.0,0.0,0.0,0.0,0.0,0.0,0.0,0.0,0.0,0.0,0.0,0.0,0.0,0.0,0.0,0.0,0.0,0.0,0.0,0.0,0.0,0.0,0.0,0.0,0.0,0.0,0.0,0.0,0.0,0.0,0.0,0.0,0.0,0.0,0.0,5.8112,5.815,5.8175,5.5965,5.3802,0.0,0.0,0.0,0.0,0.0,0.0,0.0,0.0,0.0,0.0,0.0,0.0,0.0,0.0,0.0,0.0,0.0,0.0,0.0,0.0,0.0,0.0,0.0,0.0,0.0,0.0,0.0,0.0,0.0,0.0,0.0,0.0,0.0,0.0,0.0,0.0,0.0,0.0,0.0,0.0,0.0,0.0,0.0,0.0,0.0,0.0,0.0,0.0,0.0,0.0,0.0,0.0,0.0,0.0,0.0,0.0,0.0,0.0,0.0,0.0,0.0,0.0,0.0,0.0,0.0,0.0,0.0,0.0,0.0,0.0,0.0,0.0,0.0,0.0,0.0,0.0,0.0,0.0,0.0,0.0,0.0,0.0,0.0,0.0,0.0,0.0,0.0,0.0,0.0,0.0,0.0,0.0,0.0,0.0,0.0,0.0,0.0,0.0,0.0,0.0,0.0,0.0,0.0,0.0,0.0,0.0,0.0,0.0,0.0,0.0,5.5472,5.5603,5.5941,5.3984,5.2054,5.0263,0.0,0.0,0.0,0.0,0.0,0.0,0.0,0.0,0.0,0.0,0.0,0.0,0.0,0.0,0.0,0.0,0.0,0.0,0.0,0.0,0.0,0.0,0.0,0.0,0.0,0.0,0.0,0.0,0.0,0.0,0.0,0.0,0.0,0.0,0.0,0.0,0.0,0.0,0.0,0.0,0.0,0.0,0.0,0.0,0.0,0.0,0.0,0.0,0.0,0.0,0.0,0.0,0.0,0.0,0.0,0.0,0.0,0.0,0.0,0.0,0.0,0.0,0.0,0.0,0.0,0.0,0.0,0.0,0.0,0.0,0.0,0.0,0.0,0.0,0.0,0.0,0.0,0.0,0.0,0.0,0.0,0.0,0.0,0.0,0.0,0.0,0.0,0.0,0.0,0.0,0.0,0.0,0.0,0.0,0.0,0.0,0.0,0.0,0.0,0.0,0.0,0.0,0.0,0.0,0.0,0.0,0.0,0.0,0.0,0.0,5.3387,5.3751,5.1985,5.0159,0.0,0.0,0.0,0.0,0.0,0.0,0.0,0.0,0.0,0.0,0.0,0.0,0.0,0.0,0.0,0.0,0.0,0.0,0.0,0.0,0.0,0.0,0.0,0.0,0.0,0.0,0.0,0.0,0.0,0.0,0.0,0.0,0.0,0.0,0.0,0.0,0.0,0.0,0.0,0.0,0.0,0.0,0.0,0.0,0.0,0.0,0.0,0.0,0.0,0.0,0.0,0.0,0.0,0.0,0.0,0.0,0.0,0.0,0.0,0.0,0.0,0.0,0.0,0.0,0.0,0.0,0.0,0.0,0.0,0.0,0.0,0.0,0.0,0.0,0.0,0.0,0.0,0.0,0.0,0.0,0.0,0.0,0.0,0.0,0.0,0.0,0.0,0.0,0.0,0.0,0.0,0.0,0.0,0.0,0.0,0.0,0.0,0.0,0.0,0.0,0.0,0.0,0.0,0.0,0.0,0.0,0.0,0.0,0.0,0.0,0.0,5.1341,5.1396,4.9725,0.0,4.6326,0.0,0.0,0.0,0.0,0.0,0.0,0.0,0.0,0.0,0.0,0.0,0.0,0.0,0.0,0.0,0.0,0.0,0.0,0.0,0.0,0.0,0.0,0.0,0.0,0.0,0.0,0.0,0.0,0.0,0.0,0.0,0.0,0.0,0.0,0.0,0.0,0.0,0.0,0.0,0.0,0.0,0.0,0.0,0.0,0.0,0.0,0.0,0.0,0.0,0.0,0.0,0.0,0.0,0.0,0.0,0.0,0.0,0.0,0.0,0.0,0.0,0.0,0.0,0.0,0.0,0.0,0.0,0.0,0.0,0.0,0.0,0.0,0.0,0.0,0.0,0.0,0.0,0.0,0.0,0.0,0.0,0.0,0.0,0.0,0.0,0.0,0.0,0.0,0.0,0.0,0.0,0.0,0.0,0.0,0.0,0.0,0.0,0.0,0.0,0.0,0.0,0.0,0.0,0.0,0.0,0.0,0.0,0.0,0.0,0.0,0.0,0.0,4.6332,4.4508,4.4047,0.0,0.0,0.0,0.0,0.0,0.0,0.0,0.0,0.0,0.0,0.0,0.0,0.0,0.0,0.0,0.0,0.0,0.0,0.0,0.0,0.0,0.0,0.0,0.0,0.0,0.0,0.0,0.0,0.0,0.0,0.0,0.0,0.0,0.0,0.0,0.0,0.0,0.0,0.0,0.0,0.0,0.0,0.0,0.0,0.0,0.0,0.0,0.0,0.0,0.0,0.0,0.0,0.0,0.0,0.0,0.0,0.0,0.0,0.0,0.0,0.0,0.0,0.0,0.0,0.0,0.0,0.0,0.0,0.0,0.0,0.0,0.0,0.0,0.0,0.0,0.0,0.0,0.0,0.0,0.0,0.0,0.0,0.0,0.0,0.0,0.0,0.0,0.0,0.0,0.0,0.0,0.0,0.0,0.0,0.0,0.0,0.0,0.0,0.0,0.0,0.0,0.0,0.0,0.0,0.0,0.0,0.0,0.0,0.0,0.0,4.7487,4.7171,4.4713,4.3373,4.3373,0.0,0.0,0.0,0.0,0.0,0.0,0.0,0.0,0.0,0.0,0.0,0.0,0.0,0.0,0.0,0.0,0.0,0.0,0.0,0.0,0.0,0.0,0.0,0.0,0.0,0.0,0.0,0.0,0.0,0.0,0.0,0.0,0.0,0.0,0.0,0.0,0.0,0.0,0.0,0.0,0.0,0.0,0.0,0.0,0.0,0.0,0.0,0.0,0.0,0.0,0.0,0.0,0.0,0.0,0.0,0.0,0.0,0.0,0.0,0.0,0.0,0.0,0.0,0.0,0.0,0.0,0.0,0.0,0.0,0.0,0.0,0.0,0.0,0.0,0.0,0.0,0.0,0.0,0.0,0.0,0.0,0.0,0.0,0.0,0.0,0.0,0.0,0.0,0.0,0.0,0.0,0.0,0.0,0.0,0.0,0.0,0.0,0.0,0.0,0.0,0.0,0.0,0.0,0.0,0.0,0.0,0.0,0.0,0.0,0.0,0.0,0.0,0.0,0.0,4.3373,0.0,0.0,0.0,0.0,0.0,0.0,0.0,0.0,0.0,0.0,0.0,0.0,0.0,0.0,0.0,0.0,0.0,0.0,0.0,0.0,0.0,0.0,0.0,0.0,0.0,0.0,0.0,0.0,0.0,0.0,0.0,0.0,0.0,0.0,0.0,0.0,0.0,0.0,0.0,0.0,0.0,0.0,0.0,0.0,0.0,0.0,0.0,0.0,0.0,0.0,0.0,0.0,0.0,0.0,0.0,0.0,0.0,0.0,0.0,0.0,0.0,0.0,0.0,0.0,0.0,0.0,0.0,0.0,0.0,0.0,0.0,0.0,0.0,0.0,0.0,0.0,0.0,0.0,0.0,0.0,0.0,0.0,0.0,0.0,0.0,0.0,0.0,0.0,0.0,0.0,0.0,0.0,0.0,0.0,0.0,0.0,0.0,0.0,0.0,0.0,0.0,0.0,0.0,0.0,0.0,0.0,0.0,0.0,0.0,0.0,0.0,0.0,0.0,0.0,0.0,0.0,0.0,0.0,0.0,0.0,0.0,0.0,0.0,0.0,0.0,0.0,0.0,0.0,0.0,0.0,0.0,0.0,0.0,0.0,0.0,0.0,0.0,0.0,0.0,0.0,0.0,0.0,0.0,0.0,0.0,0.0,0.0,0.0,0.0,0.0,0.0,0.0,0.0,0.0,0.0,0.0,0.0,0.0,0.0,0.0,0.0,0.0,0.0,0.0,0.0,0.0,0.0,0.0,0.0,0.0,0.0,0.0,0.0,0.0,0.0,0.0,0.0,0.0,0.0,0.0,0.0,0.0,0.0,0.0,0.0,0.0,0.0,0.0,0.0,0.0,0.0,0.0,0.0,0.0,0.0,0.0,0.0,0.0,0.0,0.0,0.0,0.0,0.0,0.0,0.0,0.0,0.0,0.0,0.0,0.0,0.0,0.0,0.0,0.0,0.0,0.0,0.0,0.0,0.0,0.0,0.0,0.0,0.0,0.0,0.0,0.0,0.0,0.0,0.0,0.0,0.0,0.0,0.0,0.0,0.0,0.0,0.0,0.0,0.0,0.0,0.0,0.0,0.0,0.0,0.0,0.0,0.0,0.0,0.0,0.0,0.0,0.0,0.0,0.0,0.0,0.0,0.0,0.0,0.0,0.0,0.0,0.0,0.0,0.0,0.0,0.0,0.0,0.0,0.0,0.0,0.0,0.0,0.0,0.0,0.0,0.0,0.0,0.0,0.0,0.0,0.0,0.0,0.0,0.0,0.0,0.0,0.0,0.0,0.0,0.0,0.0,0.0,0.0,0.0,0.0,0.0,0.0,0.0,0.0,0.0,0.0,0.0,0.0,0.0,0.0,0.0,0.0,0.0,0.0,0.0,0.0,0.0,0.0,0.0,0.0,0.0,0.0,0.0,0.0,0.0,0.0,0.0,0.0,0.0,0.0,0.0,0.0,0.0,0.0,0.0,0.0,0.0,0.0,0.0,0.0,0.0,0.0,0.0,0.0,0.0,0.0,0.0,0.0,0.0,0.0,0.0,0.0,0.0,0.0,0.0,0.0,0.0,0.0,0.0,0.0,0.0,0.0,0.0,0.0,0.0,0.0,0.0,0.0,0.0,0.0,0.0,0.0,0.0,0.0,0.0,0.0,0.0,0.0,0.0,0.0,0.0,0.0,0.0,0.0,0.0,0.0,0.0,0.0,0.0,0.0,0.0,0.0,0.0,0.0,0.0,0.0,0.0,0.0,0.0,0.0,0.0,0.0,0.0,0.0,0.0,0.0,0.0,0.0,0.0,0.0,0.0,0.0,0.0,0.0,0.0,0.0,0.0,0.0,0.0,0.0,0.0,0.0,0.0,0.0,0.0,0.0,0.0,0.0,0.0,0.0,0.0,0.0,0.0,0.0,0.0,0.0,0.0,0.0,0.0,0.0,0.0,0.0,0.0,0.0,0.0,0.0,0.0,0.0,0.0,0.0,0.0,0.0,0.0,0.0,0.0,0.0,0.0,0.0,0.0,0.0,0.0,0.0,0.0,0.0,0.0,0.0,0.0,0.0,0.0,0.0,0.0,0.0,0.0,0.0,0.0,0.0,0.0,0.0,0.0,0.0,0.0,0.0,0.0,0.0,0.0,0.0,0.0,0.0,0.0,0.0,0.0,0.0,0.0,0.0,0.0,0.0,0.0,0.0,0.0,0.0,0.0,0.0,0.0,0.0,0.0,0.0,0.0,0.0,0.0,0.0,0.0,0.0,0.0,0.0,0.0,0.0,0.0,0.0,0.0,0.0,0.0,0.0,0.0,0.0,0.0,0.0,0.0,0.0,0.0,0.0,0.0,0.0,0.0,0.0,0.0,0.0,0.0,0.0,0.0,0.0,0.0,0.0,0.0,0.0,0.0,0.0,0.0,0.0,0.0,0.0,0.0,0.0,0.0,0.0,0.0,0.0,0.0,0.0,0.0,0.0,0.0,0.0,0.0,0.0,0.0,0.0,0.0,0.0,0.0,0.0,0.0,0.0,0.0,0.0,0.0,0.0,0.0,0.0,0.0,0.0,0.0,0.0,0.0,0.0,0.0,0.0,0.0,0.0,0.0,0.0,0.0,0.0,0.0,0.0,0.0,0.0,0.0,0.0,0.0,0.0,0.0,0.0,0.0,0.0,0.0,0.0,0.0,0.0,0.0,0.0,0.0,0.0,0.0,0.0,0.0,0.0,0.0,0.0,0.0,0.0,0.0,0.0,0.0,0.0,0.0,0.0,0.0,0.0,0.0,0.0,0.0,0.0,0.0,0.0,0.0,0.0,0.0,0.0,0.0,0.0,0.0,0.0,0.0,0.0,0.0,0.0,0.0,0.0,0.0,0.0,0.0,0.0,0.0,0.0,0.0,0.0,0.0,0.0,0.0,0.0,0.0,0.0,0.0,0.0,0.0,0.0,0.0,0.0,0.0,0.0,0.0,0.0,0.0,0.0,0.0,0.0,0.0,0.0,0.0,0.0,0.0,0.0,0.0,0.0,0.0,0.0,0.0,0.0,0.0,0.0,0.0,0.0,0.0,0.0,0.0,0.0,0.0,0.0,0.0,0.0,0.0,0.0,0.0,0.0,0.0,0.0,0.0,0.0,0.0,0.0,0.0,0.0,0.0,0.0,0.0,0.0,0.0,0.0,0.0,0.0,0.0,0.0,0.0,0.0,0.0,0.0,0.0,0.0,0.0,0.0,0.0,0.0,0.0,0.0,0.0,0.0,0.0,0.0,0.0,0.0,0.0,0.0,0.0,0.0,0.0,0.0,0.0,0.0,0.0,0.0,0.0,0.0,0.0,0.0,0.0,0.0,0.0,0.0,0.0,0.0,0.0,0.0,0.0,0.0,0.0,0.0,0.0,0.0,0.0,0.0,0.0,0.0,0.0,0.0,0.0,0.0,0.0,0.0,0.0,0.0,0.0,0.0,0.0,0.0,0.0,0.0,0.0,0.0,0.0,0.0,0.0,0.0,0.0,0.0,0.0,0.0,0.0,0.0,0.0,0.0,0.0,0.0,0.0,0.0,0.0,0.0,0.0,0.0,0.0,0.0,0.0,0.0,0.0,0.0,0.0,0.0,0.0,0.0,0.0,0.0,0.0,0.0,0.0,0.0,0.0,0.0,0.0,0.0,0.0,0.0,0.0,0.0,0.0,0.0,0.0,0.0,0.0,0.0,0.0,0.0,0.0,0.0,0.0,0.0,0.0,0.0,0.0,0.0,0.0,0.0,0.0,0.0,0.0,0.0,0.0,0.0,0.0,0.0,0.0,0.0,0.0,0.0,0.0,0.0,0.0,0.0,0.0,0.0,0.0,0.0,0.0,0.0,0.0,0.0,0.0,0.0,0.0,0.0,0.0,0.0,0.0,0.0,0.0,0.0,0.0,0.0,0.0,0.0,0.0,0.0,0.0,0.0,0.0,0.0,0.0,0.0,0.0,0.0,0.0,0.0,0.0,0.0,0.0,0.0,0.0,0.0,0.0,0.0,0.0,0.0,0.0,0.0,0.0,0.0,0.0,0.0,0.0,0.0,0.0,0.0,0.0,0.0,0.0,0.0,0.0,0.0,0.0,0.0,0.0,0.0,0.0,0.0,0.0,0.0,0.0,0.0,0.0,0.0,0.0,0.0,0.0,0.0,0.0,0.0,0.0,0.0,0.0,0.0,0.0,0.0,0.0,0.0,0.0,0.0,0.0,0.0,0.0,0.0,0.0,0.0,0.0,0.0,0.0,0.0,0.0,0.0,0.0,0.0,0.0,0.0,0.0,0.0,0.0,0.0,0.0,0.0,0.0,0.0,0.0,0.0,0.0,0.0,0.0,0.0,0.0,0.0,0.0,0.0,0.0,0.0,0.0,0.0,0.0]}]]]